[[{"header":{"parameterUnit":"m.s-1","parameterCategory":1,"la1":30.6,"la2":28.766,"lo1":-90.7593,"lo2":-88.6598,"dy":0.0162,"dx":0.0183,"nx":116,"ny":114,"refTime":"2023-03-13T00:00:00:Z","depth":0,"parameterNumber":2,"parameterNumberName":"U-component_of_WINDS"},"data":[0.0,0.0,0.0,0.0,0.0,0.0,0.0,0.0,0.0,0.0,0.0,0.0,0.0,0.0,0.0,0.0,0.0,0.0,0.0,0.0,0.0,0.0,0.0,0.0,0.0,0.0,0.0,0.0,0.0,0.0,0.0,0.0,0.0,0.0,0.0,0.0,0.0,0.0,0.0,0.0,0.0,0.0,0.0,0.0,0.0,0.0,0.0,0.0,0.0,0.0,0.0,0.0,0.0,0.0,0.0,0.0,0.0,0.0,0.0,0.0,0.0,0.0,0.0,0.0,0.0,0.0,0.0,0.0,0.0,0.0,0.0,0.0,0.0,0.0,0.0,0.0,0.0,0.0,0.0,0.0,0.0,0.0,0.0,0.0,0.0,0.0,0.0,0.0,0.0,0.0,0.0,0.0,0.0,0.0,0.0,0.0,0.0,0.0,0.0,0.0,0.0,0.0,0.0,0.0,0.0,0.0,0.0,0.0,0.0,0.0,0.0,0.0,0.0,0.0,0.0,0.0,0.0,0.0,0.0,0.0,0.0,0.0,0.0,0.0,0.0,0.0,0.0,0.0,0.0,0.0,0.0,0.0,0.0,0.0,0.0,0.0,0.0,0.0,0.0,0.0,0.0,0.0,0.0,0.0,0.0,0.0,0.0,0.0,0.0,0.0,0.0,0.0,0.0,0.0,0.0,0.0,0.0,0.0,0.0,0.0,0.0,0.0,0.0,0.0,0.0,0.0,0.0,0.0,0.0,0.0,0.0,0.0,0.0,0.0,0.0,0.0,0.0,0.0,0.0,0.0,0.0,0.0,0.0,0.0,0.0,0.0,0.0,0.0,0.0,0.0,0.0,0.0,0.0,0.0,0.0,0.0,0.0,0.0,0.0,0.0,0.0,0.0,0.0,0.0,0.0,0.0,0.0,0.0,0.0,0.0,0.0,0.0,0.0,0.0,0.0,0.0,0.0,0.0,0.0,0.0,0.0,0.0,0.0,0.0,0.0,0.0,0.0,0.0,0.0,0.0,0.0,0.0,0.0,0.0,0.0,0.0,0.0,0.0,0.0,0.0,0.0,0.0,0.0,0.0,0.0,0.0,0.0,0.0,0.0,0.0,0.0,0.0,0.0,0.0,0.0,0.0,0.0,0.0,0.0,0.0,0.0,0.0,0.0,0.0,0.0,0.0,0.0,0.0,0.0,0.0,0.0,0.0,0.0,0.0,0.0,0.0,0.0,0.0,0.0,0.0,0.0,0.0,0.0,0.0,0.0,0.0,0.0,0.0,0.0,0.0,0.0,0.0,0.0,0.0,0.0,0.0,0.0,0.0,0.0,0.0,0.0,0.0,0.0,0.0,0.0,0.0,0.0,0.0,0.0,0.0,0.0,0.0,0.0,0.0,0.0,0.0,0.0,0.0,0.0,0.0,0.0,0.0,0.0,0.0,0.0,0.0,0.0,0.0,0.0,0.0,0.0,0.0,0.0,0.0,0.0,0.0,0.0,0.0,0.0,0.0,0.0,0.0,0.0,0.0,0.0,0.0,0.0,0.0,0.0,0.0,0.0,0.0,0.0,0.0,0.0,0.0,0.0,0.0,0.0,0.0,0.0,0.0,0.0,0.0,0.0,0.0,0.0,0.0,0.0,0.0,0.0,0.0,0.0,0.0,0.0,0.0,0.0,0.0,0.0,0.0,0.0,0.0,0.0,0.0,0.0,0.0,0.0,0.0,0.0,0.0,0.0,0.0,0.0,0.0,0.0,0.0,0.0,0.0,0.0,0.0,0.0,0.0,0.0,0.0,0.0,0.0,0.0,0.0,0.0,0.0,0.0,0.0,0.0,0.0,0.0,0.0,0.0,0.0,0.0,0.0,0.0,0.0,0.0,0.0,0.0,0.0,0.0,0.0,0.0,0.0,0.0,0.0,0.0,0.0,0.0,0.0,0.0,0.0,0.0,0.0,0.0,0.0,0.0,0.0,0.0,0.0,0.0,0.0,0.0,0.0,0.0,0.0,0.0,0.0,0.0,0.0,0.0,0.0,0.0,0.0,0.0,0.0,0.0,0.0,0.0,0.0,0.0,0.0,0.0,0.0,0.0,0.0,0.0,0.0,0.0,0.0,0.0,0.0,0.0,0.0,0.0,0.0,0.0,0.0,0.0,0.0,0.0,0.0,0.0,0.0,0.0,0.0,0.0,0.0,0.0,0.0,0.0,0.0,0.0,0.0,0.0,0.0,0.0,0.0,0.0,0.0,0.0,0.0,0.0,0.0,0.0,0.0,0.0,0.0,0.0,0.0,0.0,0.0,0.0,0.0,0.0,0.0,0.0,0.0,0.0,0.0,0.0,0.0,0.0,0.0,0.0,0.0,0.0,0.0,0.0,0.0,0.0,0.0,0.0,0.0,0.0,0.0,0.0,0.0,0.0,0.0,0.0,0.0,0.0,0.0,0.0,0.0,0.0,0.0,0.0,0.0,0.0,0.0,0.0,0.0,0.0,0.0,0.0,0.0,0.0,0.0,0.0,0.0,0.0,0.0,0.0,0.0,0.0,0.0,0.0,0.0,0.0,0.0,0.0,0.0,0.0,0.0,0.0,0.0,0.0,0.0,0.0,0.0,0.0,0.0,0.0,0.0,0.0,0.0,0.0,0.0,0.0,0.0,0.0,0.0,0.0,0.0,0.0,0.0,0.0,0.0,0.0,0.0,0.0,0.0,0.0,0.0,0.0,0.0,0.0,0.0,0.0,0.0,0.0,0.0,0.0,0.0,0.0,0.0,0.0,0.0,0.0,0.0,0.0,0.0,0.0,0.0,0.0,0.0,0.0,0.0,0.0,0.0,0.0,0.0,0.0,0.0,0.0,0.0,0.0,0.0,0.0,0.0,0.0,0.0,0.0,0.0,0.0,0.0,0.0,0.0,0.0,0.0,0.0,0.0,0.0,0.0,0.0,0.0,0.0,0.0,0.0,0.0,0.0,0.0,0.0,0.0,0.0,0.0,0.0,0.0,0.0,0.0,0.0,0.0,0.0,0.0,0.0,0.0,0.0,0.0,0.0,0.0,0.0,0.0,0.0,0.0,0.0,0.0,0.0,0.0,0.0,0.0,0.0,0.0,0.0,0.0,0.0,0.0,0.0,0.0,0.0,0.0,0.0,0.0,0.0,0.0,0.0,0.0,0.0,0.0,0.0,0.0,0.0,0.0,0.0,0.0,0.0,0.0,0.0,0.0,0.0,0.0,0.0,0.0,0.0,0.0,0.0,0.0,0.0,0.0,0.0,0.0,0.0,0.0,0.0,0.0,0.0,0.0,0.0,0.0,0.0,0.0,0.0,0.0,0.0,0.0,0.0,0.0,0.0,0.0,0.0,0.0,0.0,0.0,0.0,0.0,0.0,0.0,0.0,0.0,0.0,0.0,0.0,0.0,0.0,0.0,0.0,0.0,0.0,0.0,0.0,0.0,0.0,0.0,0.0,0.0,0.0,0.0,0.0,0.0,0.0,0.0,0.0,0.0,0.0,0.0,0.0,0.0,0.0,0.0,0.0,0.0,0.0,0.0,0.0,0.0,0.0,0.0,0.0,0.0,0.0,0.0,0.0,0.0,0.0,0.0,0.0,0.0,0.0,0.0,0.0,0.0,0.0,0.0,0.0,0.0,0.0,0.0,0.0,0.0,0.0,0.0,0.0,0.0,0.0,0.0,0.0,0.0,0.0,0.0,0.0,0.0,0.0,0.0,0.0,0.0,0.0,0.0,0.0,0.0,0.0,0.0,0.0,0.0,0.0,0.0,0.0,0.0,0.0,0.0,0.0,0.0,0.0,0.0,0.0,0.0,0.0,0.0,0.0,0.0,0.0,0.0,0.0,0.0,0.0,0.0,0.0,0.0,0.0,0.0,0.0,0.0,0.0,0.0,0.0,0.0,0.0,0.0,0.0,0.0,0.0,0.0,0.0,0.0,0.0,0.0,0.0,0.0,0.0,0.0,0.0,0.0,0.0,0.0,0.0,0.0,0.0,0.0,0.0,0.0,0.0,0.0,0.0,0.0,0.0,0.0,0.0,0.0,0.0,0.0,0.0,0.0,0.0,0.0,0.0,0.0,0.0,0.0,0.0,0.0,0.0,0.0,0.0,0.0,0.0,0.0,0.0,0.0,0.0,0.0,0.0,0.0,0.0,0.0,0.0,0.0,0.0,0.0,0.0,0.0,0.0,0.0,0.0,0.0,0.0,0.0,0.0,0.0,0.0,0.0,0.0,0.0,0.0,0.0,0.0,0.0,0.0,0.0,0.0,0.0,0.0,0.0,0.0,0.0,0.0,0.0,0.0,0.0,0.0,0.0,0.0,0.0,0.0,0.0,0.0,0.0,0.0,0.0,0.0,0.0,0.0,0.0,0.0,0.0,0.0,0.0,0.0,0.0,0.0,0.0,0.0,0.0,0.0,0.0,0.0,0.0,0.0,0.0,0.0,0.0,0.0,0.0,0.0,0.0,0.0,0.0,0.0,0.0,0.0,0.0,0.0,0.0,0.0,0.0,0.0,0.0,0.0,0.0,0.0,0.0,0.0,0.0,0.0,0.0,0.0,0.0,0.0,0.0,0.0,0.0,0.0,0.0,0.0,0.0,0.0,0.0,0.0,0.0,0.0,0.0,0.0,0.0,0.0,0.0,0.0,0.0,0.0,0.0,0.0,0.0,0.0,0.0,0.0,0.0,0.0,0.0,0.0,0.0,0.0,0.0,0.0,0.0,0.0,0.0,0.0,0.0,0.0,0.0,0.0,0.0,0.0,0.0,0.0,0.0,0.0,0.0,0.0,0.0,0.0,0.0,0.0,0.0,0.0,0.0,0.0,0.0,0.0,0.0,0.0,0.0,0.0,0.0,0.0,0.0,0.0,0.0,0.0,0.0,0.0,0.0,0.0,0.0,0.0,0.0,0.0,0.0,0.0,0.0,0.0,0.0,0.0,0.0,0.0,0.0,0.0,0.0,0.0,0.0,0.0,0.0,0.0,0.0,0.0,0.0,0.0,0.0,0.0,0.0,0.0,0.0,0.0,0.0,0.0,0.0,0.0,0.0,0.0,0.0,0.0,0.0,0.0,0.0,0.0,0.0,0.0,0.0,0.0,0.0,0.0,0.0,0.0,0.0,0.0,0.0,0.0,0.0,0.0,0.0,0.0,0.0,0.0,0.0,0.0,0.0,0.0,0.0,0.0,0.0,0.0,0.0,0.0,0.0,0.0,0.0,0.0,0.0,0.0,0.0,0.0,0.0,0.0,0.0,0.0,0.0,0.0,0.0,0.0,0.0,0.0,0.0,0.0,0.0,0.0,0.0,0.0,0.0,0.0,0.0,0.0,0.0,0.0,0.0,0.0,0.0,0.0,0.0,0.0,0.0,0.0,0.0,0.0,0.0,0.0,0.0,0.0,0.0,0.0,0.0,0.0,0.0,0.0,0.0,0.0,0.0,0.0,0.0,0.0,0.0,0.0,0.0,0.0,0.0,0.0,0.0,0.0,0.0,0.0,0.0,0.0,0.0,0.0,0.0,0.0,0.0,0.0,0.0,0.0,0.0,0.0,0.0,0.0,0.0,0.0,0.0,0.0,0.0,0.0,0.0,0.0,0.0,0.0,0.0,0.0,0.0,0.0,0.0,0.0,0.0,0.0,0.0,0.0,0.0,0.0,0.0,0.0,0.0,0.0,0.0,0.0,0.0,0.0,0.0,0.0,0.0,0.0,0.0,0.0,0.0,0.0,0.0,0.0,0.0,0.0,0.0,0.0,0.0,0.0,0.0,0.0,0.0,0.0,0.0,0.0,0.0,0.0,0.0,0.0,0.0,0.0,0.0,0.0,0.0,0.0,0.0,0.0,0.0,0.0,0.0,0.0,0.0,0.0,0.0,0.0,0.0,0.0,0.0,0.0,0.0,0.0,0.0,0.0,0.0,0.0,0.0,0.0,0.0,0.0,0.0,0.0,0.0,0.0,0.0,0.0,0.0,0.0,0.0,0.0,0.0,0.0,0.0,0.0,0.0,0.0,0.0,0.0,0.0,0.0,0.0,0.0,0.0,0.0,0.0,0.0,0.0,0.0,0.0,0.0,0.0,0.0,0.0,0.0,0.0,0.0,0.0,3.31,0.0,0.0,0.0,0.0,0.0,0.0,0.0,0.0,0.0,0.0,0.0,0.0,0.0,0.0,0.0,0.0,0.0,0.0,0.0,0.0,0.0,0.0,0.0,0.0,0.0,0.0,0.0,0.0,0.0,0.0,0.0,0.0,0.0,0.0,0.0,0.0,0.0,0.0,0.0,3.0256,3.0436,3.1146,3.1914,3.1313,2.9558,0.0,0.0,0.0,0.0,0.0,0.0,0.0,0.0,0.0,0.0,0.0,0.0,0.0,0.0,0.0,0.0,0.0,0.0,0.0,0.0,0.0,0.0,0.0,0.0,0.0,0.0,0.0,0.0,0.0,0.0,0.0,0.0,0.0,0.0,0.0,0.0,0.0,0.0,0.0,0.0,0.0,0.0,0.0,0.0,0.0,0.0,0.0,0.0,0.0,0.0,0.0,0.0,0.0,0.0,0.0,0.0,0.0,0.0,0.0,0.0,0.0,0.0,0.0,0.0,0.0,0.0,0.0,0.0,0.0,0.0,0.0,3.5276,0.0,0.0,0.0,0.0,0.0,0.0,0.0,0.0,0.0,0.0,0.0,0.0,0.0,0.0,0.0,0.0,0.0,0.0,0.0,0.0,0.0,0.0,0.0,0.0,0.0,0.0,0.0,0.0,0.0,0.0,0.0,0.0,0.0,0.0,0.0,0.0,0.0,0.0,3.1208,3.2191,3.4315,3.5264,3.3954,3.0815,3.1304,0.0,0.0,0.0,0.0,0.0,0.0,0.0,0.0,0.0,0.0,0.0,0.0,0.0,0.0,0.0,0.0,0.0,0.0,0.0,0.0,0.0,0.0,0.0,0.0,0.0,0.0,0.0,0.0,0.0,0.0,0.0,0.0,0.0,0.0,0.0,0.0,0.0,0.0,0.0,0.0,0.0,0.0,0.0,0.0,0.0,0.0,0.0,0.0,0.0,0.0,0.0,0.0,0.0,0.0,0.0,0.0,0.0,0.0,0.0,0.0,0.0,0.0,0.0,4.4341,4.4775,4.5567,4.5567,4.5495,4.5169,4.1913,3.8871,3.6395,0.0,0.0,0.0,0.0,0.0,0.0,0.0,0.0,0.0,0.0,0.0,0.0,0.0,0.0,0.0,0.0,0.0,0.0,0.0,0.0,0.0,0.0,0.0,0.0,0.0,0.0,0.0,0.0,0.0,0.0,0.0,0.0,0.0,0.0,3.2094,3.2125,3.223,3.4117,3.5907,3.7532,3.9017,3.9202,3.8118,3.4465,3.3707,3.5027,0.0,0.0,0.0,0.0,0.0,0.0,0.0,0.0,0.0,0.0,0.0,0.0,0.0,0.0,0.0,0.0,0.0,0.0,0.0,0.0,0.0,0.0,0.0,0.0,0.0,0.0,0.0,0.0,0.0,0.0,0.0,0.0,0.0,0.0,0.0,0.0,0.0,0.0,0.0,0.0,0.0,3.2455,3.2632,0.0,0.0,0.0,0.0,0.0,0.0,0.0,0.0,0.0,0.0,0.0,0.0,0.0,0.0,4.6571,4.7502,4.8708,5.0209,5.0209,5.0602,5.1399,5.1399,5.1001,5.0312,4.9811,0.0,4.2774,4.1678,0.0,0.0,0.0,0.0,0.0,0.0,0.0,0.0,0.0,0.0,0.0,0.0,0.0,0.0,0.0,0.0,0.0,0.0,0.0,0.0,0.0,0.0,0.0,0.0,0.0,0.0,0.0,0.0,0.0,0.0,0.0,0.0,3.2406,3.2406,3.3038,3.4328,3.8369,4.055,4.0954,4.2577,4.3131,4.2737,3.9963,3.7846,3.6287,3.4294,0.0,0.0,0.0,0.0,0.0,0.0,0.0,0.0,0.0,0.0,0.0,0.0,0.0,0.0,0.0,0.0,0.0,0.0,0.0,0.0,0.0,0.0,0.0,0.0,0.0,0.0,0.0,0.0,0.0,0.0,0.0,0.0,0.0,0.0,0.0,0.0,0.0,0.0,0.0,3.5204,3.5574,3.5574,3.691,3.7807,0.0,0.0,0.0,0.0,0.0,0.0,0.0,0.0,0.0,4.5004,4.6618,4.8217,4.9691,5.0953,5.2408,5.3935,5.3935,5.4587,5.5812,5.5812,5.5631,5.5311,5.5776,5.4001,5.0457,4.6173,4.414,4.3565,0.0,0.0,0.0,0.0,0.0,4.3203,0.0,0.0,0.0,0.0,0.0,0.0,0.0,0.0,0.0,0.0,0.0,0.0,0.0,0.0,0.0,3.4558,0.0,0.0,0.0,0.0,0.0,0.0,0.0,3.2372,3.2577,3.3634,3.5275,3.7587,4.2497,4.4895,4.4915,4.639,4.6934,4.6667,4.539,4.2509,3.848,3.6637,3.5208,3.4063,0.0,0.0,0.0,0.0,0.0,0.0,0.0,0.0,0.0,0.0,0.0,0.0,0.0,0.0,0.0,0.0,0.0,0.0,0.0,0.0,0.0,0.0,0.0,0.0,0.0,0.0,0.0,0.0,0.0,0.0,0.0,0.0,0.0,0.0,0.0,0.0,0.0,3.7051,3.8041,3.7635,3.9197,4.0066,0.0,0.0,0.0,0.0,0.0,0.0,4.372,4.5345,4.7151,4.9173,5.0783,5.2274,5.3717,5.5118,5.65,5.7853,5.7853,5.8571,5.9941,5.9941,5.9832,5.9651,6.0267,5.9289,5.6754,5.0814,4.7735,4.669,4.506,4.4558,4.478,4.5164,4.5961,4.6902,0.0,0.0,0.0,0.0,0.0,0.0,0.0,0.0,0.0,0.0,0.0,0.0,0.0,0.0,3.7006,3.7264,3.7479,3.6945,0.0,0.0,0.0,0.0,3.1994,3.2285,3.3053,3.6931,4.0119,4.2436,4.592,4.8349,4.9761,5.08,5.1062,5.0564,4.9806,4.7154,4.2995,3.8778,3.6955,3.6657,3.3824,0.0,0.0,0.0,0.0,0.0,0.0,0.0,0.0,0.0,0.0,0.0,0.0,0.0,0.0,0.0,0.0,0.0,0.0,0.0,0.0,0.0,0.0,0.0,0.0,0.0,0.0,0.0,0.0,0.0,0.0,0.0,0.0,0.0,0.0,0.0,0.0,0.0,0.0,3.6101,3.9953,0.0,0.0,0.0,0.0,4.2788,4.4843,4.6173,4.6318,4.7833,5.0151,5.3313,5.4913,5.7188,6.029,6.1159,6.1998,6.2852,6.2852,6.328,6.4113,6.4113,6.3678,6.2954,6.2997,6.2078,6.0181,5.5335,5.2408,5.0856,4.9215,4.9075,4.9666,4.8925,4.9649,5.0892,0.0,0.0,0.0,0.0,0.0,0.0,0.0,0.0,0.0,0.0,0.0,0.0,0.0,3.8995,4.0539,4.1343,4.1959,4.0948,3.7712,0.0,0.0,0.0,3.2966,3.3294,3.5509,3.9156,4.2252,4.4808,4.8938,5.1315,5.2071,5.3374,5.3446,5.2506,5.224,5.0548,4.7521,4.2653,3.9779,3.8208,3.4795,3.3822,0.0,0.0,0.0,0.0,0.0,0.0,0.0,0.0,0.0,0.0,0.0,0.0,0.0,0.0,0.0,0.0,0.0,0.0,0.0,0.0,0.0,0.0,0.0,0.0,0.0,0.0,0.0,0.0,0.0,0.0,0.0,0.0,0.0,0.0,0.0,0.0,0.0,4.4068,4.6183,0.0,4.6369,4.5893,4.6183,4.742,4.8791,5.0457,5.2522,5.4647,5.6784,5.8986,6.0593,6.2229,6.3882,6.4678,6.5475,6.6279,6.5772,6.5953,6.6677,6.5627,6.5011,6.4729,6.4185,6.3352,6.2223,6.0527,5.7955,5.4949,5.3379,5.2945,5.3204,5.3385,5.3826,5.4369,0.0,0.0,0.0,0.0,0.0,0.0,0.0,0.0,0.0,0.0,0.0,3.5879,3.8594,4.1536,4.3749,4.4812,4.4787,4.3254,3.9825,0.0,0.0,0.0,3.444,3.554,3.8357,4.2398,4.5816,4.8522,5.2155,5.4169,5.4598,5.5393,5.5177,5.4144,5.4144,5.2952,5.0717,4.704,4.3628,4.0455,3.7313,3.6744,3.746,0.0,0.0,0.0,0.0,0.0,0.0,0.0,0.0,0.0,0.0,0.0,0.0,0.0,0.0,0.0,0.0,0.0,0.0,0.0,0.0,0.0,0.0,0.0,0.0,0.0,0.0,0.0,0.0,0.0,0.0,0.0,0.0,0.0,0.0,0.0,4.7016,4.9432,5.1363,5.2274,5.1767,5.0741,5.0778,5.2383,5.35,5.513,5.7478,5.9651,6.1564,6.315,6.4504,6.5743,6.6793,6.7337,6.7873,6.8416,6.8126,6.8162,6.838,6.759,6.7083,6.6757,6.5953,6.5156,6.4403,6.4113,6.2266,5.9434,5.7617,5.6711,5.6566,5.7333,5.7629,5.7695,0.0,0.0,0.0,0.0,0.0,0.0,0.0,0.0,0.0,0.0,3.324,3.6398,3.9468,4.3531,4.6489,4.7548,4.5636,4.3544,4.1595,3.7361,0.0,3.3933,3.6378,3.8999,4.1552,4.671,5.0837,5.3784,5.5618,5.6841,5.7562,5.7082,5.6415,5.5691,5.5724,5.4551,5.2491,5.1804,4.8605,4.3771,4.1449,4.0885,4.1129,0.0,0.0,0.0,0.0,0.0,0.0,0.0,0.0,0.0,0.0,0.0,0.0,0.0,0.0,0.0,0.0,0.0,0.0,0.0,0.0,0.0,0.0,0.0,0.0,0.0,0.0,0.0,0.0,0.0,0.0,0.0,0.0,0.0,4.3158,4.7311,5.0644,5.1544,5.5094,5.6862,5.5371,5.6573,5.7448,5.7442,5.892,6.0188,6.0978,6.2519,6.4113,6.5663,6.6496,6.7663,6.9236,6.9264,6.9272,6.9264,7.0061,7.0025,6.9308,7.0061,6.9989,6.9228,6.8416,6.7612,6.6822,6.6025,6.5192,6.4185,6.1854,6.0435,5.9862,6.0652,6.0942,6.0942,0.0,0.0,0.0,0.0,0.0,0.0,0.0,0.0,0.0,0.0,3.5675,3.9191,4.2125,4.6643,4.9676,5.0192,4.7746,4.5264,4.3157,0.0,0.0,3.6174,3.9665,4.3034,4.6132,4.9425,5.268,5.5875,5.7444,5.8574,5.9329,5.9699,5.9221,5.8038,5.8558,5.7574,5.5539,5.5861,5.4593,5.1751,4.5302,4.252,4.1884,0.0,0.0,0.0,0.0,0.0,0.0,0.0,0.0,0.0,0.0,0.0,0.0,0.0,0.0,0.0,0.0,0.0,0.0,0.0,0.0,0.0,0.0,0.0,0.0,0.0,0.0,0.0,0.0,0.0,0.0,0.0,0.0,4.8448,4.9691,5.2957,5.6398,5.9556,6.1903,6.3128,6.2693,6.2512,6.2664,6.3237,6.4251,6.5185,6.5982,6.6975,6.7743,6.8214,6.9011,6.9626,7.0061,7.0597,7.0879,7.0879,7.1096,7.106,7.0842,7.0524,7.0561,7.077,6.9438,6.8757,6.854,6.8286,6.7047,6.5163,6.3889,6.3273,6.3164,6.3997,6.4287,6.4106,0.0,0.0,0.0,0.0,0.0,0.0,0.0,0.0,0.0,0.0,3.6673,4.0745,4.3043,4.7611,5.0492,5.0387,4.7678,4.4928,4.2428,0.0,3.74,3.8434,4.2758,4.648,4.9309,5.2629,5.5713,5.8535,5.9705,6.0666,6.1394,6.1815,6.1394,6.0301,6.0732,5.987,5.8114,5.8535,5.8038,5.6561,5.157,4.8746,4.7123,4.3289,4.2229,4.2494,4.0382,4.0327,4.0963,3.918,0.0,0.0,0.0,0.0,0.0,0.0,0.0,0.0,0.0,0.0,0.0,0.0,0.0,0.0,0.0,0.0,0.0,0.0,0.0,0.0,0.0,0.0,0.0,0.0,5.0676,5.4207,5.7972,5.8927,6.0593,6.4258,6.5844,6.675,6.7083,6.6388,6.6243,6.7047,6.7221,6.7655,6.8452,6.9264,6.9699,6.9699,7.046,7.085,7.085,7.1277,7.1487,7.1487,7.1849,7.1812,7.1487,7.143,7.1422,0.0,7.0561,7.0162,7.0162,7.0162,6.8967,0.0,0.0,0.0,0.0,0.0,6.5301,6.5417,0.0,0.0,0.0,0.0,0.0,0.0,0.0,0.0,0.0,0.0,0.0,4.1198,4.2618,4.7057,4.9682,4.9019,4.6286,4.3404,0.0,0.0,3.948,4.129,4.6113,4.9798,5.2102,5.6193,5.9373,6.1572,6.2223,6.2929,6.3658,6.3758,6.336,6.2565,6.273,6.1991,6.0612,6.0688,6.0324,5.9562,5.8744,5.6912,5.4111,4.9326,4.8233,4.8821,4.5888,4.3805,4.2423,4.1915,0.0,0.0,0.0,0.0,0.0,0.0,0.0,0.0,0.0,0.0,0.0,0.0,0.0,0.0,0.0,0.0,0.0,0.0,0.0,0.0,0.0,0.0,0.0,0.0,5.5916,5.9869,6.6227,6.4867,6.4237,6.7003,6.8046,6.8778,6.9409,6.8887,6.8778,6.9409,6.8814,6.8706,6.9409,0.0,0.0,0.0,0.0,7.1487,7.1487,7.1487,7.1487,7.1531,7.2211,7.2175,7.1523,7.2247,7.2283,7.1776,7.1668,7.1704,7.1776,7.1776,7.0842,6.93,6.7583,6.6134,6.4946,6.4837,6.5265,0.0,0.0,0.0,0.0,0.0,0.0,0.0,0.0,0.0,0.0,3.1694,3.6406,4.0041,4.1191,4.5566,4.8365,4.8233,4.5501,4.3083,0.0,4.1494,4.3381,4.7239,5.1172,5.4551,5.7385,6.0013,6.2422,6.4586,6.4719,6.5149,6.5878,6.6507,6.6077,6.4818,6.601,6.5745,6.4388,6.4973,6.4818,6.4023,6.2753,5.9506,5.5104,5.2382,5.0783,4.9615,4.665,4.7117,4.8517,4.4553,4.4673,4.6004,4.3003,4.0845,0.0,0.0,0.0,0.0,0.0,0.0,0.0,0.0,0.0,0.0,0.0,0.0,0.0,0.0,0.0,0.0,0.0,0.0,0.0,5.4802,5.9669,6.4383,6.8637,7.004,7.0617,7.0581,7.1305,7.1595,7.1096,7.1487,7.1595,7.1096,7.0915,7.0879,7.106,7.1205,0.0,7.1277,7.1422,7.1487,7.1487,7.1487,7.1487,7.1487,0.0,0.0,7.1531,7.1668,7.2356,7.3406,7.2754,7.2826,7.3434,7.3434,7.2501,7.0842,6.8626,6.7981,6.8177,6.7547,6.7394,6.7322,0.0,0.0,0.0,0.0,0.0,0.0,0.0,0.0,0.0,0.0,3.5112,3.8539,3.9441,4.2968,4.4821,4.3735,4.1965,0.0,4.2414,4.4573,4.7753,5.2157,5.5833,5.8823,6.1063,6.325,6.4895,6.5933,6.633,6.6695,6.7059,6.7423,6.7224,6.6529,6.7258,6.7191,6.6529,6.6893,6.6827,6.6397,6.5326,6.3361,6.0668,5.7011,5.5199,5.4229,5.1636,5.1139,5.1245,4.8208,4.7968,4.8367,4.5195,4.3948,4.3235,0.0,0.0,0.0,0.0,0.0,0.0,0.0,0.0,0.0,0.0,0.0,0.0,0.0,0.0,4.6304,0.0,0.0,5.5396,6.08,6.4298,6.7742,7.1857,7.293,7.3144,7.2754,7.308,7.3152,7.2754,7.2718,7.2537,7.2138,7.1748,7.1675,7.2066,7.2102,7.2102,7.2102,7.2501,7.2319,7.1531,7.1885,7.1885,7.1487,7.1487,7.1487,7.1487,7.1487,7.1921,7.2718,7.3116,7.3543,7.3868,7.347,7.308,7.2464,7.0118,6.8959,6.8605,6.8605,6.809,6.7358,0.0,0.0,0.0,0.0,0.0,0.0,0.0,0.0,0.0,0.0,3.3386,3.6539,3.7261,3.9672,4.054,0.0,0.0,4.0361,4.4003,4.7694,5.1801,5.6462,5.9916,6.2411,6.3879,6.5745,6.6761,6.6938,6.7523,6.7821,6.7821,6.7953,6.7953,6.7821,6.7953,6.8019,6.8019,6.8019,6.8019,6.7953,6.7236,6.6938,6.6441,6.1881,5.9893,5.9198,5.6703,5.4328,5.2246,5.1228,5.0334,4.9259,4.7098,4.7168,4.7334,4.3419,4.2537,0.0,0.0,0.0,0.0,0.0,0.0,0.0,0.0,4.326,4.4723,4.5958,4.8269,5.1138,5.4642,5.6918,6.0289,6.6443,6.8387,7.0463,7.4455,7.4566,7.4229,7.415,7.4013,7.3905,7.3905,7.3325,7.2935,7.2935,7.2319,7.2247,7.2899,7.2782,7.2754,7.2935,7.3261,7.2971,7.1994,7.2283,7.2283,7.1957,7.1631,7.1567,7.174,7.174,7.1812,7.2066,7.3659,7.4384,7.4311,7.3515,7.347,7.3696,7.1639,6.9865,6.8561,6.9192,6.8423,6.7141,0.0,0.0,0.0,0.0,0.0,0.0,0.0,0.0,0.0,0.0,0.0,0.0,0.0,0.0,0.0,0.0,3.9215,4.2594,4.6278,4.9964,5.4569,6.0247,6.2753,6.4708,6.611,6.7026,6.7799,6.8452,6.8551,6.8584,6.8584,6.9235,6.9202,6.8617,6.9268,6.9533,6.9533,6.9533,6.9533,6.95,6.875,6.8452,6.8187,6.5646,6.3482,6.1382,5.7849,5.4768,5.2268,5.1525,5.0915,5.0461,5.0366,5.0439,4.9775,4.6122,4.3965,4.2295,3.9943,3.9382,4.0054,4.2728,4.3436,4.4243,0.0,4.8878,5.0037,5.0213,5.3162,5.6042,5.7231,6.1168,6.4955,6.7224,7.0235,7.2831,7.4413,7.5148,7.5368,7.503,7.4339,7.3905,7.3905,7.3832,7.3768,7.3768,7.3687,7.3651,7.376,7.308,7.3044,7.3724,7.2464,7.2356,7.3615,7.2283,7.2319,7.3615,7.2175,7.1885,7.2573,7.2573,7.2971,7.3724,7.5334,7.603,7.5958,7.518,7.4448,7.3796,7.2826,7.1494,7.0134,7.0242,6.9257,6.7865,0.0,0.0,0.0,0.0,0.0,0.0,0.0,0.0,0.0,0.0,0.0,0.0,0.0,0.0,0.0,3.4027,3.7427,4.1633,4.6576,5.1919,5.7518,6.3361,6.5724,6.7391,6.8407,6.8726,6.9036,6.9346,6.9346,6.9346,6.9346,6.9678,6.9644,6.9346,6.9678,6.981,6.981,6.981,6.981,6.9777,6.9479,6.9081,6.8452,6.6242,6.3537,6.05,5.7243,5.4205,0.0,5.0184,4.9939,5.0247,5.0597,5.0569,4.9854,4.6977,4.5179,4.374,4.1839,4.1985,4.3073,4.4822,4.6625,4.8562,5.0774,5.2811,5.4497,5.5437,5.793,6.0501,6.2186,6.4932,6.7764,0.0,7.2255,7.3975,7.54,7.5432,7.5113,7.4468,7.3687,7.3398,7.3832,7.3905,7.3724,7.3225,7.3651,7.3905,7.3905,7.4013,7.405,7.3905,7.4175,7.3957,7.3225,7.3008,7.3225,7.3868,7.2754,7.2609,7.3406,7.3406,7.3832,7.4629,7.5325,7.5877,7.6247,7.5434,7.4629,7.3832,7.3008,7.203,7.1031,7.1031,7.0053,6.8786,0.0,0.0,0.0,0.0,0.0,0.0,0.0,0.0,0.0,0.0,0.0,0.0,0.0,0.0,3.1587,3.2332,3.5572,4.0077,4.5914,5.2084,5.8214,6.4266,6.6817,6.8539,6.9479,6.9711,6.981,6.981,6.981,6.981,6.981,6.981,6.981,6.981,6.981,6.981,6.981,6.981,6.981,6.981,6.981,6.9114,6.7844,6.5425,6.2003,5.8161,5.5833,5.2738,4.9567,4.8264,4.8094,4.8548,4.9332,4.9705,4.9368,4.7168,4.5546,4.4302,4.3635,4.4553,4.6133,4.7736,5.0487,5.3197,5.475,5.6884,5.8913,6.0274,6.2073,6.4012,6.6154,6.762,6.9438,7.222,7.3306,7.4387,7.5929,7.5247,7.426,7.3353,7.2356,7.1965,7.2545,7.3189,7.3506,7.3362,7.3905,7.4339,7.4565,7.4882,7.4919,7.4565,7.5261,7.5008,7.3704,7.384,7.413,7.4565,7.3515,7.3442,7.4231,7.4231,7.4665,7.5434,7.5434,7.5768,7.6211,7.518,7.4448,7.3796,7.2754,7.1885,7.1205,7.1414,7.0669,6.959,0.0,0.0,0.0,0.0,0.0,0.0,0.0,0.0,0.0,0.0,0.0,0.0,0.0,0.0,3.082,3.1581,3.4341,3.8526,4.4364,4.9641,5.544,6.2001,6.5028,6.7236,6.8684,6.9446,6.981,6.981,6.981,6.981,6.981,6.981,6.981,6.981,6.981,6.981,6.981,6.981,6.981,6.981,6.981,6.8506,6.6231,6.3393,5.9108,5.4574,5.3746,5.0253,4.5963,4.5904,4.5351,4.4967,4.6733,4.8153,4.8742,4.6796,4.4629,4.3178,4.4653,4.6175,4.8246,5.2045,5.5304,5.8,5.9545,6.1695,6.3583,6.4373,6.5198,6.626,6.7857,6.8814,7.0024,7.2009,7.294,7.3943,7.5503,7.4359,7.2895,7.17,7.0235,6.9308,0.0,7.1386,7.3362,7.4919,7.5063,7.5389,7.6175,7.5506,7.5434,7.6211,7.4746,7.4673,7.6175,7.4673,7.4673,7.6211,7.4637,7.4267,7.5063,7.5063,7.5506,7.6247,7.6247,7.6284,7.6175,7.4601,7.3905,7.3724,7.2175,7.106,7.0532,7.1241,7.1031,7.0242,0.0,0.0,0.0,0.0,0.0,0.0,0.0,0.0,0.0,0.0,0.0,0.0,0.0,0.0,0.0,0.0,3.2663,3.6087,4.1489,4.7114,5.2506,5.7598,6.2013,6.4608,6.5116,6.6751,6.7865,6.8329,6.8837,6.9081,6.9081,6.9081,6.9081,6.9069,6.8693,6.9025,6.9786,6.9406,6.919,6.8949,6.7479,6.5889,6.3912,5.9496,5.5246,5.123,0.0,4.517,4.2777,4.2125,4.1977,4.2517,4.4722,4.5314,4.5031,4.4171,4.4465,4.5518,4.7579,5.0774,5.4321,5.7727,6.0887,6.3591,6.5119,6.6505,6.7208,6.6382,6.5645,6.4943,6.4425,6.558,6.7249,6.9265,7.149,7.3538,7.5076,7.4596,7.3066,7.0304,7.0416,0.0,0.0,0.0,0.0,7.2645,7.4194,7.4991,7.471,7.547,7.576,7.5506,7.5515,7.5515,7.5506,7.4955,7.5253,7.6284,7.574,7.5623,7.5913,7.5913,7.603,7.6284,7.6284,7.6284,7.6211,7.5144,7.4086,7.3008,7.1921,7.0705,6.9554,6.9285,6.9684,7.0351,0.0,0.0,0.0,0.0,0.0,0.0,0.0,0.0,0.0,0.0,0.0,0.0,0.0,0.0,0.0,0.0,0.0,3.406,3.8175,4.3172,4.7934,5.2298,5.6338,5.8763,5.9383,6.0534,6.1659,6.2758,6.3397,6.4067,6.4803,6.5044,6.5364,6.5774,6.5685,6.6195,6.707,6.6715,6.6024,6.5039,6.3372,6.1218,5.8555,5.4451,5.0634,0.0,4.3043,4.0732,3.9481,3.9506,3.9796,4.0524,4.2605,4.3333,4.3518,4.3898,4.584,4.8584,5.1758,5.5585,5.9412,6.2564,6.5443,6.7734,6.8463,6.8814,6.8428,6.6558,6.4522,6.2732,6.1765,6.189,6.3047,6.586,6.7974,7.0322,7.3227,7.2956,7.1831,7.0196,7.0154,6.9567,0.0,0.0,0.0,7.1414,7.347,7.4556,7.4339,7.5587,7.6058,7.5542,7.6022,7.6058,7.5542,7.5542,7.5804,7.6284,7.6022,7.6022,7.6284,7.5985,7.6022,7.6284,7.5985,7.5696,7.537,7.4275,7.3044,7.1784,7.0995,6.9909,6.8749,6.8525,6.8887,6.9546,0.0,0.0,0.0,0.0,0.0,0.0,0.0,0.0,0.0,0.0,0.0,0.0,0.0,0.0,0.0,0.0,0.0,0.0,3.4584,3.8109,4.2019,4.6311,4.8455,5.0326,5.2,5.1572,5.216,5.3766,5.4241,5.5495,5.743,5.8104,5.9,6.0081,6.0802,6.1388,6.1792,6.1771,6.0545,5.8535,5.7717,5.4877,5.0933,4.8597,4.5542,4.2116,3.9275,3.7321,3.6369,3.8157,3.8897,3.9334,4.075,4.255,4.4448,4.608,4.8795,5.2249,5.6912,6.0423,6.3556,6.6558,6.898,7.0429,6.971,6.8779,6.74,6.5005,6.1994,5.9764,5.9658,5.7918,5.7884,6.2131,6.3081,6.5117,7.0402,6.9933,6.9681,0.0,0.0,0.0,0.0,0.0,0.0,7.145,0.0,7.4267,7.5063,7.5877,7.6284,7.6284,7.6284,7.6284,7.6284,7.6284,7.6284,7.6284,7.5542,7.5542,7.6211,7.5506,7.5542,7.6211,7.547,7.4738,7.3913,7.2283,7.1176,7.0423,6.9562,6.8713,6.8082,6.8822,6.8605,6.801,0.0,0.0,0.0,0.0,0.0,0.0,0.0,0.0,0.0,0.0,0.0,0.0,0.0,0.0,0.0,0.0,0.0,0.0,3.2249,3.4843,3.7777,4.1098,4.4311,4.6367,4.7161,4.8647,4.9796,5.0563,5.1251,5.1825,5.237,5.3049,5.3534,5.3817,5.4349,5.5175,5.6148,5.5942,5.5454,5.4617,5.2265,5.0642,4.9226,4.5368,4.3315,4.2189,3.9858,3.8434,3.7656,3.7895,4.0232,4.3169,4.3853,4.5556,4.7882,5.0592,5.3612,5.7052,6.1678,6.5645,6.8919,7.085,7.1763,7.2009,7.1271,6.8708,6.5663,6.2775,5.8765,5.5262,5.3548,5.4359,5.6652,6.0955,6.4543,6.8296,7.2572,7.3602,7.3316,7.17,7.203,7.1776,7.0242,7.114,0.0,0.0,7.3333,7.4267,7.5063,7.5877,7.6284,7.6284,7.6284,7.6284,7.6284,7.6284,7.6284,7.6284,7.6102,7.5804,7.5426,7.5804,7.576,7.5434,7.5804,7.5877,7.5551,7.3949,7.2826,7.1929,6.9952,6.8713,6.7938,6.7547,6.7655,6.801,0.0,0.0,0.0,0.0,0.0,0.0,0.0,0.0,0.0,0.0,0.0,0.0,0.0,0.0,0.0,0.0,0.0,0.0,0.0,3.1929,3.3975,3.6176,3.8183,3.9486,4.0002,4.108,4.2059,4.2949,4.3864,4.4767,4.5693,4.6377,4.698,4.7428,4.8031,4.8804,4.9623,4.9597,4.8949,0.0,0.0,4.4879,4.4051,4.156,4.0593,4.0467,3.9255,3.898,3.9371,4.0387,4.2996,4.6053,4.7643,4.9954,5.2657,5.5831,5.9159,6.2696,6.6698,6.9858,7.2325,7.3528,7.3308,7.2149,6.9727,6.6681,6.2994,5.8211,5.4306,5.114,4.9181,5.0406,5.3107,5.7394,6.1725,6.6247,7.1162,7.2911,7.3541,7.3148,7.3579,7.337,7.2074,7.2718,7.3362,0.0,7.4158,7.4629,7.51,7.5877,7.6284,7.6284,7.6284,7.6284,7.6284,7.6284,7.6284,7.6284,7.5587,7.518,7.51,7.518,7.518,7.5136,0.0,7.5587,7.5152,7.3877,7.2718,7.1531,6.9844,6.8713,6.7901,6.7112,6.7105,6.7503,0.0,0.0,0.0,0.0,0.0,0.0,0.0,0.0,0.0,0.0,0.0,0.0,0.0,0.0,0.0,0.0,0.0,0.0,0.0,0.0,3.0796,3.2062,3.2144,3.241,3.2876,3.2724,3.3138,3.4242,3.5334,3.6739,3.8428,3.9242,4.0118,4.1076,4.1933,4.2525,4.2909,4.3171,4.2201,4.0449,4.0001,3.9096,3.805,0.0,0.0,3.8215,3.8215,3.9188,4.095,4.397,4.6406,4.8703,5.1814,5.4973,5.8183,6.1406,6.4882,6.8278,7.1332,7.3193,7.4431,7.4968,7.3704,7.1201,6.6751,6.3521,5.9623,5.3043,4.9736,4.7637,4.6327,4.707,4.9424,5.4025,5.8,6.2663,6.8934,7.0875,7.2534,7.4966,7.4629,7.4239,7.4239,7.4311,7.4665,7.5353,7.5534,7.5498,7.5281,7.6022,7.6428,7.6284,7.6284,7.6284,7.6284,7.6284,7.6284,7.6284,7.4782,7.4375,7.4919,7.4231,7.4231,7.4774,0.0,0.0,7.4013,7.3297,7.2219,7.0923,6.9916,6.9003,6.8227,6.7438,6.704,6.7105,0.0,0.0,0.0,0.0,0.0,0.0,0.0,0.0,0.0,0.0,2.4311,2.4675,0.0,0.0,0.0,0.0,0.0,0.0,0.0,0.0,0.0,3.0516,3.1166,3.1579,3.1839,3.2399,3.2385,3.1817,3.2614,3.2873,3.2664,3.3966,3.467,3.4911,3.6422,3.7272,3.757,3.7882,3.7926,3.7727,3.705,3.697,3.7222,0.0,0.0,0.0,3.8215,3.9162,4.1075,4.5464,4.9271,5.2713,5.5823,5.9369,6.3134,6.6901,6.9376,7.1402,7.3834,7.5168,7.5775,7.5214,7.251,6.9104,6.568,6.066,5.543,5.102,4.7755,4.5667,4.5552,4.7079,5.0581,5.7301,6.0985,6.5348,7.2139,7.3864,7.4833,7.5949,7.5958,7.5885,7.5885,7.6501,0.0,0.0,0.0,7.7507,7.6167,7.6855,7.7008,7.632,7.6284,7.6284,7.6284,7.6284,7.6284,7.6284,7.5325,7.4629,7.4086,7.3977,7.3615,7.3189,0.0,0.0,7.4882,7.4738,7.452,7.4058,7.1929,7.0625,6.988,6.9083,6.8351,6.801,0.0,0.0,0.0,0.0,0.0,0.0,0.0,2.3579,2.4245,2.5217,2.5698,2.5697,2.5156,2.5102,0.0,0.0,0.0,0.0,0.0,0.0,0.0,0.0,0.0,0.0,3.0313,3.1106,3.1276,3.0692,0.0,3.1539,3.1204,3.1874,3.2228,3.2272,3.3597,3.4252,3.4433,3.5224,3.5627,3.5718,3.5524,3.5876,0.0,0.0,0.0,0.0,3.844,3.9364,4.1078,4.5143,4.9506,5.4082,5.9202,6.3486,6.7137,6.9797,7.2526,7.4903,7.6011,7.6889,7.7285,7.6503,7.2826,6.8165,6.3407,5.8176,5.2839,4.7726,4.5185,4.3962,4.4184,4.6484,4.9926,5.4763,5.8216,6.2731,6.9818,7.1153,7.2609,7.5921,7.6284,7.6284,7.6284,7.7044,7.7334,7.6899,0.0,7.8629,7.7008,7.6899,7.6718,7.632,7.6284,7.6284,7.6284,7.6284,7.6284,7.6284,7.547,7.4665,7.3905,7.3905,7.3687,7.3398,7.4593,0.0,7.5724,7.5724,7.547,7.4955,7.3362,7.2283,7.1458,7.0278,6.9583,6.9365,0.0,0.0,0.0,0.0,0.0,0.0,0.0,2.4963,2.5759,2.7118,2.7695,2.734,2.5746,2.5574,2.5508,0.0,0.0,0.0,0.0,0.0,0.0,0.0,0.0,0.0,0.0,0.0,0.0,2.9965,3.0654,0.0,0.0,0.0,0.0,0.0,3.2046,3.2533,3.27,3.3777,3.4304,0.0,0.0,3.5247,0.0,0.0,0.0,0.0,0.0,3.9199,4.0766,4.4177,4.8285,5.3064,5.9385,6.4723,6.8937,7.049,7.3789,7.6984,7.729,7.7977,7.8339,7.7195,7.2756,6.7076,6.0993,5.5761,5.0564,4.484,4.3113,4.2752,4.3256,4.5725,4.8767,5.2096,5.5163,5.9592,6.6735,6.8191,7.0408,7.5442,7.6211,7.6428,7.6791,7.7225,0.0,7.6863,0.0,0.0,7.7833,7.6827,7.6284,7.6284,7.6284,7.6284,7.6284,7.6284,7.6284,7.6284,7.547,7.4774,7.4158,7.3977,7.3905,7.3941,7.4738,0.0,0.0,7.6247,7.5913,7.5289,7.4484,7.3543,7.2537,7.1357,7.0677,7.0423,0.0,0.0,0.0,0.0,0.0,0.0,0.0,2.5917,2.7453,2.9333,2.914,2.8375,2.7224,2.7088,2.6813,0.0,0.0,0.0,0.0,0.0,0.0,0.0,0.0,0.0,0.0,0.0,0.0,2.9209,2.9927,0.0,0.0,0.0,0.0,0.0,0.0,3.195,3.2396,3.3163,0.0,0.0,0.0,0.0,0.0,0.0,0.0,0.0,0.0,3.817,3.9896,4.3085,4.5842,4.8668,5.2853,5.9701,6.6514,6.8067,7.1763,7.5625,7.7019,7.7977,7.8058,7.5846,7.0719,6.4793,5.9264,5.3288,4.7771,4.374,4.2428,4.2445,4.3916,4.5176,4.7815,5.3373,5.5726,5.9211,6.5953,6.8786,7.143,7.481,7.5877,7.6863,7.834,7.7869,7.776,7.8448,0.0,0.0,7.8557,7.7117,7.6284,7.6284,7.6284,7.6284,7.6284,7.6284,7.6284,7.6284,7.547,7.5063,7.4955,7.4231,7.3905,7.3941,0.0,0.0,0.0,7.5985,7.6247,7.6094,7.5281,7.405,7.2682,7.2537,7.1603,7.0496,0.0,0.0,0.0,0.0,0.0,0.0,2.5403,2.6306,2.7567,2.9855,3.0284,2.9945,2.8713,2.856,2.7561,0.0,0.0,0.0,0.0,0.0,0.0,0.0,0.0,0.0,0.0,0.0,2.8979,2.9108,2.9404,0.0,0.0,0.0,0.0,0.0,0.0,3.1275,3.1526,3.2536,0.0,0.0,0.0,0.0,0.0,0.0,0.0,0.0,0.0,0.0,3.9035,4.1128,4.3686,4.6133,4.673,5.1512,5.8008,6.3758,6.8708,7.2992,7.5941,7.7661,7.8163,7.6302,7.0824,6.4609,5.965,5.3316,4.7525,4.4161,4.262,4.2445,4.4221,4.5367,4.7323,5.1228,5.1973,5.4315,6.0826,6.2157,6.5048,7.2102,7.3233,7.479,7.8376,0.0,7.7833,0.0,0.0,0.0,7.7941,7.6899,7.6537,7.7008,7.6537,7.6284,7.6284,7.6284,7.6284,7.6284,7.5985,7.5579,7.5091,7.4774,7.4629,7.4629,0.0,0.0,0.0,7.6175,7.6284,7.6211,7.5398,7.4701,7.4013,7.308,7.2319,7.1748,0.0,0.0,0.0,0.0,0.0,2.3473,2.5703,2.6501,2.7627,2.9766,3.0675,3.0615,2.9324,2.8964,2.7656,2.4874,0.0,0.0,0.0,0.0,0.0,0.0,0.0,0.0,0.0,0.0,2.812,2.8804,2.8804,2.8899,0.0,0.0,2.9238,2.9355,0.0,0.0,0.0,0.0,0.0,0.0,0.0,0.0,0.0,0.0,0.0,0.0,0.0,0.0,0.0,0.0,0.0,4.3704,4.2752,4.5214,5.0107,5.8148,6.446,6.9577,7.3273,7.6056,7.7426,7.5449,7.0052,6.3872,5.8765,5.2544,4.6941,4.3938,4.2619,4.2486,4.402,4.5196,4.6683,4.89,4.9466,5.1496,5.6935,5.8021,6.1136,6.885,6.9973,7.2102,7.7136,7.776,7.7869,0.0,0.0,0.0,0.0,7.6754,7.6573,7.7117,7.661,7.6284,7.6284,7.6284,7.6284,7.6284,7.6284,7.5985,7.5462,7.5462,7.5462,7.5462,0.0,0.0,0.0,7.6284,7.6175,7.5877,7.5317,7.481,7.4267,7.3116,7.2537,7.2247,0.0,0.0,0.0,0.0,0.0,0.0,2.5106,2.6549,2.7885,2.9329,3.0038,2.9994,2.8835,2.7876,2.7017,2.6227,0.0,0.0,0.0,0.0,0.0,0.0,0.0,0.0,0.0,0.0,2.7431,2.81,2.81,2.8436,2.912,2.9363,2.961,2.9793,0.0,0.0,0.0,0.0,0.0,0.0,0.0,0.0,0.0,0.0,0.0,0.0,0.0,0.0,0.0,0.0,0.0,0.0,0.0,4.2195,4.4267,5.1273,5.8737,6.547,6.8612,7.2826,7.559,7.2526,6.7655,6.2011,5.5788,5.0122,4.5403,4.2513,4.2121,4.2537,4.3265,4.4464,4.5735,4.7101,4.9548,5.2383,5.5565,5.8739,6.1998,6.5265,6.6351,6.9024,7.4593,7.7281,7.8014,0.0,0.0,0.0,0.0,7.6754,7.6284,7.632,7.6284,7.6284,7.6284,7.6284,7.6284,7.6284,7.6284,7.6284,7.6284,7.6284,7.6284,0.0,0.0,0.0,0.0,7.6284,7.5841,7.51,7.51,7.4122,7.2718,7.2718,7.2211,7.1531,0.0,0.0,0.0,0.0,0.0,0.0,0.0,2.5442,2.6294,2.7072,2.8247,2.8562,2.7317,2.7429,2.6992,2.5583,0.0,0.0,0.0,0.0,0.0,0.0,0.0,0.0,0.0,0.0,2.6925,2.81,2.8557,2.8996,2.9395,2.9786,2.9895,2.9793,2.9902,0.0,0.0,0.0,0.0,0.0,0.0,0.0,0.0,0.0,0.0,0.0,0.0,0.0,0.0,0.0,0.0,0.0,0.0,0.0,0.0,4.5894,5.1961,5.8519,6.2705,6.5312,6.6435,6.4952,6.1292,5.702,5.307,4.9216,4.5806,4.3426,4.2706,4.2756,4.354,4.4107,4.5511,4.8699,4.9942,5.1767,5.5492,5.8311,6.2005,6.7417,7.3088,7.6629,0.0,0.0,0.0,0.0,0.0,0.0,0.0,7.6428,7.6537,7.7117,7.6573,7.6284,7.6284,7.6284,7.6022,7.5506,7.603,7.6022,7.5506,7.6058,0.0,0.0,0.0,0.0,0.0,7.547,7.4999,7.4231,7.3687,7.3144,7.2645,7.2066,7.1704,7.1487,0.0,0.0,0.0,0.0,0.0,0.0,0.0,2.4359,2.4989,2.5383,2.6691,2.7376,2.6854,2.7084,2.6856,2.5776,0.0,0.0,0.0,0.0,0.0,0.0,0.0,0.0,0.0,2.5911,2.643,2.81,2.8531,2.9212,3.0168,3.0656,3.0634,3.0209,3.0397,0.0,0.0,0.0,0.0,0.0,0.0,0.0,3.4557,0.0,0.0,0.0,0.0,0.0,0.0,0.0,0.0,0.0,0.0,0.0,0.0,0.0,4.6765,5.154,5.6806,5.9834,6.1273,6.0247,5.7298,5.3886,5.0991,4.7963,4.5242,4.3466,4.2823,4.2773,4.3361,4.3814,4.5024,4.7818,4.9045,5.082,5.4188,5.7514,6.1897,6.8025,7.4718,0.0,0.0,7.8874,0.0,0.0,0.0,0.0,0.0,7.6284,7.6392,7.6593,7.6384,7.6284,7.6284,7.6284,7.6058,7.5542,7.6058,7.603,7.5579,7.6066,0.0,0.0,0.0,0.0,0.0,7.4774,7.4158,7.3406,7.2899,7.2501,7.2175,7.1668,7.1487,7.1487,0.0,0.0,0.0,0.0,0.0,0.0,0.0,0.0,2.4037,2.418,2.5401,2.6418,2.6922,2.6696,2.6455,2.6333,0.0,0.0,0.0,0.0,0.0,0.0,0.0,0.0,0.0,2.4964,2.5966,2.81,2.8217,2.9324,3.1311,3.1887,3.1698,3.0944,3.1397,0.0,0.0,0.0,0.0,0.0,0.0,0.0,0.0,0.0,0.0,0.0,0.0,0.0,0.0,0.0,0.0,0.0,0.0,0.0,0.0,0.0,0.0,0.0,0.0,5.569,5.8702,5.7263,5.4714,5.1854,4.9141,4.6318,0.0,4.2858,4.2629,4.2724,4.3003,4.358,4.4372,4.5454,4.7477,4.9789,5.2371,5.7152,6.2361,6.7684,7.2601,0.0,7.4166,0.0,0.0,0.0,0.0,0.0,0.0,7.6284,7.5913,7.5136,7.5877,7.6284,7.6211,7.6284,7.6284,7.6211,7.6284,7.6284,7.6211,7.6211,0.0,0.0,0.0,0.0,0.0,7.4122,7.3325,7.2609,7.2573,7.2102,7.1487,7.1458,7.1422,7.1422,0.0,0.0,0.0,0.0,0.0,0.0,0.0,0.0,0.0,0.0,2.5221,2.5823,2.4039,2.4777,2.4851,0.0,0.0,0.0,0.0,0.0,0.0,0.0,0.0,0.0,0.0,2.4433,2.5435,2.81,2.9366,3.0787,3.2302,3.3188,3.2713,3.1153,3.1308,0.0,0.0,0.0,0.0,0.0,0.0,0.0,0.0,0.0,0.0,0.0,3.8465,3.948,0.0,0.0,0.0,0.0,0.0,0.0,0.0,0.0,4.2441,0.0,4.4869,0.0,4.8521,4.817,4.7218,4.6083,0.0,4.4277,4.3709,4.298,4.2816,4.3228,4.4507,4.3865,4.4449,4.8325,4.8925,5.0368,5.4587,6.2483,6.8786,7.1305,7.6403,7.8657,7.5985,0.0,0.0,0.0,0.0,0.0,0.0,7.6284,7.5913,7.5136,7.5877,7.5985,7.5389,7.5985,7.5985,7.5389,7.6022,7.5985,7.5398,7.5398,0.0,0.0,0.0,0.0,7.3253,7.308,7.2501,7.1748,7.1168,7.1176,7.1422,7.0887,7.0669,7.0742,0.0,0.0,0.0,0.0,0.0,0.0,0.0,0.0,0.0,0.0,0.0,0.0,0.0,0.0,0.0,0.0,0.0,0.0,0.0,0.0,0.0,0.0,0.0,0.0,2.447,2.4438,2.5822,2.8754,2.9997,3.169,3.3789,3.4143,3.3546,3.2175,3.132,0.0,0.0,0.0,0.0,0.0,3.3795,0.0,0.0,0.0,0.0,0.0,3.7962,3.8995,0.0,3.9924,4.0435,4.1083,0.0,0.0,0.0,0.0,4.1915,4.2266,4.2266,4.3635,4.5115,4.5115,4.47,4.4227,4.3996,4.3586,4.3167,4.2958,4.2892,4.329,4.4517,4.3725,4.4232,4.8315,4.8925,5.1201,5.7834,6.4215,6.9575,7.337,7.7136,7.9209,0.0,0.0,0.0,0.0,0.0,0.0,0.0,7.5949,7.5542,7.51,7.5506,7.5542,7.51,7.5913,7.6094,7.5651,7.6102,7.5877,7.51,7.51,0.0,0.0,0.0,0.0,7.2138,7.2138,7.1494,7.0452,7.0423,7.0416,7.0452,7.0423,7.0387,7.0496,0.0,0.0,0.0,0.0,0.0,0.0,0.0,0.0,0.0,0.0,0.0,0.0,0.0,0.0,0.0,0.0,0.0,0.0,0.0,0.0,0.0,0.0,0.0,2.3106,2.4193,2.4628,2.6406,2.9647,3.0561,3.2422,3.5182,3.5005,3.4328,3.3218,3.133,3.0158,0.0,0.0,0.0,0.0,3.3322,0.0,0.0,0.0,0.0,0.0,0.0,0.0,0.0,3.9527,3.9991,4.0567,4.0937,0.0,0.0,0.0,0.0,0.0,4.171,4.3214,4.4723,4.4589,4.4265,4.4029,4.4226,4.3402,4.2707,4.2858,4.3,4.3363,4.43,4.3901,4.4481,4.773,4.9427,5.3265,6.1557,6.5004,6.8706,7.4086,7.6701,0.0,0.0,0.0,0.0,0.0,0.0,0.0,0.0,7.547,7.5019,7.491,7.5027,7.4991,7.4738,7.5768,7.6247,7.6139,7.5985,7.5587,7.4919,7.4665,7.4122,0.0,0.0,0.0,7.1168,7.1168,7.0452,6.9445,6.988,6.9771,6.9453,7.0025,7.0134,7.0126,0.0,0.0,0.0,0.0,0.0,0.0,0.0,0.0,0.0,0.0,0.0,0.0,0.0,0.0,0.0,0.0,0.0,0.0,0.0,0.0,0.0,0.0,2.1468,2.2564,2.5624,2.4608,2.6121,3.0355,3.1978,3.3575,3.5137,3.6198,3.5325,3.2751,3.1179,3.0428,3.0395,0.0,0.0,0.0,0.0,0.0,0.0,0.0,0.0,0.0,0.0,0.0,0.0,3.8378,3.9315,4.0286,3.9041,0.0,0.0,0.0,0.0,0.0,4.2085,4.2892,4.2997,4.2301,4.2355,4.2608,4.2644,4.2748,4.2854,4.2887,4.3435,4.4372,4.5852,4.6033,4.7011,5.024,5.4218,5.9065,6.5185,0.0,7.1957,7.2963,0.0,0.0,0.0,0.0,0.0,0.0,0.0,0.0,0.0,7.5172,7.4774,7.4122,7.4738,7.4448,7.308,7.5225,7.5949,7.5281,7.4601,7.4194,7.405,7.2682,7.1639,0.0,0.0,7.0315,6.9554,6.9554,6.9808,7.0097,6.885,6.914,7.0134,6.9598,6.8931,6.8372,0.0,0.0,0.0,0.0,0.0,0.0,0.0,0.0,0.0,0.0,0.0,0.0,0.0,0.0,0.0,0.0,0.0,0.0,0.0,0.0,0.0,2.3306,2.2892,2.3587,2.5618,2.6361,2.8602,3.2511,3.4243,3.5867,3.736,3.6354,3.4545,3.2061,3.0991,3.0296,2.9964,3.1118,0.0,0.0,0.0,0.0,0.0,0.0,0.0,0.0,0.0,0.0,0.0,0.0,3.8738,3.9449,3.8898,0.0,0.0,0.0,0.0,0.0,4.1441,4.1806,4.1858,4.2458,4.3102,4.3461,4.3192,4.2996,4.3145,4.401,4.4481,4.5381,4.7404,4.817,4.9914,5.4405,5.8426,6.2338,6.6235,6.9104,7.1422,0.0,0.0,0.0,0.0,0.0,0.0,0.0,0.0,0.0,0.0,0.0,7.4267,7.3905,7.3434,7.2609,7.1466,7.2943,7.3523,7.3144,7.279,7.2392,7.1965,7.1249,7.0488,6.9735,0.0,6.93,6.8605,6.9011,6.8902,6.8423,6.8119,6.8199,6.8452,6.8532,6.8605,6.8605,0.0,0.0,0.0,0.0,0.0,0.0,0.0,0.0,0.0,0.0,0.0,0.0,0.0,0.0,0.0,0.0,0.0,0.0,0.0,0.0,2.325,2.432,2.4749,2.5417,2.6412,2.8393,3.1046,3.4423,3.6136,3.7676,3.8977,3.6379,3.3982,3.1819,3.1085,3.0362,2.9733,3.0853,3.1863,0.0,0.0,0.0,0.0,0.0,0.0,0.0,0.0,0.0,0.0,0.0,0.0,0.0,0.0,0.0,0.0,3.9595,3.9398,3.9472,4.0952,4.1131,4.1242,4.2889,4.3717,4.4219,4.4551,4.4183,4.4263,4.6038,4.6437,4.6975,4.8853,5.0457,5.3101,5.8166,6.1824,6.5019,6.7793,6.9575,7.1538,0.0,0.0,0.0,0.0,0.0,0.0,0.0,0.0,0.0,0.0,0.0,7.3261,7.308,7.1893,7.0887,7.0134,7.048,7.0879,7.1241,7.106,7.0669,7.0097,6.9909,6.9401,6.8648,6.8829,6.8452,6.7756,6.8387,6.8025,6.7105,6.7539,6.7467,6.7141,6.7575,6.8235,6.8786,0.0,0.0,0.0,0.0,0.0,0.0,0.0,0.0,0.0,0.0,0.0,0.0,0.0,0.0,0.0,0.0,0.0,0.0,0.0,0.0,2.4047,2.4225,2.61,2.7885,2.9459,3.0008,3.1877,3.513,3.6875,3.7926,3.8248,3.6665,3.4756,3.2575,3.1857,3.1118,3.0428,3.0522,3.1399,3.2774,0.0,0.0,0.0,0.0,0.0,0.0,0.0,0.0,0.0,0.0,0.0,0.0,0.0,0.0,3.8907,3.9442,3.8704,3.8383,4.1324,4.1614,4.1349,4.2397,4.2708,4.3529,4.6489,4.6684,4.6902,4.9267,4.9744,4.9811,4.9992,5.3071,5.6687,6.0079,6.3954,6.7865,7.174,0.0,0.0,0.0,0.0,0.0,0.0,0.0,0.0,0.0,0.0,0.0,0.0,0.0,0.0,7.0669,7.0532,7.0097,6.9308,6.8597,6.8995,7.046,6.9735,6.9344,6.9264,6.8525,6.772,6.7003,6.7756,6.7612,6.6887,6.6967,6.7322,6.7865,6.7141,6.7322,6.7829,6.7141,6.7394,6.7974,0.0,0.0,0.0,0.0,0.0,0.0,0.0,0.0,0.0,0.0,0.0,0.0,0.0,0.0,0.0,0.0,0.0,0.0,0.0,0.0,2.4053,2.552,2.666,2.8049,2.9697,3.1846,3.4426,3.7509,3.8775,3.9003,3.8149,3.5744,3.3928,3.2647,3.1465,3.1019,3.1217,3.1664,3.2569,3.3784,3.4718,0.0,0.0,0.0,0.0,0.0,0.0,0.0,0.0,0.0,3.7959,3.8267,3.7679,3.79,3.8474,3.8904,3.8456,3.8254,4.0386,4.1123,4.1657,4.3143,4.3919,4.4718,4.6457,4.7827,4.9262,5.1187,5.2739,5.3935,5.4411,5.7369,6.0441,6.2693,6.6431,6.9909,7.2356,0.0,0.0,0.0,0.0,0.0,0.0,0.0,0.0,0.0,0.0,0.0,0.0,0.0,0.0,6.9663,6.9184,6.8525,6.7735,6.7402,6.7329,6.7409,6.7627,6.7445,6.6938,6.6641,6.6062,6.5337,6.5627,6.5881,6.6062,6.6062,6.6533,6.7213,6.6924,6.6996,6.7213,6.6924,6.6996,6.7213,0.0,0.0,0.0,0.0,0.0,0.0,0.0,0.0,0.0,0.0,0.0,0.0,0.0,0.0,0.0,0.0,0.0,0.0,0.0,2.3954,2.4507,2.6272,2.7118,2.8237,2.969,3.2594,3.5329,3.7859,3.9108,3.8964,3.7454,3.5214,3.3635,3.2647,3.1631,3.146,3.2,3.2596,3.3417,3.438,3.5406,3.6223,0.0,0.0,0.0,0.0,0.0,0.0,0.0,0.0,3.7801,3.781,3.7707,3.7754,3.7942,3.8644,3.8317,3.8084,3.9536,4.0425,4.1305,4.2929,4.4512,4.6178,4.7989,4.9878,5.1979,5.4581,5.5993,5.7013,5.7804,5.9753,6.1926,0.0,6.7562,7.0641,0.0,0.0,0.0,0.0,0.0,0.0,0.0,0.0,0.0,0.0,0.0,0.0,0.0,0.0,0.0,0.0,6.7293,6.6598,6.6062,6.6025,6.5772,6.5236,6.5772,6.5736,6.5236,6.5236,6.4903,6.4403,6.4403,6.4729,6.5236,6.5236,6.57,6.646,6.6706,6.6779,6.6779,6.6779,6.6779,6.6779,0.0,0.0,0.0,0.0,0.0,0.0,0.0,0.0,0.0,0.0,0.0,0.0,0.0,0.0,0.0,0.0,0.0,0.0,2.4245,2.4941,2.5554,2.6141,2.7583,2.8823,2.9734,3.2001,3.3973,3.559,3.7332,3.7421,3.597,3.5214,3.4099,3.2713,3.2713,3.2707,3.2735,3.3063,3.3645,3.439,3.5342,3.6136,0.0,0.0,0.0,0.0,0.0,0.0,0.0,0.0,3.7679,3.7099,3.7704,3.7484,3.7276,3.8667,3.8339,3.7775,3.9056,3.9643,4.02,4.1436,4.414,4.7591,5.1616,5.3132,5.5082,5.9855,5.9572,5.8709,5.95,5.9645,0.0,6.3896,6.7127,0.0,0.0,0.0,0.0,0.0,0.0,0.0,0.0,0.0,0.0,0.0,0.0,0.0,0.0,0.0,0.0,0.0,6.4837,6.4403,6.4403,6.4403,6.4403,6.4403,6.4403,6.4403,6.4403,6.4403,6.4367,6.4367,6.4367,6.4367,6.4403,6.4403,6.4867,6.5663,6.6496,6.6779,6.6779,6.6779,6.6779,6.6779,0.0,0.0,0.0,0.0,0.0,0.0,0.0,0.0,0.0,0.0,0.0,0.0,0.0,0.0,0.0,0.0,0.0,0.0,2.5001,2.4777,2.4852,2.5384,2.6671,2.7147,2.6702,2.973,3.2824,3.5892,3.6396,3.5909,3.4458,3.4226,3.3635,3.2713,3.3238,3.3469,3.3498,3.3818,3.4551,3.5479,3.6201,3.6821,3.7406,0.0,0.0,0.0,0.0,0.0,0.0,0.0,0.0,0.0,3.7569,3.7488,3.7533,3.8367,3.8082,3.7846,3.949,4.0158,4.0961,4.3573,4.6245,4.9246,5.3271,5.4762,5.6832,6.2223,6.2947,6.2512,6.2193,6.3526,0.0,6.5192,0.0,0.0,0.0,0.0,0.0,0.0,0.0,0.0,0.0,0.0,0.0,0.0,0.0,0.0,0.0,0.0,0.0,0.0,6.4511,6.4403,6.4403,6.4403,6.4113,6.357,6.357,6.357,6.357,6.357,6.3237,6.2716,6.2716,6.3019,6.3606,6.4185,6.4867,6.5627,6.5844,6.6315,6.6779,6.6779,6.6779,6.6779,0.0,0.0,0.0,0.0,0.0,0.0,0.0,0.0,0.0,0.0,2.3089,2.3089,0.0,0.0,0.0,0.0,0.0,0.0,0.0,0.0,2.508,2.581,2.6252,2.6483,2.6596,2.8884,3.1156,3.3386,3.4259,3.3922,3.2497,3.3696,3.3828,3.3204,3.4524,3.5005,3.4902,3.5081,3.5591,3.6281,3.6559,3.7071,3.7685,0.0,0.0,0.0,0.0,0.0,0.0,0.0,0.0,0.0,3.7343,3.7177,3.695,3.7813,3.7578,3.741,3.9137,4.0033,4.1355,4.4872,4.7844,5.1062,5.5697,5.8094,6.0563,6.4939,6.5084,6.4439,6.4584,6.5055,0.0,0.0,0.0,0.0,0.0,0.0,0.0,0.0,0.0,0.0,0.0,0.0,0.0,0.0,0.0,0.0,0.0,0.0,0.0,0.0,6.3599,6.3309,6.2983,6.2983,6.2585,6.1759,6.1759,6.1759,6.1795,6.2121,6.1969,6.1521,6.1521,6.1817,6.2331,6.3461,6.4222,6.4693,6.5019,6.5627,6.6315,6.6315,6.6533,6.6779,0.0,0.0,0.0,0.0,0.0,0.0,0.0,0.0,0.0,0.0,2.3089,2.3089,0.0,0.0,0.0,0.0,0.0,0.0,0.0,0.0,2.5843,2.6868,2.6209,2.6649,2.8357,2.8986,2.934,2.9402,3.141,3.1702,3.0461,3.3491,3.4458,3.3801,3.6075,3.6837,3.6382,3.6423,3.6545,3.6696,3.6529,3.7037,3.7788,3.7196,0.0,0.0,0.0,0.0,0.0,0.0,0.0,0.0,3.7072,3.6698,3.6044,3.7172,3.6983,3.6768,3.8505,3.9765,4.1632,4.5869,4.951,5.3464,5.8818,6.2295,6.5048,6.7322,6.6207,6.5272,6.6634,6.5113,6.4354,0.0,0.0,0.0,0.0,0.0,0.0,0.0,0.0,0.0,0.0,0.0,0.0,0.0,0.0,0.0,0.0,0.0,0.0,0.0,6.218,6.1448,6.0688,6.0688,6.0326,0.0,5.9608,5.9608,5.9608,6.0362,6.0688,6.0688,6.0688,6.0724,6.0905,6.2374,6.3069,6.3287,6.4004,6.4765,6.5482,6.5555,6.6062,6.6706,0.0,0.0,0.0,0.0,0.0,0.0,0.0,0.0,0.0,0.0,0.0,0.0,0.0,0.0,0.0,0.0,0.0,0.0,0.0,0.0,2.5634,2.6115,2.6101,2.6813,2.8381,2.8537,2.8858,2.9402,2.987,2.9942,2.97,3.3259,3.4199,3.3072,3.5837,3.6472,3.541,3.5688,3.5875,3.6078,3.6741,3.7146,3.7361,3.7363,3.7236,0.0,0.0,0.0,0.0,0.0,0.0,0.0,3.6865,3.6863,3.6762,3.7319,3.7381,3.7789,4.035,4.1244,4.2856,4.879,5.4074,5.8782,6.2512,6.3896,6.4729,6.5881,6.7192,6.8069,6.7793,6.7353,6.7008,0.0,0.0,0.0,0.0,0.0,0.0,0.0,0.0,0.0,0.0,0.0,0.0,0.0,0.0,0.0,0.0,0.0,0.0,6.0405,6.0224,6.0043,5.9862,5.9862,5.9753,0.0,5.9608,5.9608,5.9608,5.9789,5.9862,5.9862,5.9862,6.0217,6.0833,6.1166,6.2041,6.3214,6.3396,6.3932,6.4729,6.5381,6.57,6.5953,0.0,0.0,0.0,0.0,0.0,0.0,0.0,0.0,0.0,0.0,0.0,0.0,0.0,0.0,0.0,0.0,0.0,0.0,0.0,0.0,0.0,2.5282,2.5946,2.6476,2.6809,2.7514,2.7869,2.7883,2.8588,2.9284,2.9992,3.2994,3.416,3.3867,3.6108,3.6646,3.5893,3.6095,3.6287,3.6512,3.6836,3.7127,3.7312,3.7031,3.6786,3.6595,0.0,0.0,0.0,0.0,0.0,0.0,0.0,0.0,3.6636,3.686,3.7065,3.7676,3.984,4.1458,4.4252,5.1276,5.6639,6.0724,6.2795,6.3852,6.4511,6.4946,6.6649,6.7826,6.7037,6.6646,0.0,0.0,0.0,0.0,0.0,0.0,0.0,0.0,0.0,0.0,0.0,0.0,0.0,0.0,0.0,0.0,0.0,6.0833,6.0477,5.9645,5.9608,5.9427,5.9029,5.9029,5.8812,5.8456,5.8456,5.8456,5.8449,5.8848,5.8818,5.8456,5.8854,5.9463,6.026,6.0652,6.1528,6.2621,6.2621,6.3135,6.3932,6.4729,6.5272,6.5736,0.0,0.0,0.0,0.0,0.0,0.0,0.0,0.0,0.0,0.0,0.0,0.0,0.0,0.0,0.0,0.0,0.0,0.0,0.0,0.0,0.0,0.0,2.5641,2.6003,2.5305,2.6614,2.7112,2.6753,2.7964,2.9355,3.093,3.2862,3.4066,3.459,3.6226,3.675,3.6472,3.6547,3.6699,3.6909,3.6696,3.6928,3.7321,3.6594,3.6331,0.0,0.0,0.0,0.0,0.0,0.0,0.0,0.0,0.0,3.6299,3.6378,3.6626,3.7226,3.8706,4.1791,4.6117,5.257,5.7237,6.0445,6.1247,6.2484,6.3596,6.4078,6.5258,6.604,6.543,6.4591,0.0,0.0,0.0,0.0,0.0,0.0,0.0,0.0,0.0,0.0,0.0,0.0,0.0,0.0,0.0,0.0,5.9431,5.9246,5.9101,5.8993,5.8993,5.8594,5.7804,5.7913,5.7659,5.6977,5.7122,5.7195,5.7224,5.7876,5.784,5.7224,5.7913,5.8637,5.9463,6.0254,6.1086,6.1811,6.1949,6.2397,6.3085,6.3913,6.4708,6.5504,0.0,0.0,0.0,0.0,0.0,0.0,0.0,0.0,0.0,0.0,2.3089,2.3089,0.0,0.0,0.0,0.0,0.0,0.0,0.0,0.0,0.0,2.3771,2.4889,2.5706,2.6066,2.688,2.7841,2.8971,2.9175,3.0339,3.2442,3.3364,3.3503,3.3077,3.5333,3.6009,3.5489,3.5604,3.5729,3.5838,3.6204,3.6625,3.6934,3.6476,0.0,0.0,0.0,0.0,0.0,0.0,3.5656,0.0,0.0,0.0,3.6362,3.6706,3.6855,3.7295,3.9045,4.4144,4.932,5.087,5.4626,5.8156,5.9015,5.944,6.0354,6.2837,6.3631,6.3809,6.3724,6.2585,0.0,0.0,0.0,0.0,0.0,0.0,0.0,0.0,0.0,0.0,0.0,0.0,0.0,0.0,0.0,0.0,5.8568,5.7913,5.7195,5.6506,5.647,5.6102,5.5371,5.5993,5.6253,5.618,5.6869,5.7195,5.7195,5.7297,5.7303,5.7195,5.7297,5.7804,5.8637,5.9427,6.0224,6.1014,6.1731,6.2064,6.2255,6.3143,6.3917,6.4686,0.0,0.0,0.0,0.0,0.0,0.0,0.0,0.0,0.0,0.0,0.0,2.3089,0.0,0.0,0.0,0.0,0.0,0.0,0.0,0.0,0.0,2.4861,2.5339,2.5597,2.557,2.7112,2.8011,2.8229,2.944,3.0731,3.2128,3.3265,3.3902,3.4109,3.5547,3.5911,3.5423,3.5711,3.5905,3.6012,3.6476,3.6356,3.5953,0.0,0.0,0.0,0.0,0.0,0.0,0.0,3.56,3.5644,3.5855,0.0,0.0,0.0,3.6473,3.7321,3.983,4.3324,4.6854,4.9256,5.2189,5.4866,5.6417,5.7202,5.8106,5.9762,5.9888,6.0171,6.1856,0.0,0.0,0.0,0.0,0.0,0.0,0.0,0.0,0.0,0.0,0.0,0.0,0.0,0.0,0.0,0.0,5.7362,5.7072,5.6724,5.618,5.5414,5.5377,5.5233,5.49,5.5226,5.5601,5.6005,5.6832,5.7195,5.7195,5.7195,5.7195,5.7195,5.7195,5.7659,5.8449,5.9282,6.0072,6.0869,6.1702,6.1755,6.1581,6.2839,6.3264,6.3392,0.0,0.0,0.0,0.0,0.0,0.0,0.0,0.0,0.0,0.0,0.0,0.0,0.0,0.0,0.0,0.0,0.0,0.0,0.0,0.0,0.0,2.5248,2.5229,2.5199,2.511,2.6904,2.7836,2.7841,2.9445,3.0792,3.1885,3.3028,3.4248,3.5464,3.6185,3.6244,3.5812,3.6133,3.6342,3.6415,3.6348,3.5848,3.5216,0.0,0.0,0.0,0.0,0.0,0.0,0.0,0.0,0.0,0.0,3.5855,0.0,0.0,0.0,3.6983,3.9306,4.148,4.3762,4.6363,4.9103,5.1564,5.3147,5.4378,5.5562,5.6834,5.6597,5.6866,5.9101,0.0,0.0,0.0,0.0,0.0,0.0,0.0,0.0,0.0,0.0,0.0,0.0,0.0,0.0,0.0,0.0,5.5844,5.572,5.5528,5.516,5.4611,5.4611,5.4502,5.4285,5.4683,5.5196,5.5746,5.6724,5.7195,5.7195,5.7195,5.7195,5.7195,5.7195,5.755,5.8166,5.9174,5.9964,6.0566,6.1436,6.1437,6.1107,6.212,6.2421,6.2426,0.0,0.0,0.0,0.0,0.0,0.0,0.0,0.0,0.0,0.0,0.0,0.0,0.0,0.0,2.3919,2.316,2.45,2.5416,2.5451,2.48,2.4201,2.3726,2.3708,0.0,2.5081,2.5896,2.7283,2.9307,2.9402,3.0538,3.2647,3.2868,3.4157,3.6353,3.7111,3.7111,3.6553,3.6693,3.6756,3.6661,3.5192,3.4848,0.0,0.0,0.0,0.0,0.0,0.0,0.0,0.0,0.0,0.0,0.0,0.0,0.0,0.0,0.0,0.0,3.6359,3.9196,4.1905,4.1204,4.4813,4.8581,4.8883,5.0176,5.2097,5.4929,5.5081,5.4737,5.4831,5.544,0.0,0.0,0.0,0.0,0.0,0.0,0.0,0.0,0.0,0.0,0.0,0.0,0.0,0.0,0.0,5.4498,5.4912,5.4212,5.3784,5.3742,5.3742,5.3385,5.2625,5.4146,5.4937,5.4973,5.6464,5.7195,5.7195,5.7195,5.7195,5.7195,5.7195,5.7224,5.7369,5.8956,5.9608,5.9737,6.0705,6.1038,6.0931,6.0453,6.1127,6.2219,0.0,0.0,0.0,0.0,0.0,0.0,0.0,0.0,0.0,0.0,0.0,0.0,0.0,2.3737,2.4171,2.3884,2.4822,2.5416,2.5416,2.5138,2.5007,2.5012,2.4993,2.5465,2.6491,2.724,2.8191,2.9402,2.9865,3.0759,3.2028,3.3095,3.4091,3.5052,3.6306,3.6815,3.6692,3.6248,3.6022,3.5955,3.4912,3.4308,3.4003,0.0,0.0,0.0,0.0,0.0,0.0,0.0,0.0,0.0,0.0,0.0,0.0,3.5463,3.5389,3.5448,3.595,3.7163,3.8612,4.0107,4.2364,4.4713,4.6684,4.8388,5.0035,5.1668,5.2231,5.2408,5.2378,5.4194,0.0,0.0,0.0,0.0,0.0,0.0,0.0,0.0,0.0,0.0,0.0,0.0,0.0,0.0,0.0,0.0,5.3534,5.364,5.3458,5.2951,5.2915,5.2775,5.2486,5.3566,5.414,5.414,5.5709,5.6434,5.6421,5.657,5.6615,5.6595,5.6193,5.6277,5.666,5.7334,5.7924,5.8464,5.9277,5.9593,5.9697,5.9987,6.0139,6.0304,0.0,0.0,0.0,0.0,0.0,0.0,0.0,0.0,0.0,0.0,0.0,0.0,0.0,0.0,2.5078,2.5078,2.5097,2.5181,2.5275,2.5436,2.5452,2.5333,2.5577,2.6189,2.7267,2.7277,2.8092,2.9771,2.9544,3.0327,3.2055,3.2873,3.3879,3.5048,3.5833,3.6414,3.679,3.6496,3.6219,3.5921,3.4917,3.4207,3.3795,0.0,0.0,0.0,0.0,0.0,0.0,0.0,0.0,0.0,0.0,0.0,0.0,0.0,3.5175,3.5181,3.5542,3.6055,3.6995,3.9123,4.0553,4.1991,4.4284,4.6234,4.7799,4.8803,4.9926,5.0781,5.0829,5.2655,5.3873,0.0,0.0,0.0,0.0,0.0,0.0,0.0,0.0,0.0,0.0,0.0,0.0,0.0,0.0,0.0,5.2377,5.2796,5.2846,5.2516,5.228,5.2311,5.2486,5.3111,5.3646,5.4104,5.5192,5.5832,5.6101,5.6028,5.6007,5.5971,5.533,5.5411,5.6014,5.636,5.6829,5.7368,5.8159,5.8479,5.8608,5.9148,5.92,5.9115,0.0,0.0,0.0,0.0,0.0,0.0,0.0,0.0,0.0,0.0,0.0,0.0,0.0,0.0,0.0,2.6616,2.5408,2.4791,2.5082,2.5495,2.5359,2.447,2.5124,2.6096,2.7296,2.5943,2.6956,3.0489,2.8399,2.9269,3.2862,3.2146,3.3517,3.6508,3.5823,3.5993,3.6823,3.7516,3.7415,3.662,3.5126,3.4511,3.4579,0.0,0.0,0.0,3.6214,3.6265,0.0,3.5673,0.0,0.0,0.0,0.0,0.0,0.0,0.0,0.0,0.0,0.0,0.0,3.8017,3.9295,4.0644,4.1611,4.3454,4.5269,4.6461,4.8336,4.9833,4.9984,5.06,5.11,0.0,0.0,0.0,0.0,0.0,0.0,0.0,0.0,0.0,0.0,0.0,0.0,0.0,0.0,5.1157,5.1523,5.1576,5.1872,5.2468,5.1909,5.1878,5.2457,5.2631,5.342,5.478,5.4923,5.5443,5.6178,5.5594,5.5352,5.5343,5.4657,5.4734,5.5393,5.6137,5.6418,5.6525,5.7397,5.7754,5.7765,5.7865,5.8355,5.8887,0.0,0.0,0.0,0.0,0.0,0.0,0.0,0.0,0.0,0.0,0.0,0.0,0.0,0.0,2.6827,2.6827,2.649,2.5824,2.4822,2.4857,2.498,2.5118,2.5832,2.6823,2.8087,2.8158,2.8971,3.0489,2.9903,3.0421,3.1978,0.0,3.3494,3.4902,3.5987,3.6236,3.5955,3.6152,3.6118,3.5847,3.4883,3.4511,0.0,0.0,0.0,0.0,0.0,3.6163,3.6541,0.0,3.725,3.7147,0.0,0.0,0.0,0.0,0.0,0.0,3.5723,0.0,0.0,0.0,0.0,0.0,4.0107,4.1924,4.369,4.4174,4.5578,4.6907,4.7582,4.8334,4.8792,4.8792,0.0,0.0,0.0,0.0,0.0,0.0,0.0,0.0,0.0,0.0,0.0,0.0,4.9953,5.0266,5.0363,5.1166,5.1872,5.2468,5.1909,5.1663,5.1848,5.1467,5.1489,5.186,5.2486,5.3174,5.3901,5.389,5.416,5.4641,5.4019,5.3849,5.4029,5.4251,5.4627,5.5184,5.5971,5.6599,5.7126,5.7701,5.8026,5.8263,0.0,0.0,0.0,0.0,0.0,0.0,0.0,0.0,0.0,0.0,0.0,0.0,0.0,0.0,2.7371,2.6971,2.7017,2.6455,2.5077,2.5173,2.5287,2.5276,2.5964,2.7002,2.8376,2.7893,2.8546,3.0489,2.9903,0.0,0.0,0.0,0.0,3.4819,3.5824,3.6016,3.56,3.56,3.56,3.5566,3.5143,0.0,0.0,3.5656,3.5994,0.0,0.0,0.0,3.8187,3.8256,3.7996,0.0,0.0,0.0,0.0,0.0,0.0,0.0,0.0,0.0,0.0,0.0,0.0,0.0,3.9028,4.0308,4.1485,0.0,4.257,4.3864,4.4671,4.5776,4.6508,4.6508,0.0,0.0,0.0,0.0,0.0,0.0,0.0,0.0,0.0,0.0,0.0,4.9011,4.9343,4.9637,4.9907,5.0739,5.1376,5.1732,5.1205,5.0986,5.1222,5.0665,5.0648,5.1209,5.141,5.1911,5.2656,5.2808,5.312,5.3506,5.3524,5.3509,5.3509,5.3509,5.3923,5.4676,5.5403,5.6139,5.69,5.762,5.7891,5.7958,0.0,0.0,0.0,0.0,0.0,0.0,0.0,0.0,0.0,0.0,0.0,0.0,0.0,0.0,0.0,0.0,2.7541,2.7184,2.6021,2.6332,2.6227,2.5503,2.6161,2.7164,2.847,2.6667,2.7316,0.0,0.0,0.0,0.0,0.0,0.0,0.0,0.0,3.5549,3.56,3.56,3.56,3.56,3.56,3.6124,0.0,0.0,3.8977,3.9309,4.0671,4.0799,4.0193,3.9318,3.8365,0.0,0.0,0.0,0.0,0.0,3.7162,0.0,0.0,0.0,0.0,0.0,0.0,0.0,3.8397,3.8988,3.9354,0.0,3.9896,4.119,4.1944,4.3449,4.4546,4.4444,4.5771,0.0,0.0,0.0,0.0,0.0,0.0,0.0,4.8977,4.8849,4.8774,4.8875,4.8875,4.9165,4.9851,5.0363,5.0643,5.0711,5.0174,5.0117,5.061,5.0053,5.0385,5.1556,5.1034,5.1182,5.1977,5.2023,5.2164,5.2334,5.3078,5.3416,5.3509,5.3509,5.389,5.4575,5.5369,5.6105,5.6799,5.7586,5.7891,5.7924,0.0,0.0,0.0,0.0,0.0,0.0,0.0,0.0,0.0,0.0,2.736,2.8106,2.8843,2.9083,0.0,0.0,2.9837,2.9526,2.869,2.8702,2.8484,2.7774,2.8418,2.891,2.9213,2.9368,3.0092,3.1383,0.0,0.0,0.0,0.0,0.0,0.0,3.5498,3.5583,3.56,3.56,3.56,3.56,3.56,3.6456,3.7719,3.8024,3.8863,3.9988,4.075,4.1324,4.158,4.0701,3.9806,3.8962,0.0,0.0,0.0,3.7096,0.0,0.0,0.0,0.0,0.0,0.0,0.0,0.0,3.8645,3.9342,4.0167,0.0,4.0047,4.0949,4.1774,4.3242,4.4174,4.3582,4.5334,0.0,0.0,0.0,0.0,0.0,0.0,0.0,4.8943,4.7936,4.7462,4.8056,4.8124,4.8655,4.9851,5.0002,5.0251,5.0697,5.0174,4.9945,5.0067,4.9466,4.9313,4.9544,4.9441,4.9795,5.0516,5.051,5.1183,5.23,5.2469,5.2909,5.3509,5.3509,5.3577,5.3856,5.5192,5.58,5.6071,5.7417,5.7891,5.7992,0.0,0.0,0.0,0.0,0.0,0.0,0.0,0.0,0.0,2.8262,2.8986,2.9317,2.8953,2.987,3.0362,0.0,0.0,0.0,0.0,2.9964,2.9804,2.945,2.9771,3.013,3.0494,3.0489,3.1024,3.2161,3.2161,0.0,0.0,0.0,0.0,3.4818,3.5335,3.5357,3.5109,3.5859,3.6394,3.6693,3.5909,0.0,3.7916,3.7916,3.9026,4.0745,4.1423,4.2051,4.2419,4.1538,4.088,0.0,0.0,3.8798,3.8666,0.0,3.8473,3.8765,0.0,0.0,0.0,3.9839,0.0,0.0,0.0,3.9136,3.9381,3.8943,3.8968,3.9272,4.0034,4.1231,4.2112,4.2092,4.3185,4.4384,0.0,0.0,0.0,0.0,0.0,0.0,4.7319,4.7022,4.6955,4.7319,4.7684,4.8199,4.8875,4.9239,4.9551,4.9831,4.9573,4.9444,4.9444,4.9146,4.9011,4.9011,4.9011,4.918,4.9593,5.0304,5.104,5.1784,5.2562,5.3145,5.3509,5.3509,5.3509,5.3619,5.4735,5.5606,5.635,5.707,5.7586,5.7958,0.0,0.0,0.0,0.0,0.0,0.0,0.0,0.0,2.9506,2.9799,3.0461,3.0505,2.9337,3.0775,3.146,3.0532,0.0,0.0,0.0,3.1162,3.0858,3.0721,3.0858,3.1123,3.1581,3.1162,3.1564,3.2912,3.2912,0.0,0.0,0.0,3.4916,3.4533,3.5217,3.5228,3.481,3.6214,3.7156,3.7578,0.0,3.6963,3.8328,3.8328,3.9506,4.1326,4.2125,4.265,4.2835,4.2087,4.164,4.1196,4.0057,3.9938,0.0,0.0,0.0,0.0,0.0,0.0,0.0,0.0,0.0,3.9971,0.0,0.0,0.0,3.8447,3.8124,0.0,0.0,0.0,0.0,0.0,0.0,0.0,0.0,0.0,0.0,0.0,0.0,0.0,0.0,4.5872,4.6218,4.636,4.6921,4.738,4.7684,4.8402,4.8774,4.8774,4.8943,4.9011,4.9011,4.9011,4.9011,4.9011,4.9011,4.9011,4.9044,5.0397,5.1074,5.1269,5.2664,5.3374,5.3509,5.3509,5.3509,5.3577,5.4304,5.5319,5.6427,5.6697,5.7171,5.7721,2.6109,2.6676,0.0,0.0,0.0,0.0,0.0,0.0,2.9865,3.1184,3.1995,3.2376,3.2216,3.2442,3.3039,3.4193,0.0,0.0,3.5208,0.0,3.2166,3.151,3.21,3.2166,3.1609,3.2166,3.284,3.3668,3.3668,3.4072,3.4813,3.5136,3.5258,3.5192,3.5459,3.556,3.5538,3.6406,3.6857,0.0,3.7449,3.8531,0.0,3.9836,4.0398,4.1334,4.2508,4.2842,4.2691,0.0,4.1972,4.1361,0.0,4.0355,3.9547,4.0111,0.0,0.0,0.0,0.0,0.0,0.0,4.1773,0.0,0.0,0.0,3.9985,3.9315,0.0,0.0,0.0,0.0,0.0,0.0,0.0,0.0,4.0751,4.1258,0.0,0.0,0.0,0.0,0.0,0.0,4.4072,4.4811,4.4939,4.5548,4.6861,4.7616,4.8015,4.8015,4.8672,4.9011,4.9011,4.9011,4.9011,4.9011,4.9011,4.9011,4.9044,4.9838,5.0574,5.1235,5.2089,5.2833,5.3509,5.3509,5.3509,5.3577,5.4304,5.471,5.5015,5.6325,5.6867,5.7103,2.6285,2.6776,0.0,0.0,0.0,0.0,0.0,0.0,3.2657,3.2856,3.4651,3.5744,3.5286,3.5644,3.581,3.5545,0.0,3.4512,0.0,0.0,0.0,3.2889,3.3591,3.3624,3.2889,3.3591,3.4126,3.4425,3.4425,3.459,3.4888,3.5099,3.4988,3.4683,3.5193,3.5245,3.5075,3.6663,3.7314,0.0,0.0,0.0,0.0,3.947,4.0023,4.107,4.1953,4.2203,4.2018,0.0,4.1633,0.0,0.0,0.0,0.0,0.0,0.0,0.0,0.0,0.0,0.0,0.0,0.0,0.0,4.0196,0.0,3.9806,0.0,0.0,0.0,0.0,0.0,0.0,0.0,4.0069,0.0,0.0,0.0,4.029,0.0,0.0,0.0,0.0,0.0,0.0,0.0,0.0,4.4391,4.5488,4.621,4.7008,4.7887,4.8191,4.8571,4.9011,4.9011,4.9011,4.9011,4.9011,4.9221,4.9669,5.0397,5.1141,5.1886,5.2672,5.3171,5.3509,5.3509,5.3509,5.3543,5.3856,5.4236,5.4744,5.5775,5.6418,5.6968,2.6652,2.7189,2.7834,2.8323,0.0,0.0,0.0,0.0,0.0,3.4949,3.6864,3.8156,3.803,3.8493,0.0,3.7559,3.693,3.6367,0.0,0.0,3.4027,3.3226,3.4292,3.4458,3.3536,3.4425,3.4888,3.4888,3.4888,3.4888,3.4888,3.5081,3.4886,3.4492,3.5476,3.5609,3.5205,3.7362,3.8201,3.8094,3.9379,3.9787,3.9584,3.9204,3.9661,4.0575,4.1162,4.1413,4.1326,4.0842,4.1243,0.0,4.0322,0.0,0.0,0.0,0.0,0.0,4.1203,0.0,0.0,0.0,0.0,0.0,0.0,0.0,0.0,0.0,0.0,0.0,0.0,0.0,0.0,0.0,0.0,3.9831,0.0,0.0,0.0,0.0,0.0,0.0,0.0,0.0,0.0,4.113,4.2205,4.3125,4.3931,4.4864,4.5906,4.6947,4.7582,4.8157,4.8706,4.8917,4.9011,4.9011,4.9011,4.939,5.0109,5.0642,5.1412,5.2334,5.2909,5.3315,5.3509,5.3509,5.3509,5.3509,5.3509,5.3822,5.4397,5.5361,5.6046,5.6621,2.7608,2.8137,2.8611,2.8431,2.9549,0.0,0.0,0.0,0.0,0.0,0.0,0.0,0.0,0.0,0.0,0.0,0.0,3.8116,3.8083,0.0,3.4645,3.1813,3.375,3.4226,0.0,3.416,3.4888,3.4888,3.4888,3.4888,3.4894,3.5175,3.5194,3.5122,3.6797,3.7152,3.6682,3.888,3.9406,3.8822,3.9575,3.9756,3.9528,0.0,3.9703,3.9811,4.0414,0.0,0.0,4.1212,4.0978,0.0,0.0,0.0,0.0,0.0,0.0,0.0,0.0,0.0,0.0,4.1759,0.0,0.0,0.0,0.0,4.117,0.0,0.0,0.0,0.0,0.0,0.0,0.0,0.0,0.0,0.0,0.0,0.0,0.0,0.0,0.0,0.0,0.0,0.0,4.113,4.1231,4.1603,4.2327,4.3822,4.4675,4.4709,4.6778,4.7913,4.7954,4.8631,4.9011,4.9011,4.9011,4.939,5.0109,5.0109,5.0921,5.23,5.2334,5.2773,5.3509,5.3509,5.3509,5.3509,5.3509,5.3509,5.3712,5.5158,5.5699,5.5936,2.916,2.9783,3.0021,2.9209,3.0262,3.1719,0.0,3.4657,0.0,0.0,4.0905,0.0,0.0,4.4696,4.4397,0.0,0.0,4.1163,3.9759,3.8738,0.0,3.4612,3.6611,3.6651,0.0,0.0,3.5529,3.5041,3.418,3.3783,3.3783,3.3967,3.403,3.4043,3.5439,3.5985,3.6024,3.8047,3.8749,0.0,0.0,4.002,4.0663,0.0,0.0,3.9448,3.9661,3.974,0.0,3.9945,4.0163,4.0336,4.0097,4.0031,4.0078,4.0336,4.072,0.0,0.0,0.0,4.3374,4.2381,0.0,0.0,0.0,0.0,0.0,0.0,0.0,0.0,0.0,0.0,0.0,0.0,0.0,0.0,0.0,0.0,0.0,0.0,0.0,0.0,0.0,0.0,0.0,3.9681,3.9749,4.029,0.0,4.2536,4.3559,4.4574,4.6285,4.7421,4.7913,4.8638,4.9011,4.9011,4.9011,4.939,5.0109,5.0608,5.1378,5.2334,5.2866,5.3247,5.3509,5.3509,5.3509,5.3509,5.3509,5.3509,5.3678,5.5158,5.5699,5.5969,3.0117,3.08,3.1124,3.032,3.1394,3.2889,0.0,0.0,0.0,0.0,4.319,0.0,4.7438,0.0,4.7305,0.0,4.5608,4.4018,4.1316,4.0687,0.0,3.6506,3.8003,0.0,0.0,0.0,0.0,0.0,3.3974,3.3573,3.3548,3.346,3.3372,3.3422,3.5247,3.598,3.5965,3.8228,3.9041,3.8835,0.0,3.9709,0.0,0.0,3.9681,3.9965,0.0,3.9315,3.9315,3.9315,3.9613,3.9938,3.9441,3.9647,4.0071,4.0336,4.0885,4.156,4.2289,4.3043,0.0,4.2679,4.2156,0.0,4.0912,0.0,0.0,0.0,0.0,0.0,0.0,0.0,0.0,0.0,0.0,0.0,0.0,4.0049,0.0,0.0,0.0,0.0,0.0,0.0,3.8876,3.9356,3.9389,3.9795,0.0,0.0,4.2773,4.3755,4.5751,4.7022,4.7488,4.8503,4.9011,4.9011,4.9011,4.9518,5.0507,5.0702,5.1514,5.2731,5.2976,5.3239,5.3509,5.3509,5.3509,5.3509,5.3509,5.3653,5.4025,5.5259,5.6206,5.7119,3.0494,3.1241,3.195,3.1792,3.2906,3.4325,0.0,0.0,4.0362,0.0,4.4953,4.6709,4.8953,4.9218,4.9218,4.9218,4.8556,4.6635,4.3017,4.2749,0.0,0.0,3.8005,3.742,3.5253,0.0,0.0,0.0,3.4145,3.4138,3.41,3.357,3.3266,3.3301,3.6104,3.6957,3.6469,3.9254,4.004,3.9402,3.9249,3.8862,3.8418,3.9019,0.0,4.1161,3.9792,3.9315,3.9315,3.9315,3.9315,3.9315,3.9348,3.9348,3.9507,4.0236,4.0912,4.1593,4.2314,4.301,4.3374,4.2679,0.0,0.0,0.0,0.0,4.3275,0.0,0.0,0.0,0.0,0.0,0.0,0.0,0.0,0.0,0.0,0.0,0.0,0.0,0.0,0.0,0.0,4.0079,4.0072,4.0113,4.0079,4.0072,0.0,0.0,4.2259,4.2293,4.5203,4.6759,4.6793,4.8274,4.9011,4.9011,4.9011,4.9721,5.1066,5.0439,5.1327,5.3348,5.2672,5.2799,5.3509,5.3509,5.3509,5.3509,5.3509,5.3957,5.4744,5.5471,5.7119,5.9115,3.1181,3.2399,3.3678,3.412,3.3994,3.4657,0.0,0.0,0.0,0.0,4.5682,4.7678,5.0436,5.0734,5.0734,5.0734,5.0569,0.0,0.0,0.0,0.0,4.0532,4.1023,3.9932,3.681,3.6982,0.0,3.5081,0.0,3.2953,3.2916,3.2298,3.2237,3.2747,3.4442,3.5093,3.5059,3.7294,3.8115,3.7947,3.7911,3.8425,0.0,0.0,3.9442,4.0624,3.9649,3.9315,3.9315,3.9315,3.9315,3.9415,3.9938,4.0104,4.0236,4.0945,4.1659,4.2248,4.2447,4.2645,4.2745,4.2546,4.17,4.0885,0.0,0.0,0.0,0.0,0.0,0.0,0.0,0.0,0.0,0.0,0.0,0.0,0.0,0.0,0.0,4.0832,0.0,0.0,4.0045,3.9592,3.9525,4.0072,3.9599,0.0,0.0,0.0,0.0,4.2293,4.4688,4.6244,4.6793,4.8274,4.9011,4.9011,4.9011,4.9213,4.9586,5.0499,5.1243,5.1844,5.2765,5.3306,5.3509,5.3509,5.3509,5.3509,5.3509,5.4287,5.5505,5.6249,5.7568,5.9115,3.2024,3.3597,3.5306,3.5913,0.0,0.0,3.9348,4.0209,0.0,4.5226,4.6941,0.0,5.0593,5.1397,5.1762,5.1762,5.119,0.0,4.8589,0.0,0.0,4.295,4.2321,4.069,3.7896,3.7296,0.0,3.4995,0.0,3.2632,3.2916,3.1966,3.1869,3.2572,3.382,3.4574,3.495,3.6659,3.7391,3.7391,3.7391,3.77,0.0,3.7956,3.8429,3.9109,3.8919,3.9067,3.9315,3.9315,3.9315,3.9375,3.9779,3.9912,4.0097,4.1103,4.1692,4.2156,4.2818,4.2977,4.2977,4.2977,4.213,4.1316,4.1316,4.16,4.1692,0.0,0.0,0.0,0.0,0.0,0.0,0.0,0.0,0.0,0.0,0.0,0.0,0.0,3.9999,0.0,4.0072,3.9423,3.9322,4.0039,3.9734,0.0,0.0,0.0,0.0,4.2293,4.4823,4.638,4.6793,4.8578,4.9323,4.9011,4.9323,4.9661,4.9991,5.1175,5.1886,5.2249,5.3137,5.3509,5.3509,5.3509,5.3509,5.3543,5.4219,5.5166,5.6283,5.7002,5.822,5.953,3.2878,3.48,3.678,3.7175,0.0,0.0,0.0,4.2653,0.0,4.6709,0.0,4.9682,5.041,5.162,5.2356,5.2248,0.0,4.9833,4.8972,4.6898,4.5308,4.4487,4.2499,4.0526,3.8655,3.7256,3.5953,0.0,0.0,3.2938,3.3455,3.2116,3.1899,3.2691,3.3792,3.4687,3.5484,3.6561,3.7075,3.7138,3.7138,3.6807,3.636,3.7027,3.7257,3.7339,3.7958,3.8604,3.9181,3.9255,3.9315,3.9315,3.9415,3.9448,3.9706,4.1136,4.1494,4.1692,4.3076,4.3374,4.3308,4.3308,4.2844,4.2348,4.2348,4.2348,4.2189,4.1527,4.2513,0.0,0.0,0.0,0.0,0.0,0.0,0.0,0.0,0.0,0.0,0.0,0.0,0.0,0.0,3.9592,3.9423,0.0,0.0,0.0,0.0,0.0,0.0,4.2259,4.5034,0.0,4.6928,0.0,4.9737,4.9281,4.9838,5.0473,5.1235,5.1953,5.2672,5.3348,5.3441,5.3509,5.3509,5.3509,5.3551,5.378,5.5158,5.6139,5.69,5.762,5.8838,6.0114,3.3492,3.5928,3.8003,3.7518,0.0,4.3837,4.5649,4.6046,4.6543,4.7669,4.9632,5.1198,5.1919,5.2259,5.2098,5.1397,5.0606,0.0,0.0,0.0,0.0,4.3766,4.2215,4.0728,3.9258,3.7906,3.6864,0.0,0.0,0.0,3.3455,3.2116,3.2146,3.3335,3.3554,3.4352,3.5465,3.5125,0.0,3.5822,3.5822,3.5772,3.5732,3.6352,3.6577,3.6662,3.7317,3.7944,3.8562,3.9121,3.9315,3.9415,4.0004,4.0203,4.0462,4.1891,4.1891,4.1593,4.2454,4.2255,4.1792,4.1792,4.1692,4.1593,4.1593,4.1593,4.156,4.1428,4.209,4.2421,4.156,0.0,0.0,0.0,0.0,0.0,0.0,0.0,0.0,0.0,0.0,0.0,0.0,0.0,0.0,0.0,0.0,0.0,0.0,0.0,0.0,0.0,0.0,0.0,0.0,0.0,0.0,5.0795,5.0338,5.0473,5.1235,5.1953,5.2367,5.2536,5.3213,5.3509,5.3509,5.3509,5.3856,5.4499,5.5369,5.6139,5.69,5.762,5.8838,6.0114,3.6567,3.7898,3.9273,4.0,0.0,0.0,0.0,4.7712,0.0,4.8472,4.9005,4.9516,4.9881,5.0602,5.0872,5.0461,4.9469,4.8542,4.776,4.6028,4.4735,4.4039,4.2349,4.0945,3.9939,3.7973,3.6784,3.6493,0.0,0.0,0.0,3.2998,3.3066,3.4039,3.439,3.5082,3.5919,0.0,0.0,3.5941,3.5627,3.5511,3.5522,3.5814,3.5934,3.6029,3.6646,3.7087,3.7413,3.8098,3.8541,3.8908,3.9264,3.9368,3.9555,4.059,4.0908,4.1082,4.1843,4.2287,4.2546,4.2546,4.2255,4.1957,4.1957,4.1957,4.1858,4.1494,4.2281,4.2745,4.1593,4.0845,0.0,0.0,0.0,0.0,0.0,0.0,0.0,0.0,0.0,0.0,0.0,0.0,0.0,0.0,0.0,0.0,0.0,0.0,0.0,0.0,0.0,0.0,0.0,0.0,0.0,5.0642,5.1048,5.142,5.1818,5.257,5.2909,5.2934,5.334,5.3509,5.3543,5.3923,5.4499,5.5234,5.5978,5.6722,5.7417,5.7755,5.8838,6.0114,3.952,3.9985,4.083,4.2482,4.4187,0.0,4.6731,4.8393,4.9372,4.8909,4.8389,4.8076,4.8076,4.9102,4.9726,4.9547,4.827,4.7377,4.7194,4.5336,4.4234,4.4234,4.2436,4.1164,4.0606,3.817,3.6814,0.0,0.0,0.0,0.0,3.3821,0.0,0.0,0.0,0.0,0.0,0.0,3.5977,3.6378,3.591,3.5699,3.5699,3.5541,3.5511,3.5554,3.6053,3.6203,3.6328,3.697,3.7751,3.8382,3.8232,3.8295,3.8509,3.9045,3.9596,4.0219,4.0944,4.1999,4.2967,4.311,4.2843,4.2584,4.2888,4.2851,4.2612,4.2196,4.2885,4.3208,4.1891,4.1077,0.0,0.0,0.0,0.0,0.0,0.0,0.0,0.0,0.0,0.0,0.0,0.0,0.0,0.0,0.0,0.0,0.0,0.0,0.0,0.0,0.0,4.621,4.7267,0.0,5.0905,0.0,5.1826,5.2401,5.257,5.3213,5.3509,5.3509,5.3509,5.3509,5.3551,5.4304,5.504,5.5767,5.6519,5.7239,5.7891,5.7891,5.8838,6.0114,4.0277,4.1781,0.0,0.0,0.0,0.0,4.7498,4.8189,4.8704,4.8714,4.9214,4.9596,4.9596,4.9732,4.9497,4.8769,4.7472,4.6363,4.5584,4.4198,4.3418,4.3418,4.2121,4.1373,4.1313,3.9278,3.7913,0.0,0.0,0.0,0.0,0.0,0.0,0.0,0.0,0.0,0.0,3.6181,3.6437,3.6487,3.6429,3.6395,3.6335,3.5721,3.5511,3.5519,3.5554,3.5578,3.5685,3.6359,3.7376,3.8295,3.7677,3.7915,3.8429,3.8537,3.8592,3.8735,3.9415,4.0143,4.0865,4.1545,4.2167,4.2915,4.4202,4.3985,4.3672,4.4265,4.3985,4.3341,4.2546,4.1792,4.1351,0.0,0.0,0.0,0.0,0.0,0.0,3.9991,0.0,0.0,0.0,0.0,0.0,0.0,0.0,0.0,0.0,0.0,0.0,4.2259,0.0,4.6718,4.8774,4.9737,0.0,5.3171,5.257,5.2672,5.3374,5.3484,5.3509,5.3509,5.3509,5.3509,5.3551,5.4304,5.504,5.5767,5.6519,5.7239,5.7891,5.7891,5.8838,6.0114,0.0,0.0,0.0,0.0,0.0,0.0,0.0,4.7997,4.7832,4.7853,4.814,4.8303,4.8303,4.8303,4.8004,4.7283,4.6364,4.5484,4.4756,4.3818,4.313,4.2771,4.1882,4.1224,4.0825,3.8841,3.7674,0.0,0.0,0.0,0.0,0.0,0.0,0.0,0.0,3.5511,3.5519,3.5789,3.5908,3.5908,3.5908,3.5908,3.5878,3.5609,3.5511,3.5541,3.5946,3.6096,3.6186,3.6836,3.7377,3.774,3.7473,3.7871,3.8322,3.7965,3.8413,3.9132,3.9389,4.0237,4.1252,4.1968,4.2374,4.2975,4.4393,4.4456,4.4456,4.5193,4.5126,4.4548,4.3374,4.291,4.2343,0.0,0.0,0.0,0.0,0.0,0.0,0.0,0.0,4.0405,0.0,0.0,0.0,0.0,0.0,0.0,0.0,0.0,0.0,4.2259,0.0,4.6109,4.8326,4.9958,5.1446,5.2773,5.2934,5.3171,5.3509,5.3509,5.3509,5.3509,5.3509,5.3754,5.4236,5.4972,5.5674,5.6418,5.7171,5.7654,5.7891,5.7891,5.8838,6.0114,4.549,0.0,4.4889,0.0,4.622,4.5882,4.7921,4.7709,4.7309,4.7309,4.7309,4.7309,4.7309,4.7309,4.7119,4.6629,4.5813,4.5095,4.4636,4.3778,4.302,4.244,4.1772,0.0,4.0705,3.911,3.8093,3.7695,3.7263,0.0,0.0,0.0,0.0,0.0,3.578,3.578,3.578,3.578,3.578,3.578,3.578,3.578,3.5759,3.5579,3.5511,3.5579,3.6246,3.6493,3.6605,3.7434,3.7695,3.7665,3.7456,3.7853,3.8281,3.7605,3.8232,3.9166,3.9166,4.0014,4.1051,4.1795,4.2118,4.2701,4.4363,4.4698,4.4902,4.5657,4.5623,4.516,4.4117,4.3573,4.28,4.1346,0.0,0.0,0.0,0.0,0.0,0.0,4.0214,4.0343,4.0113,0.0,0.0,0.0,0.0,0.0,0.0,0.0,0.0,0.0,0.0,0.0,0.0,5.0533,5.1919,5.2672,5.3247,5.3509,5.3509,5.3509,5.3509,5.3509,5.3509,5.3923,5.4676,5.5403,5.6139,5.6867,5.762,5.7891,5.7924,5.8127,5.9032,6.0148,4.5905,4.6152,4.648,4.7189,4.7279,4.7279,4.732,4.7309,4.7309,4.7309,4.7309,4.7309,4.7309,4.7309,4.7309,4.7309,4.6052,4.5315,4.5285,4.4027,4.302,0.0,0.0,4.1403,4.1403,4.0705,3.9709,3.8401,0.0,0.0,3.5519,0.0,3.6493,3.6493,3.6493,3.6493,3.6493,3.6493,3.6493,3.6493,3.6493,3.6493,3.6434,3.5759,3.5511,3.5579,3.6246,3.6493,3.6703,3.7952,3.8401,3.8281,3.7605,3.7853,3.8281,3.7605,3.7892,3.8418,3.8418,3.8918,3.9607,4.0331,4.1009,4.2103,4.4301,4.4733,4.4902,4.5657,4.5233,4.4703,4.4703,4.3495,4.2571,4.2751,0.0,0.0,0.0,0.0,0.0,0.0,4.0647,4.0899,4.018,0.0,0.0,0.0,0.0,0.0,0.0,0.0,0.0,4.3355,4.5602,0.0,5.0041,5.1564,5.2706,5.3484,5.3509,5.3509,5.3509,5.3509,5.3509,5.3509,5.3509,5.3923,5.4676,5.5403,5.6139,5.6867,5.762,5.7891,5.7992,5.8718,5.9462,6.0216,4.6387,4.6449,4.6563,4.68,4.6931,4.7029,4.7029,4.716,4.7309,4.7309,4.7309,4.7309,4.7309,4.7309,4.7119,0.0,4.5802,4.5105,0.0,4.3788,4.302,4.244,4.1772,4.1194,4.0735,4.0058,3.952,3.9071,0.0,0.0,0.0,3.6806,3.6656,3.5848,3.6306,3.6493,3.6455,3.5998,3.6327,3.7075,3.6665,3.6755,3.7045,3.6425,3.6447,3.6827,3.7045,3.7413,3.7922,3.8772,3.9071,3.9041,3.8823,3.8913,3.8952,3.8272,3.8871,3.9768,3.9768,4.0247,4.0942,4.163,4.1957,4.2685,4.4924,4.6217,4.6874,4.6617,4.675,4.6643,4.5623,4.506,4.4272,4.2825,0.0,0.0,0.0,0.0,0.0,0.0,4.0214,4.0377,0.0,4.0113,0.0,0.0,0.0,0.0,0.0,0.0,0.0,0.0,4.6094,0.0,5.0075,5.1555,5.2697,5.3509,5.3509,5.3509,5.3509,5.4025,5.427,5.4262,5.4794,5.5403,5.6122,5.635,5.69,5.7586,5.7823,5.7891,5.7992,5.8718,5.9462,6.0216,4.684,4.669,4.6609,4.6609,4.6701,4.6789,4.6789,4.692,4.7048,4.7048,4.7084,4.7138,4.7138,4.7244,0.0,4.6719,4.6072,4.5384,4.4725,4.4057,4.3289,4.244,4.2012,4.1463,4.0795,0.0,0.0,3.9789,3.8841,3.7982,3.7203,3.7593,3.7494,3.6977,3.7144,3.7203,3.7174,3.6507,3.6678,3.7366,3.6985,3.7075,3.7366,3.6985,3.7075,3.7426,3.7704,3.8033,3.849,3.9182,3.9391,3.9391,3.9391,3.9391,3.9361,3.92,3.9738,4.0457,4.0705,4.1074,4.1517,4.1914,4.2197,4.2966,4.5201,4.6889,4.7868,4.7404,4.7239,4.6874,4.5955,4.5351,4.4349,4.2388,0.0,4.1118,3.9694,0.0,0.0,0.0,0.0,0.0,0.0,4.0844,0.0,0.0,0.0,0.0,0.0,0.0,0.0,4.4234,4.6906,0.0,5.0921,5.2131,5.3002,5.3509,5.3788,5.3923,5.3923,5.4668,5.5006,5.504,5.5505,5.6114,5.6799,5.6799,5.7239,5.7891,5.7891,5.806,5.8389,5.9124,5.9902,6.0655,4.7161,4.6809,0.0,0.0,4.6546,0.0,4.6558,4.6609,4.6609,4.6609,4.6756,4.6887,4.6909,4.7106,4.7287,4.7309,0.0,0.0,0.0,4.4636,4.3688,4.2521,4.241,4.2101,4.1493,4.1463,4.1134,4.0397,3.9149,3.8461,3.8341,3.8371,3.8721,3.9311,3.8721,3.8461,3.8431,3.7755,3.7486,3.7516,3.7486,3.7486,3.7516,3.7486,3.7486,3.7605,3.8182,3.8431,3.858,3.9251,3.9481,3.9481,3.9511,3.9541,3.966,4.0217,4.0427,4.0616,4.1283,4.1493,4.1513,4.1513,4.2038,4.3082,4.5229,4.6846,4.791,4.7926,4.6874,4.5955,4.5888,4.4714,4.3275,4.1792,4.1726,4.1303,3.9741,0.0,0.0,0.0,0.0,0.0,0.0,4.2151,4.2516,0.0,0.0,0.0,0.0,0.0,4.3673,4.5797,4.8037,5.0236,5.2266,5.3103,5.3518,5.3577,5.4338,5.4676,5.471,5.5437,5.5767,5.5767,5.5834,5.6249,5.6867,5.6867,5.7282,5.7891,5.7891,5.8355,5.9081,5.9844,6.0622,6.14,0.0,0.0,4.6075,4.6075,4.6191,4.6291,4.6291,4.6458,4.6609,4.6609,4.6635,4.6723,4.6887,4.6964,4.7073,4.7287,4.6232,4.5454,4.5304,4.4187,4.3389,4.31,4.2661,4.2321,4.2171,4.2161,4.1583,4.0397,4.0068,3.914,3.7644,3.8161,3.8482,3.8661,3.9011,3.9152,3.9131,3.8452,3.8452,3.8883,3.8362,3.8473,3.8883,3.8362,3.8473,3.8892,3.852,3.8721,3.9281,3.9948,4.0148,4.0247,4.0765,4.0915,4.0855,4.0487,4.0765,4.1313,4.1982,4.2501,4.2861,4.2861,4.3422,4.4313,4.5448,4.6421,4.7098,4.7159,4.7338,4.7305,4.6742,4.5881,4.4787,4.3315,4.2213,4.1078,3.9819,4.0232,0.0,0.0,4.2084,4.2814,4.2652,4.2591,4.2834,0.0,0.0,0.0,0.0,0.0,4.6805,4.7346,5.0059,5.175,5.2291,5.3103,5.3788,5.4338,5.5099,5.5437,5.5471,5.6215,5.6553,5.6553,5.7137,5.7485,5.7654,5.7654,5.7721,5.7891,5.7891,5.8355,5.9081,5.9844,6.0622,6.14,4.6777,4.6284,4.5906,4.5906,4.5978,4.6057,4.6057,4.618,4.6375,4.6657,4.6512,4.6576,4.6981,4.6867,4.6855,4.7084,4.6557,4.6082,4.5773,4.4785,4.4087,4.3778,4.314,4.269,4.241,4.241,4.1892,4.0855,4.1154,4.0775,3.9688,3.9748,3.9936,4.0245,4.0286,4.0307,4.0277,3.9927,3.9987,4.0247,3.9589,3.9709,4.0217,3.923,3.9469,4.0217,3.9559,3.9738,4.0367,4.0726,4.0855,4.0915,4.1283,4.1403,4.1403,4.1343,4.1583,4.2012,4.2651,4.305,4.33,4.33,4.3907,4.4605,4.5055,4.5998,4.6801,4.6839,4.721,4.7371,4.6974,4.6021,4.4828,4.3348,4.2206,4.1091,3.9807,4.0287,0.0,4.1552,4.2922,4.3861,4.3937,4.4519,4.4797,4.4608,0.0,0.0,4.6075,4.8199,4.9104,4.8428,5.0939,5.2638,5.3348,5.4118,5.4693,5.5099,5.5843,5.6215,5.6249,5.6968,5.7315,5.734,5.7721,5.7891,5.7891,5.7891,5.7891,5.7891,5.7891,5.8558,5.9564,5.9945,6.0825,6.1873,4.7677,4.6864,4.6197,4.6197,4.6197,4.6138,4.6051,4.6109,4.633,4.6743,4.6507,4.6549,4.7255,4.6861,4.6672,4.6951,4.7133,4.6956,4.635,4.5683,4.5035,4.4486,4.3818,4.32,4.27,4.258,4.2211,4.1553,4.2131,4.2351,4.2231,4.1682,4.1772,4.2381,4.1802,4.1553,4.1553,4.1553,4.1493,4.1343,4.0765,4.0885,4.1283,4.0157,4.0397,4.1343,4.0765,4.0915,4.1403,4.1532,4.1553,4.1583,4.1663,4.1693,4.1783,4.2371,4.2551,4.2661,4.316,4.3359,4.3449,4.3449,4.4052,4.4646,4.477,4.5817,4.6814,4.7082,4.7174,4.7201,4.7215,4.6021,4.4596,4.3223,4.223,4.1239,4.0027,0.0,4.1453,4.2354,4.3992,4.5127,4.5406,4.7022,4.7387,4.5717,4.7699,0.0,0.0,5.0288,5.0837,4.9721,5.1623,5.3315,5.4735,5.5505,5.5868,5.5868,5.6722,5.7061,5.7002,5.7712,5.8026,5.7891,5.7891,5.7891,5.7891,5.7891,5.7891,5.7924,5.8026,5.8906,6.0114,6.025,6.1173,6.2391,4.7074,4.7259,4.7515,4.7515,4.7515,4.73,4.6743,4.7143,4.7358,4.6859,4.6748,4.7026,4.7875,4.6938,4.6563,4.7335,4.7137,4.6783,4.635,4.5683,4.5244,4.5155,4.4486,4.4097,4.4007,4.3459,4.2851,4.2251,4.2351,4.2101,4.1553,4.1463,4.1772,4.241,4.2291,4.2251,4.2251,4.2251,4.1922,4.1403,4.1283,4.1313,4.1373,4.1154,4.1214,4.1403,4.1274,4.1313,4.1493,4.2041,4.2251,4.2341,4.2831,4.3,4.304,4.313,4.316,4.319,4.327,4.3718,4.4147,4.4147,4.4648,4.5354,4.6036,4.637,4.6941,4.8294,4.8589,4.8611,4.8737,4.7537,4.6286,4.5417,4.3146,4.1455,4.1511,0.0,4.3044,4.4098,4.6621,4.8522,4.9161,4.8984,4.9213,5.0127,4.945,4.9484,5.0626,5.1615,5.2325,5.2799,5.3721,5.4668,5.553,5.6249,5.6621,5.6655,5.8008,5.8312,5.7755,5.8481,5.8481,5.7891,5.7891,5.7891,5.7891,5.7891,5.7891,5.7958,5.8583,5.9361,6.0182,6.0849,6.167,6.2391,4.7874,4.7811,4.7805,4.7805,4.7805,4.7706,4.7375,4.759,4.7823,4.7816,4.7538,4.7614,4.8359,4.7596,4.7146,4.7333,4.7164,4.6945,4.6624,4.6117,4.5832,4.5832,4.5204,4.4666,4.4307,4.3628,4.316,4.288,4.288,4.2731,4.2422,4.2422,4.2601,4.288,4.288,4.288,4.288,4.288,4.2701,4.2392,4.2062,4.2142,4.2362,4.1663,4.1843,4.2372,4.2062,4.2142,4.2482,4.2791,4.288,4.294,4.321,4.33,4.33,4.33,4.33,4.3389,4.3758,4.4057,4.4396,4.4766,4.5065,4.5388,4.5778,4.6193,4.6699,4.7456,4.7908,4.8373,4.8881,4.7778,4.6823,4.6976,4.4184,0.0,0.0,4.3437,4.4121,4.5786,4.8052,4.978,5.0514,5.035,5.0457,5.1167,5.0558,5.0668,5.1716,5.2528,5.3315,5.4059,5.5175,5.5953,5.6283,5.7036,5.7577,5.8008,5.8675,5.9022,5.9066,5.9022,5.8819,5.8457,5.806,5.7891,5.7891,5.7891,5.7891,5.7958,5.8718,5.9462,6.0216,6.0984,6.1782,6.2391,4.8716,4.8449,4.8229,4.8229,4.8229,4.8183,4.8026,4.8142,4.8345,4.8658,4.8304,4.8246,4.8873,4.8246,4.7718,4.7561,4.7338,4.7121,4.6989,4.6578,4.6433,4.654,4.5892,4.5214,4.4546,4.4027,4.3748,4.3748,4.3748,4.3748,4.3748,4.3609,4.3539,4.3539,4.3359,4.33,4.33,4.33,4.33,4.327,4.28,4.288,4.318,4.2212,4.2452,4.324,4.2771,4.291,4.3329,4.3479,4.3539,4.3569,4.3728,4.3748,4.3748,4.3748,4.3748,4.3878,4.4396,4.4666,4.4905,4.5384,4.5633,4.5753,4.5753,4.6232,4.6752,4.6943,4.7439,4.8047,4.8748,4.796,4.7361,4.7868,0.0,0.0,0.0,4.5074,4.5669,4.7588,4.9373,5.0744,5.1511,5.1677,5.1742,5.1742,5.1742,5.1979,5.2562,5.3315,5.416,5.5082,5.6224,5.6867,5.7036,5.7789,5.8457,5.9013,5.9351,5.9733,6.008,5.9699,5.9327,5.8979,5.8389,5.8161,5.8161,5.8161,5.8263,5.85,5.9225,5.9868,6.0486,6.1264,6.1917,6.2391,4.8803,4.9146,4.9548,4.9548,4.9548,4.9361,4.8728,4.9146,4.9361,4.8774,4.8658,4.8902,4.9536,4.8531,4.7997,4.8537,4.7742,4.719,4.7195,4.6785,4.6762,4.7198,4.657,4.5922,4.5255,4.5195,4.5155,4.5155,4.5155,4.5155,4.5125,4.4516,4.4247,4.4207,4.3569,4.33,4.33,4.33,4.33,4.33,4.324,4.327,4.33,4.321,4.321,4.33,4.324,4.327,4.3379,4.4027,4.4247,4.4326,4.4975,4.5155,4.5155,4.5155,4.5155,4.5155,4.5214,4.5683,4.6151,4.6211,4.67,4.716,4.716,4.7203,4.7473,4.8275,4.8492,4.8561,4.8677,4.8738,4.8532,4.7937,0.0,0.0,4.6901,4.7647,4.8531,4.9497,5.1113,5.2452,5.3222,5.3332,5.334,5.334,5.334,5.334,5.3408,5.4135,5.5184,5.6596,5.6722,5.7137,5.7823,5.8549,5.8945,5.9013,6.0443,6.0757,6.0114,6.0825,6.0341,5.9013,5.8955,5.8912,5.8912,5.8912,5.9327,6.0013,6.0825,6.1163,6.1298,6.2052,6.2357,6.2391,4.8451,4.847,4.8424,4.7714,4.76,4.7503,4.7268,4.8016,4.8567,4.8287,4.8878,4.942,4.9664,4.9257,4.8897,4.8716,4.8334,4.7882,4.7243,4.7053,4.7,4.7059,4.6555,4.6181,4.5922,4.5514,4.5315,4.5315,4.5315,4.5315,4.5285,4.4606,4.4516,4.4885,4.3778,4.3539,4.3938,4.3938,4.3698,4.3329,4.3758,4.3658,4.3359,4.3748,4.3938,4.3967,4.4396,4.4546,4.4576,4.4815,4.4915,4.4975,4.5214,4.5315,4.5364,4.5802,4.5922,4.6012,4.6441,4.6431,4.639,4.682,4.7119,4.7309,4.7309,4.7309,4.7376,4.7741,4.7775,4.7959,4.8531,4.8321,4.8266,4.8929,0.0,4.6693,4.8631,4.8632,4.9036,5.066,5.2144,5.3298,5.393,5.3712,5.3687,5.4169,5.4169,5.4169,5.4169,5.4871,5.5723,5.6647,5.7187,5.7848,5.8583,5.9293,5.9936,6.0443,6.1028,6.1366,6.1511,6.1366,6.0984,6.0409,5.9902,5.9665,5.9665,5.9665,5.9844,6.0182,6.0994,6.1298,6.14,6.212,6.2391,6.2391,4.7613,4.7459,4.7216,4.6424,4.6456,4.6524,4.632,4.7407,4.8264,4.8302,4.9316,5.0013,5.0013,5.0013,4.9739,4.9076,4.8803,4.841,4.7712,4.7384,4.7119,4.6917,4.6645,4.6525,4.66,4.6161,4.5933,4.5933,4.5933,4.5933,4.5903,4.5234,4.5174,4.5563,4.4416,4.4177,4.4606,4.4606,4.4366,4.3967,4.4426,4.4337,4.3967,4.4426,4.4606,4.4666,4.5125,4.5315,4.5334,4.5544,4.5603,4.5663,4.5873,4.5933,4.6022,4.6491,4.66,4.6719,4.7179,4.6969,4.6719,4.7179,4.7309,4.7309,4.7309,4.7459,4.7608,4.7608,4.7788,4.8055,4.8427,4.8284,4.8419,4.9322,4.7971,4.7603,4.9683,4.9639,4.9802,5.1,5.2482,5.355,5.3994,5.371,5.3788,5.4497,5.4311,5.4264,5.444,5.4956,5.5505,5.6159,5.7199,5.7997,5.8489,5.953,6.0463,6.1289,6.1228,6.1618,6.2391,6.1883,6.1535,6.1264,6.0723,6.0486,6.0486,6.0486,6.0622,6.0892,6.1434,6.1637,6.1704,6.2221,6.2391,6.2391,4.628,4.628,4.628,4.6267,4.6756,4.6972,4.6376,4.7702,4.8833,4.8974,4.9975,5.0685,5.0685,5.0668,5.0407,4.9739,4.9076,4.8716,4.8687,4.7759,4.7119,4.6917,4.6909,4.7019,4.7298,4.7309,4.7309,4.7309,4.7309,4.7309,4.7309,4.66,4.63,4.6271,4.5603,4.5315,4.5304,4.5304,4.5315,4.5315,4.5304,4.5315,4.5315,4.5304,4.5304,4.5304,4.5304,4.5315,4.5434,4.6061,4.63,4.642,4.7089,4.7309,4.7309,4.7309,4.7309,4.7309,4.7309,4.7309,4.7298,4.7309,4.7309,4.7309,4.7298,4.7818,4.8308,4.8308,4.8828,4.9108,4.8438,4.8968,4.9305,4.88,4.9314,4.9838,4.9964,5.0797,5.1136,5.0464,5.2044,5.3257,5.3374,5.3443,5.374,5.4361,5.371,5.3569,5.4171,5.4196,5.455,5.527,5.6672,5.7385,5.7385,5.9066,6.0361,6.1313,6.1109,6.1493,6.2391,6.2391,6.2018,6.1298,6.1298,6.1298,6.1298,6.1298,6.1738,6.2391,6.2391,6.2391,6.2391,6.2391,6.2391,6.2391,4.5329,4.5195,4.5031,4.4626,4.4373,4.4336,4.4514,4.5648,4.6503,4.6544,4.7535,4.8247,4.8247,4.8568,4.8726,4.8515,4.9067,4.9204,4.8716,4.8015,4.7648,4.7742,4.7081,4.6789,4.7008,4.7019,4.7106,4.7309,4.7309,4.7309,4.7309,4.66,4.654,4.6939,4.5813,4.5563,4.6012,4.6012,4.5743,4.5334,4.5802,4.5713,4.5334,4.5832,4.6012,4.6072,4.652,4.6711,4.6741,4.6939,4.6999,4.7029,4.7249,4.7309,4.7309,4.7309,4.7309,4.7309,4.7309,4.7638,4.7889,4.7429,4.7309,4.7429,4.7878,4.8158,4.8427,4.8887,4.9168,4.9228,4.9048,4.92,4.9315,4.9142,4.8902,4.8967,4.9562,5.0023,5.0272,5.0199,5.162,5.2627,5.2757,5.2688,5.298,5.3703,5.3554,5.3534,5.3756,5.4218,5.4579,5.4781,5.6167,5.712,5.7611,5.8972,6.0164,6.1078,6.1022,6.1493,6.2391,6.2391,6.2289,6.2086,6.2086,6.2086,6.2086,6.2086,6.2188,6.2391,6.2391,6.2391,6.2391,6.2391,6.2391,6.2391,4.4436,4.4336,4.4293,4.413,4.4055,4.403,4.4116,4.5252,4.6156,4.6212,4.7198,4.7826,4.7582,4.7853,4.7858,4.7387,4.8374,4.8841,4.8444,4.8269,4.8102,4.7992,4.7395,4.7094,4.7129,4.6885,4.6855,4.7026,4.7084,4.7127,4.7138,4.6836,4.6909,4.7268,4.6441,4.6322,4.6689,4.6689,4.6461,4.6112,4.652,4.6461,4.6142,4.655,4.6689,4.676,4.7149,4.7309,4.7309,4.7309,4.7309,4.7309,4.7309,4.7309,4.7309,4.7309,4.7489,4.7698,4.7698,4.8188,4.8588,4.8188,4.8098,4.8188,4.8588,4.8876,4.9164,4.9553,4.9864,4.9984,4.9703,4.9643,4.9678,4.9747,4.9182,4.8988,4.9766,4.9992,5.0038,4.9936,5.1261,5.226,5.2403,5.2364,5.2597,5.3281,5.3529,5.3566,5.3376,5.3972,5.4224,5.3974,5.5275,5.6179,5.6575,5.7663,5.8822,6.0118,5.9762,6.0075,6.0974,6.11,6.1286,6.1541,6.1746,6.2001,6.2239,6.2361,6.2193,6.186,6.186,6.186,6.186,6.186,6.207,6.2391,4.3639,4.3765,4.3966,4.4503,4.5045,4.5246,4.4754,4.5983,4.7013,4.7102,4.7988,4.843,4.7932,4.7866,4.7433,4.6325,4.7308,4.8034,4.8148,4.8513,4.8496,4.7979,4.7794,4.7643,4.7516,4.6966,4.6646,4.6668,4.6807,4.6876,4.6887,4.7106,4.7244,4.7244,4.7244,4.7255,4.7266,4.7266,4.7287,4.7309,4.7309,4.7309,4.7309,4.7309,4.7309,4.7309,4.7309,4.7309,4.7309,4.7309,4.7309,4.7309,4.7309,4.7309,4.7309,4.7309,4.7758,4.8308,4.8308,4.8828,4.9366,4.9366,4.9426,4.9456,4.9396,4.9811,5.0207,5.0267,5.0787,5.0996,5.0387,5.0297,5.0332,5.0514,4.9904,4.9659,5.0363,5.0472,5.0254,4.9646,5.101,5.2041,5.2125,5.223,5.2503,5.2989,5.3529,5.36,5.3071,5.354,5.3631,5.3162,5.4249,5.4861,5.4922,5.5583,5.685,5.8666,5.7816,5.7877,5.8812,5.9068,5.9489,6.0118,6.0598,6.1214,6.1907,6.206,6.1666,6.0986,6.0903,6.0905,6.0971,6.0905,6.1496,6.2384,4.3151,4.3514,4.3966,4.4503,4.4704,4.4905,4.5246,4.5618,4.587,4.5874,4.5686,4.5692,4.6039,4.6067,4.5969,4.5691,4.7103,4.8374,4.926,4.8955,4.8873,4.9286,4.784,4.7236,4.7713,4.7302,4.7162,4.7301,4.6889,4.6657,4.6657,4.6712,4.6763,4.6763,4.6763,4.6833,4.6997,4.6997,4.7106,4.7309,4.7309,4.7309,4.7309,4.7309,4.7309,4.7309,4.7309,4.7309,4.7309,4.7309,4.7309,4.7309,4.7309,4.7309,4.7309,4.7309,4.7758,4.8308,4.8308,4.9123,5.0009,5.0009,5.041,5.0649,5.0129,5.0117,5.0357,5.0877,5.1086,5.1158,5.0996,5.0996,5.1006,5.1035,5.0465,5.0078,5.0242,5.0264,5.005,4.9427,5.0585,5.1198,5.0698,5.1614,5.2274,5.2389,5.2972,5.3381,5.3483,5.3393,5.3621,5.4249,5.4313,5.4592,5.5145,5.5295,5.6164,5.7711,5.75,5.7877,5.8801,5.8857,5.8969,5.9114,5.9225,5.9914,6.086,6.0161,6.0333,6.0924,6.0172,6.0228,6.0629,6.0109,6.0811,6.2126,4.4131,4.4432,4.4769,4.5332,4.5407,4.5508,4.5824,4.5874,4.5874,4.5874,4.5623,4.5432,4.5472,4.5512,4.5386,4.5104,4.6364,4.7692,4.8852,4.9133,4.9362,4.9698,4.8728,4.806,4.7805,4.7288,4.7053,4.7167,4.6981,4.6902,4.6902,4.6973,4.6893,4.6609,4.6609,4.6646,4.6756,4.6756,4.6887,4.7106,4.7106,4.7201,4.7309,4.7309,4.7309,4.7309,4.7309,4.7309,4.7369,4.7668,4.7799,4.7818,4.8158,4.8248,4.8248,4.8248,4.8716,4.9213,4.9213,4.9931,5.0697,5.0697,5.1187,5.1487,5.0817,5.0697,5.0877,5.1546,5.1427,5.1307,5.1606,5.1427,5.1307,5.1636,5.1116,5.0787,5.1116,5.0877,5.0559,5.0242,5.0799,5.1176,5.1146,5.2354,5.3144,5.3144,5.3785,5.4086,5.3909,5.4056,5.4236,5.4389,5.4583,5.485,5.5192,5.5192,5.5588,5.6354,5.6354,5.6602,5.7075,5.7236,5.7453,5.7749,5.8016,5.8677,5.9544,5.9301,5.9301,5.9434,5.9067,5.9155,5.9452,5.9432,6.0221,6.137,4.5246,4.5437,4.5623,4.61,4.625,4.6286,4.6286,4.6286,4.6286,4.6286,4.621,4.6024,4.5688,4.5547,4.5385,4.5056,4.5822,4.6802,4.8002,4.8863,4.9351,4.9411,4.9206,4.8747,4.799,4.7216,4.6807,4.6789,4.7025,4.7128,4.7139,4.7421,4.7218,4.6634,4.6634,4.6598,4.6524,4.6524,4.6646,4.6855,4.6855,4.6975,4.719,4.7353,4.7334,4.7274,4.7538,4.7638,4.7728,4.8278,4.8457,4.8558,4.9127,4.9288,4.9288,4.9288,4.9733,5.0207,5.0207,5.0787,5.1367,5.1367,5.1876,5.2217,5.1666,5.1546,5.1696,5.2247,5.1947,5.1696,5.2276,5.1917,5.1726,5.2276,5.1917,5.1726,5.2276,5.1887,5.1546,5.1546,5.1546,5.1756,5.2306,5.3473,5.4209,5.4209,5.482,5.497,5.4389,5.491,5.494,5.4401,5.491,5.5192,5.5192,5.5192,5.5251,5.5371,5.5371,5.5371,5.5384,5.5611,5.6001,5.6555,5.6985,5.7559,5.8168,5.8483,5.8243,5.7754,5.8001,5.8044,5.8161,5.9054,5.9732,6.0241,4.4704,4.5146,4.5537,4.5612,4.5999,4.6286,4.6286,4.6286,4.6286,4.6286,4.5899,4.5748,4.615,4.5773,4.5834,4.6694,4.6484,4.6774,4.7933,4.7636,4.7634,4.8217,4.7167,4.7239,4.8632,4.7506,4.6869,4.6789,4.6835,4.6835,4.6876,4.7486,4.741,4.6776,4.6776,4.6582,4.6258,4.6258,4.6403,4.6624,4.6624,4.6646,4.679,4.7533,4.7451,4.7134,4.854,4.9048,4.9048,4.9127,4.9168,4.9168,4.9258,4.9288,4.9288,4.9288,4.9733,5.0207,5.0207,5.1116,5.2067,5.2067,5.2576,5.3037,5.2947,5.2917,5.2959,5.3037,5.2977,5.2947,5.3037,5.2977,5.2947,5.3037,5.2977,5.2947,5.3037,5.2977,5.2917,5.2917,5.2917,5.2989,5.3049,5.3743,5.4209,5.4209,5.482,5.5162,5.5059,5.5162,5.5162,5.5072,5.5162,5.5192,5.5192,5.5192,5.5491,5.6072,5.6072,5.6072,5.6072,5.6111,5.6158,5.626,5.6336,5.6682,5.7146,5.6378,5.6633,5.7445,5.7492,5.7512,5.7709,5.9437,5.9408,5.8723,4.5558,4.5759,4.605,4.6336,4.6336,4.6486,4.7089,4.6687,4.6411,4.6712,4.6261,4.605,4.6261,4.61,4.6259,4.703,4.6604,4.6785,4.7991,4.7769,4.7904,4.8543,4.8322,4.8039,4.7812,4.8226,4.8113,4.7401,4.7377,4.7161,4.6818,4.7491,4.7433,4.683,4.719,4.7259,4.7101,4.7101,4.7238,4.7426,4.7426,4.7535,4.77,4.8079,4.8133,4.8142,4.8977,4.9288,4.9348,4.9673,4.9781,4.9871,5.0242,5.0361,5.0361,5.0361,5.0559,5.0847,5.1217,5.1756,5.2276,5.2677,5.3264,5.3743,5.3743,5.4054,5.4204,5.3845,5.3456,5.3306,5.3683,5.3456,5.3306,5.3683,5.3456,5.3336,5.3713,5.3426,5.3198,5.3198,5.3545,5.3743,5.3743,5.47,5.5311,5.5311,5.5581,5.576,5.576,5.5401,5.5192,5.5192,5.5551,5.576,5.576,5.609,5.6419,5.6688,5.6688,5.6688,5.6688,5.6688,5.6688,5.6688,5.6342,5.6314,5.6509,5.5851,5.5998,5.6677,5.7217,5.7707,5.8275,5.9092,5.9051,5.8667]},{"header":{"parameterUnit":"m.s-1","parameterCategory":1,"la1":30.6,"la2":28.766,"lo1":-90.7593,"lo2":-88.6598,"dy":0.0162,"dx":0.0183,"nx":116,"ny":114,"refTime":"2023-03-13T00:00:00:Z","depth":0,"parameterNumber":3,"parameterNumberName":"V-component_of_WINDS"},"data":[0.0,0.0,0.0,0.0,0.0,0.0,0.0,0.0,0.0,0.0,0.0,0.0,0.0,0.0,0.0,0.0,0.0,0.0,0.0,0.0,0.0,0.0,0.0,0.0,0.0,0.0,0.0,0.0,0.0,0.0,0.0,0.0,0.0,0.0,0.0,0.0,0.0,0.0,0.0,0.0,0.0,0.0,0.0,0.0,0.0,0.0,0.0,0.0,0.0,0.0,0.0,0.0,0.0,0.0,0.0,0.0,0.0,0.0,0.0,0.0,0.0,0.0,0.0,0.0,0.0,0.0,0.0,0.0,0.0,0.0,0.0,0.0,0.0,0.0,0.0,0.0,0.0,0.0,0.0,0.0,0.0,0.0,0.0,0.0,0.0,0.0,0.0,0.0,0.0,0.0,0.0,0.0,0.0,0.0,0.0,0.0,0.0,0.0,0.0,0.0,0.0,0.0,0.0,0.0,0.0,0.0,0.0,0.0,0.0,0.0,0.0,0.0,0.0,0.0,0.0,0.0,0.0,0.0,0.0,0.0,0.0,0.0,0.0,0.0,0.0,0.0,0.0,0.0,0.0,0.0,0.0,0.0,0.0,0.0,0.0,0.0,0.0,0.0,0.0,0.0,0.0,0.0,0.0,0.0,0.0,0.0,0.0,0.0,0.0,0.0,0.0,0.0,0.0,0.0,0.0,0.0,0.0,0.0,0.0,0.0,0.0,0.0,0.0,0.0,0.0,0.0,0.0,0.0,0.0,0.0,0.0,0.0,0.0,0.0,0.0,0.0,0.0,0.0,0.0,0.0,0.0,0.0,0.0,0.0,0.0,0.0,0.0,0.0,0.0,0.0,0.0,0.0,0.0,0.0,0.0,0.0,0.0,0.0,0.0,0.0,0.0,0.0,0.0,0.0,0.0,0.0,0.0,0.0,0.0,0.0,0.0,0.0,0.0,0.0,0.0,0.0,0.0,0.0,0.0,0.0,0.0,0.0,0.0,0.0,0.0,0.0,0.0,0.0,0.0,0.0,0.0,0.0,0.0,0.0,0.0,0.0,0.0,0.0,0.0,0.0,0.0,0.0,0.0,0.0,0.0,0.0,0.0,0.0,0.0,0.0,0.0,0.0,0.0,0.0,0.0,0.0,0.0,0.0,0.0,0.0,0.0,0.0,0.0,0.0,0.0,0.0,0.0,0.0,0.0,0.0,0.0,0.0,0.0,0.0,0.0,0.0,0.0,0.0,0.0,0.0,0.0,0.0,0.0,0.0,0.0,0.0,0.0,0.0,0.0,0.0,0.0,0.0,0.0,0.0,0.0,0.0,0.0,0.0,0.0,0.0,0.0,0.0,0.0,0.0,0.0,0.0,0.0,0.0,0.0,0.0,0.0,0.0,0.0,0.0,0.0,0.0,0.0,0.0,0.0,0.0,0.0,0.0,0.0,0.0,0.0,0.0,0.0,0.0,0.0,0.0,0.0,0.0,0.0,0.0,0.0,0.0,0.0,0.0,0.0,0.0,0.0,0.0,0.0,0.0,0.0,0.0,0.0,0.0,0.0,0.0,0.0,0.0,0.0,0.0,0.0,0.0,0.0,0.0,0.0,0.0,0.0,0.0,0.0,0.0,0.0,0.0,0.0,0.0,0.0,0.0,0.0,0.0,0.0,0.0,0.0,0.0,0.0,0.0,0.0,0.0,0.0,0.0,0.0,0.0,0.0,0.0,0.0,0.0,0.0,0.0,0.0,0.0,0.0,0.0,0.0,0.0,0.0,0.0,0.0,0.0,0.0,0.0,0.0,0.0,0.0,0.0,0.0,0.0,0.0,0.0,0.0,0.0,0.0,0.0,0.0,0.0,0.0,0.0,0.0,0.0,0.0,0.0,0.0,0.0,0.0,0.0,0.0,0.0,0.0,0.0,0.0,0.0,0.0,0.0,0.0,0.0,0.0,0.0,0.0,0.0,0.0,0.0,0.0,0.0,0.0,0.0,0.0,0.0,0.0,0.0,0.0,0.0,0.0,0.0,0.0,0.0,0.0,0.0,0.0,0.0,0.0,0.0,0.0,0.0,0.0,0.0,0.0,0.0,0.0,0.0,0.0,0.0,0.0,0.0,0.0,0.0,0.0,0.0,0.0,0.0,0.0,0.0,0.0,0.0,0.0,0.0,0.0,0.0,0.0,0.0,0.0,0.0,0.0,0.0,0.0,0.0,0.0,0.0,0.0,0.0,0.0,0.0,0.0,0.0,0.0,0.0,0.0,0.0,0.0,0.0,0.0,0.0,0.0,0.0,0.0,0.0,0.0,0.0,0.0,0.0,0.0,0.0,0.0,0.0,0.0,0.0,0.0,0.0,0.0,0.0,0.0,0.0,0.0,0.0,0.0,0.0,0.0,0.0,0.0,0.0,0.0,0.0,0.0,0.0,0.0,0.0,0.0,0.0,0.0,0.0,0.0,0.0,0.0,0.0,0.0,0.0,0.0,0.0,0.0,0.0,0.0,0.0,0.0,0.0,0.0,0.0,0.0,0.0,0.0,0.0,0.0,0.0,0.0,0.0,0.0,0.0,0.0,0.0,0.0,0.0,0.0,0.0,0.0,0.0,0.0,0.0,0.0,0.0,0.0,0.0,0.0,0.0,0.0,0.0,0.0,0.0,0.0,0.0,0.0,0.0,0.0,0.0,0.0,0.0,0.0,0.0,0.0,0.0,0.0,0.0,0.0,0.0,0.0,0.0,0.0,0.0,0.0,0.0,0.0,0.0,0.0,0.0,0.0,0.0,0.0,0.0,0.0,0.0,0.0,0.0,0.0,0.0,0.0,0.0,0.0,0.0,0.0,0.0,0.0,0.0,0.0,0.0,0.0,0.0,0.0,0.0,0.0,0.0,0.0,0.0,0.0,0.0,0.0,0.0,0.0,0.0,0.0,0.0,0.0,0.0,0.0,0.0,0.0,0.0,0.0,0.0,0.0,0.0,0.0,0.0,0.0,0.0,0.0,0.0,0.0,0.0,0.0,0.0,0.0,0.0,0.0,0.0,0.0,0.0,0.0,0.0,0.0,0.0,0.0,0.0,0.0,0.0,0.0,0.0,0.0,0.0,0.0,0.0,0.0,0.0,0.0,0.0,0.0,0.0,0.0,0.0,0.0,0.0,0.0,0.0,0.0,0.0,0.0,0.0,0.0,0.0,0.0,0.0,0.0,0.0,0.0,0.0,0.0,0.0,0.0,0.0,0.0,0.0,0.0,0.0,0.0,0.0,0.0,0.0,0.0,0.0,0.0,0.0,0.0,0.0,0.0,0.0,0.0,0.0,0.0,0.0,0.0,0.0,0.0,0.0,0.0,0.0,0.0,0.0,0.0,0.0,0.0,0.0,0.0,0.0,0.0,0.0,0.0,0.0,0.0,0.0,0.0,0.0,0.0,0.0,0.0,0.0,0.0,0.0,0.0,0.0,0.0,0.0,0.0,0.0,0.0,0.0,0.0,0.0,0.0,0.0,0.0,0.0,0.0,0.0,0.0,0.0,0.0,0.0,0.0,0.0,0.0,0.0,0.0,0.0,0.0,0.0,0.0,0.0,0.0,0.0,0.0,0.0,0.0,0.0,0.0,0.0,0.0,0.0,0.0,0.0,0.0,0.0,0.0,0.0,0.0,0.0,0.0,0.0,0.0,0.0,0.0,0.0,0.0,0.0,0.0,0.0,0.0,0.0,0.0,0.0,0.0,0.0,0.0,0.0,0.0,0.0,0.0,0.0,0.0,0.0,0.0,0.0,0.0,0.0,0.0,0.0,0.0,0.0,0.0,0.0,0.0,0.0,0.0,0.0,0.0,0.0,0.0,0.0,0.0,0.0,0.0,0.0,0.0,0.0,0.0,0.0,0.0,0.0,0.0,0.0,0.0,0.0,0.0,0.0,0.0,0.0,0.0,0.0,0.0,0.0,0.0,0.0,0.0,0.0,0.0,0.0,0.0,0.0,0.0,0.0,0.0,0.0,0.0,0.0,0.0,0.0,0.0,0.0,0.0,0.0,0.0,0.0,0.0,0.0,0.0,0.0,0.0,0.0,0.0,0.0,0.0,0.0,0.0,0.0,0.0,0.0,0.0,0.0,0.0,0.0,0.0,0.0,0.0,0.0,0.0,0.0,0.0,0.0,0.0,0.0,0.0,0.0,0.0,0.0,0.0,0.0,0.0,0.0,0.0,0.0,0.0,0.0,0.0,0.0,0.0,0.0,0.0,0.0,0.0,0.0,0.0,0.0,0.0,0.0,0.0,0.0,0.0,0.0,0.0,0.0,0.0,0.0,0.0,0.0,0.0,0.0,0.0,0.0,0.0,0.0,0.0,0.0,0.0,0.0,0.0,0.0,0.0,0.0,0.0,0.0,0.0,0.0,0.0,0.0,0.0,0.0,0.0,0.0,0.0,0.0,0.0,0.0,0.0,0.0,0.0,0.0,0.0,0.0,0.0,0.0,0.0,0.0,0.0,0.0,0.0,0.0,0.0,0.0,0.0,0.0,0.0,0.0,0.0,0.0,0.0,0.0,0.0,0.0,0.0,0.0,0.0,0.0,0.0,0.0,0.0,0.0,0.0,0.0,0.0,0.0,0.0,0.0,0.0,0.0,0.0,0.0,0.0,0.0,0.0,0.0,0.0,0.0,0.0,0.0,0.0,0.0,0.0,0.0,0.0,0.0,0.0,0.0,0.0,0.0,0.0,0.0,0.0,0.0,0.0,0.0,0.0,0.0,0.0,0.0,0.0,0.0,0.0,0.0,0.0,0.0,0.0,0.0,0.0,0.0,0.0,0.0,0.0,0.0,0.0,0.0,0.0,0.0,0.0,0.0,0.0,0.0,0.0,0.0,0.0,0.0,0.0,0.0,0.0,0.0,0.0,0.0,0.0,0.0,0.0,0.0,0.0,0.0,0.0,0.0,0.0,0.0,0.0,0.0,0.0,0.0,0.0,0.0,0.0,0.0,0.0,0.0,0.0,0.0,0.0,0.0,0.0,0.0,0.0,0.0,0.0,0.0,0.0,0.0,0.0,0.0,0.0,0.0,0.0,0.0,0.0,0.0,0.0,0.0,0.0,0.0,0.0,0.0,0.0,0.0,0.0,0.0,0.0,0.0,0.0,0.0,0.0,0.0,0.0,0.0,0.0,0.0,0.0,0.0,0.0,0.0,0.0,0.0,0.0,0.0,0.0,0.0,0.0,0.0,0.0,0.0,0.0,0.0,0.0,0.0,0.0,0.0,0.0,0.0,0.0,0.0,0.0,0.0,0.0,0.0,0.0,0.0,0.0,0.0,0.0,0.0,0.0,0.0,0.0,0.0,0.0,0.0,0.0,0.0,0.0,0.0,0.0,0.0,0.0,0.0,0.0,0.0,0.0,0.0,0.0,0.0,0.0,0.0,0.0,0.0,0.0,0.0,0.0,0.0,0.0,0.0,0.0,0.0,0.0,0.0,0.0,0.0,0.0,0.0,0.0,0.0,0.0,0.0,0.0,0.0,0.0,0.0,0.0,0.0,0.0,0.0,0.0,0.0,0.0,0.0,0.0,0.0,0.0,0.0,0.0,0.0,0.0,0.0,0.0,0.0,0.0,0.0,0.0,0.0,0.0,0.0,0.0,0.0,0.0,0.0,0.0,0.0,0.0,0.0,0.0,0.0,0.0,0.0,0.0,0.0,0.0,0.0,0.0,0.0,0.0,0.0,0.0,0.0,0.0,0.0,0.0,0.0,0.0,0.0,0.0,0.0,0.0,0.0,0.0,0.0,0.0,0.0,0.0,0.0,0.0,0.0,0.0,0.0,0.0,0.0,0.0,0.0,0.0,0.0,0.0,0.0,0.0,0.0,0.0,0.0,0.0,0.0,0.0,0.0,0.0,0.0,0.0,0.0,0.0,0.0,0.0,0.0,0.0,0.0,0.0,0.0,0.0,0.0,0.0,0.0,0.0,0.0,0.0,0.0,0.0,0.0,0.0,0.0,0.0,0.0,0.0,0.0,0.0,0.0,0.0,0.0,0.0,0.0,0.0,0.0,0.0,0.0,0.0,0.0,0.0,0.0,0.0,0.0,0.0,0.0,0.0,0.0,0.0,0.0,0.0,0.0,0.0,0.0,0.0,0.0,1.3384,0.0,0.0,0.0,0.0,0.0,0.0,0.0,0.0,0.0,0.0,0.0,0.0,0.0,0.0,0.0,0.0,0.0,0.0,0.0,0.0,0.0,0.0,0.0,0.0,0.0,0.0,0.0,0.0,0.0,0.0,0.0,0.0,0.0,0.0,0.0,0.0,0.0,0.0,0.0,1.4777,1.4855,1.518,1.5566,1.5283,1.4426,0.0,0.0,0.0,0.0,0.0,0.0,0.0,0.0,0.0,0.0,0.0,0.0,0.0,0.0,0.0,0.0,0.0,0.0,0.0,0.0,0.0,0.0,0.0,0.0,0.0,0.0,0.0,0.0,0.0,0.0,0.0,0.0,0.0,0.0,0.0,0.0,0.0,0.0,0.0,0.0,0.0,0.0,0.0,0.0,0.0,0.0,0.0,0.0,0.0,0.0,0.0,0.0,0.0,0.0,0.0,0.0,0.0,0.0,0.0,0.0,0.0,0.0,0.0,0.0,0.0,0.0,0.0,0.0,0.0,0.0,0.0,1.4253,0.0,0.0,0.0,0.0,0.0,0.0,0.0,0.0,0.0,0.0,0.0,0.0,0.0,0.0,0.0,0.0,0.0,0.0,0.0,0.0,0.0,0.0,0.0,0.0,0.0,0.0,0.0,0.0,0.0,0.0,0.0,0.0,0.0,0.0,0.0,0.0,0.0,0.0,1.5232,1.5711,1.6702,1.7163,1.6641,1.5322,1.548,0.0,0.0,0.0,0.0,0.0,0.0,0.0,0.0,0.0,0.0,0.0,0.0,0.0,0.0,0.0,0.0,0.0,0.0,0.0,0.0,0.0,0.0,0.0,0.0,0.0,0.0,0.0,0.0,0.0,0.0,0.0,0.0,0.0,0.0,0.0,0.0,0.0,0.0,0.0,0.0,0.0,0.0,0.0,0.0,0.0,0.0,0.0,0.0,0.0,0.0,0.0,0.0,0.0,0.0,0.0,0.0,0.0,0.0,0.0,0.0,0.0,0.0,0.0,1.7887,1.8062,1.8396,1.8396,1.8367,1.8235,1.6908,1.568,1.4716,0.0,0.0,0.0,0.0,0.0,0.0,0.0,0.0,0.0,0.0,0.0,0.0,0.0,0.0,0.0,0.0,0.0,0.0,0.0,0.0,0.0,0.0,0.0,0.0,0.0,0.0,0.0,0.0,0.0,0.0,0.0,0.0,0.0,0.0,1.5642,1.5668,1.572,1.6663,1.7537,1.8305,1.9003,1.9599,2.0002,1.7882,1.7899,1.9478,0.0,0.0,0.0,0.0,0.0,0.0,0.0,0.0,0.0,0.0,0.0,0.0,0.0,0.0,0.0,0.0,0.0,0.0,0.0,0.0,0.0,0.0,0.0,0.0,0.0,0.0,0.0,0.0,0.0,0.0,0.0,0.0,0.0,0.0,0.0,0.0,0.0,0.0,0.0,0.0,0.0,1.3102,1.3184,0.0,0.0,0.0,0.0,0.0,0.0,0.0,0.0,0.0,0.0,0.0,0.0,0.0,0.0,1.8831,1.9237,1.9695,2.0254,2.0254,2.0429,2.075,2.075,2.0589,2.0312,2.0093,0.0,1.7282,1.6865,0.0,0.0,0.0,0.0,0.0,0.0,0.0,0.0,0.0,0.0,0.0,0.0,0.0,0.0,0.0,0.0,0.0,0.0,0.0,0.0,0.0,0.0,0.0,0.0,0.0,0.0,0.0,0.0,0.0,0.0,0.0,0.0,1.5805,1.5805,1.6114,1.6766,1.8727,2.0135,2.098,2.1753,2.2888,2.4256,2.2653,2.1399,2.0504,1.9975,0.0,0.0,0.0,0.0,0.0,0.0,0.0,0.0,0.0,0.0,0.0,0.0,0.0,0.0,0.0,0.0,0.0,0.0,0.0,0.0,0.0,0.0,0.0,0.0,0.0,0.0,0.0,0.0,0.0,0.0,0.0,0.0,0.0,0.0,0.0,0.0,0.0,0.0,0.0,1.4223,1.435,1.435,1.4901,1.5287,0.0,0.0,0.0,0.0,0.0,0.0,0.0,0.0,0.0,1.8226,1.882,1.945,2.0077,2.0603,2.1174,2.1774,2.1774,2.2037,2.255,2.255,2.2476,2.233,2.2535,2.1818,2.037,1.867,1.7862,1.7615,0.0,0.0,0.0,0.0,0.0,1.7469,0.0,0.0,0.0,0.0,0.0,0.0,0.0,0.0,0.0,0.0,0.0,0.0,0.0,0.0,0.0,1.7183,0.0,0.0,0.0,0.0,0.0,0.0,0.0,1.6052,1.6165,1.6495,1.7229,1.837,2.1044,2.2798,2.3693,2.4747,2.6116,2.7678,2.6921,2.504,2.2413,2.177,2.1116,2.0442,0.0,0.0,0.0,0.0,0.0,0.0,0.0,0.0,0.0,0.0,0.0,0.0,0.0,0.0,0.0,0.0,0.0,0.0,0.0,0.0,0.0,0.0,0.0,0.0,0.0,0.0,0.0,0.0,0.0,0.0,0.0,0.0,0.0,0.0,0.0,0.0,0.0,1.497,1.5334,1.5193,1.5812,1.6162,0.0,0.0,0.0,0.0,0.0,0.0,1.765,1.8321,1.9065,1.9898,2.0502,2.1087,2.1686,2.2287,2.2828,2.3337,2.3337,2.3646,2.4218,2.4218,2.4174,2.4101,2.4349,2.3954,2.293,2.053,1.9286,1.8849,1.8191,1.7974,1.805,1.8247,1.8569,1.895,0.0,0.0,0.0,0.0,0.0,0.0,0.0,0.0,0.0,0.0,0.0,0.0,0.0,0.0,1.84,1.9528,1.9536,1.9877,0.0,0.0,0.0,0.0,1.7372,1.674,1.7126,1.8375,1.9594,2.0726,2.3539,2.5303,2.6059,2.7762,2.9055,2.9914,2.943,2.8386,2.6801,2.4187,2.305,2.2864,2.1059,0.0,0.0,0.0,0.0,0.0,0.0,0.0,0.0,0.0,0.0,0.0,0.0,0.0,0.0,0.0,0.0,0.0,0.0,0.0,0.0,0.0,0.0,0.0,0.0,0.0,0.0,0.0,0.0,0.0,0.0,0.0,0.0,0.0,0.0,0.0,0.0,0.0,0.0,1.4609,1.6129,0.0,0.0,0.0,0.0,1.7247,1.8103,1.867,1.8728,1.9356,2.0294,2.154,2.2169,2.3106,2.4397,2.4749,2.5069,2.5354,2.5354,2.5547,2.5883,2.5883,2.5708,2.5415,2.5412,2.5081,2.4353,2.2374,2.1174,2.0531,1.99,1.9828,2.0035,1.9783,2.0075,2.0546,0.0,0.0,0.0,0.0,0.0,0.0,0.0,0.0,0.0,0.0,0.0,0.0,0.0,2.0178,2.1357,2.2828,2.3005,2.2815,2.2255,0.0,0.0,0.0,1.8521,1.8171,1.9493,2.0628,2.2127,2.406,2.6606,2.8445,2.9573,3.0757,3.1639,3.2215,3.2052,3.1223,2.973,2.6685,2.4871,2.3846,2.1716,2.1135,0.0,0.0,0.0,0.0,0.0,0.0,0.0,0.0,0.0,0.0,0.0,0.0,0.0,0.0,0.0,0.0,0.0,0.0,0.0,0.0,0.0,0.0,0.0,0.0,0.0,0.0,0.0,0.0,0.0,0.0,0.0,0.0,0.0,0.0,0.0,0.0,0.0,1.7832,1.8645,0.0,1.8705,1.8528,1.8645,1.9129,1.9697,2.037,2.1204,2.2096,2.296,2.3869,2.4481,2.5123,2.583,2.6152,2.6474,2.6778,2.6574,2.6647,2.6939,2.6515,2.6266,2.6132,2.5912,2.5576,2.514,2.4435,2.3397,2.2183,2.1584,2.1408,2.1496,2.1569,2.173,2.1949,0.0,0.0,0.0,0.0,0.0,0.0,0.0,0.0,0.0,0.0,0.0,1.838,2.0521,2.2391,2.4126,2.5742,2.5549,2.4926,2.3974,0.0,0.0,0.0,2.0035,2.0159,2.1605,2.326,2.5152,2.7278,2.9583,3.1255,3.2301,3.3181,3.3688,3.3874,3.3874,3.3128,3.1692,2.9394,2.7262,2.5264,2.3288,2.2946,2.3422,0.0,0.0,0.0,0.0,0.0,0.0,0.0,0.0,0.0,0.0,0.0,0.0,0.0,0.0,0.0,0.0,0.0,0.0,0.0,0.0,0.0,0.0,0.0,0.0,0.0,0.0,0.0,0.0,0.0,0.0,0.0,0.0,0.0,0.0,0.0,1.8981,1.9988,2.0736,2.1087,2.0882,2.0501,2.0516,2.1131,2.1598,2.2256,2.3223,2.4101,2.4893,2.5554,2.6061,2.6541,2.6965,2.7184,2.7422,2.7642,2.7525,2.7539,2.7627,2.7287,2.7082,2.695,2.6647,2.6325,2.6,2.5883,2.5137,2.4013,2.3297,2.2931,2.2872,2.3164,2.3265,2.331,0.0,0.0,0.0,0.0,0.0,0.0,0.0,0.0,0.0,0.0,1.8024,1.9493,2.1041,2.4037,2.6587,2.8183,2.6966,2.6051,2.5944,2.336,0.0,2.1178,2.1899,2.2686,2.3494,2.6276,2.858,3.0352,3.2415,3.3649,3.4118,3.5066,3.5252,3.4863,3.4884,3.4108,3.276,3.2312,3.0354,2.7401,2.5884,2.5533,2.5732,0.0,0.0,0.0,0.0,0.0,0.0,0.0,0.0,0.0,0.0,0.0,0.0,0.0,0.0,0.0,0.0,0.0,0.0,0.0,0.0,0.0,0.0,0.0,0.0,0.0,0.0,0.0,0.0,0.0,0.0,0.0,0.0,0.0,1.7478,1.9085,2.0429,2.0809,2.2242,2.2974,2.2389,2.2857,2.3192,2.3208,2.3824,2.4337,2.4675,2.524,2.5883,2.653,2.6866,2.7316,2.7907,2.7941,2.7922,2.7941,2.8262,2.8247,2.7936,2.8262,2.8233,2.7926,2.7642,2.7338,2.6998,2.6676,2.6339,2.5912,2.501,2.4456,2.4205,2.4543,2.4661,2.4661,0.0,0.0,0.0,0.0,0.0,0.0,0.0,0.0,0.0,0.0,1.9433,2.1794,2.3591,2.6946,2.9573,3.0833,2.9367,2.7959,2.6984,0.0,0.0,2.2604,2.3936,2.5762,2.8114,2.946,3.14,3.3969,3.5223,3.607,3.6557,3.7146,3.7028,3.6266,3.6613,3.5976,3.4663,3.4885,3.4113,3.2396,2.8342,2.6602,2.622,0.0,0.0,0.0,0.0,0.0,0.0,0.0,0.0,0.0,0.0,0.0,0.0,0.0,0.0,0.0,0.0,0.0,0.0,0.0,0.0,0.0,0.0,0.0,0.0,0.0,0.0,0.0,0.0,0.0,0.0,0.0,0.0,1.9713,2.0077,2.1379,2.2768,2.4024,2.4991,2.5505,2.533,2.5257,2.5298,2.5549,2.5959,2.6357,2.6679,2.7038,2.7327,2.7517,2.7838,2.8087,2.8262,2.8501,2.8637,2.8637,2.8725,2.871,2.8622,2.8471,2.8486,2.8593,2.8033,2.7736,2.7648,2.7546,2.7067,2.6307,2.5813,2.5564,2.552,2.5857,2.5974,2.59,0.0,0.0,0.0,0.0,0.0,0.0,0.0,0.0,0.0,0.0,2.0775,2.3568,2.5055,2.8537,3.0942,3.1409,2.9774,2.8057,2.6528,0.0,2.337,2.4001,2.6218,2.8518,3.0775,3.2389,3.4308,3.6577,3.7285,3.7885,3.834,3.8626,3.834,3.7657,3.7926,3.7388,3.6292,3.6577,3.6266,3.5386,3.2244,3.0497,2.9482,2.7067,2.6404,2.657,2.5233,2.4728,2.4431,2.2763,0.0,0.0,0.0,0.0,0.0,0.0,0.0,0.0,0.0,0.0,0.0,0.0,0.0,0.0,0.0,0.0,0.0,0.0,0.0,0.0,0.0,0.0,0.0,0.0,2.1072,2.2246,2.3459,2.3808,2.4481,2.5941,2.6603,2.6969,2.7082,2.6822,2.6764,2.7067,2.7159,2.7335,2.7656,2.7941,2.8116,2.8116,2.8423,2.8603,2.8603,2.8798,2.8905,2.8905,2.9052,2.9037,2.8905,2.8837,2.8856,0.0,2.8486,2.8325,2.8325,2.8325,2.7842,0.0,0.0,0.0,0.0,0.0,2.6383,2.6409,0.0,0.0,0.0,0.0,0.0,0.0,0.0,0.0,0.0,0.0,0.0,2.4723,2.5544,2.8996,3.1063,3.0649,2.8905,2.7105,0.0,0.0,2.4685,2.577,2.8814,3.1098,3.2498,3.5092,3.7078,3.8498,3.8857,3.9275,3.973,3.9792,3.9544,3.9047,3.9151,3.8713,3.7897,3.7922,3.7695,3.7218,3.6685,3.5562,3.3853,3.0822,3.0139,3.0525,2.8657,2.7273,2.6092,2.4276,0.0,0.0,0.0,0.0,0.0,0.0,0.0,0.0,0.0,0.0,0.0,0.0,0.0,0.0,0.0,0.0,0.0,0.0,0.0,0.0,0.0,0.0,0.0,0.0,2.3627,2.5009,2.701,2.6311,2.5994,2.7071,2.7514,2.7788,2.7999,2.7832,2.7788,2.7999,2.7803,2.7759,2.7999,0.0,0.0,0.0,0.0,2.8905,2.8905,2.8905,2.8905,2.89,2.9198,2.9183,2.892,2.9213,2.9227,2.9022,2.8978,2.8993,2.9022,2.9022,2.8622,2.7955,2.7305,2.672,2.6219,2.6175,2.6369,0.0,0.0,0.0,0.0,0.0,0.0,0.0,0.0,0.0,0.0,1.8541,2.2078,2.4522,2.4582,2.7991,3.0222,3.0139,2.8467,2.6954,0.0,2.596,2.7141,2.9518,3.1995,3.4108,3.5837,3.7455,3.8982,4.0382,4.0465,4.0735,4.119,4.1584,4.1314,4.0527,4.1273,4.1107,4.0258,4.0649,4.0527,4.003,3.9189,3.7161,3.4475,3.2712,3.1733,3.1022,2.9133,2.875,2.8847,2.7102,2.6216,2.5698,2.4734,2.2597,0.0,0.0,0.0,0.0,0.0,0.0,0.0,0.0,0.0,0.0,0.0,0.0,0.0,0.0,0.0,0.0,0.0,0.0,0.0,2.4903,2.5482,2.6463,2.8848,2.8832,2.8554,2.8539,2.8832,2.8949,2.8725,2.8905,2.8949,2.8725,2.8651,2.8637,2.871,2.8769,0.0,2.8798,2.8856,2.8905,2.8905,2.8905,2.8905,2.8905,0.0,0.0,2.89,2.8978,2.9257,2.9681,2.9418,2.9447,2.9716,2.9716,2.9315,2.8622,2.7748,2.7466,2.7502,2.7291,2.725,2.7221,0.0,0.0,0.0,0.0,0.0,0.0,0.0,0.0,0.0,0.0,2.1649,2.3907,2.4081,2.6622,2.8007,2.7312,2.6238,0.0,2.6551,2.7886,2.9875,3.2631,3.4931,3.6779,3.8133,3.9499,4.0551,4.125,4.1498,4.1726,4.1954,4.2182,4.2058,4.1622,4.2078,4.2037,4.1622,4.185,4.1809,4.154,4.082,3.9616,3.7955,3.5625,3.4471,3.3886,3.2285,3.153,3.1058,2.9361,2.8009,2.6914,2.6406,2.4251,2.1925,0.0,0.0,0.0,0.0,0.0,0.0,0.0,0.0,0.0,0.0,0.0,0.0,0.0,0.0,2.2506,0.0,0.0,2.5483,2.709,2.777,2.8559,2.9856,2.9813,2.9599,2.9418,2.9549,2.9579,2.9418,2.9403,2.933,2.9169,2.8988,2.8959,2.9139,2.9154,2.9154,2.9154,2.9315,2.9242,2.89,2.9066,2.9066,2.8905,2.8905,2.8905,2.8905,2.8905,2.9081,2.9403,2.9564,2.976,2.9892,2.9731,2.9549,2.93,2.833,2.7861,2.7696,2.7696,2.751,2.7236,0.0,0.0,0.0,0.0,0.0,0.0,0.0,0.0,0.0,0.0,2.0875,2.2832,2.3298,2.482,2.5348,0.0,0.0,2.5266,2.7546,2.9821,3.2389,3.5324,3.7463,3.8999,3.9892,4.1107,4.1767,4.1853,4.2244,4.243,4.243,4.2513,4.2513,4.243,4.2513,4.2555,4.2555,4.2555,4.2555,4.2513,4.2039,4.1853,4.1542,3.8667,3.7425,3.6991,3.5454,3.3948,3.2488,3.1086,2.9225,2.7481,2.7484,2.561,2.3423,2.3345,2.2173,0.0,0.0,0.0,0.0,0.0,0.0,0.0,0.0,2.1085,2.1828,2.2415,2.3558,2.4804,2.5898,2.7206,2.8394,2.9106,3.0024,3.0638,3.0626,3.0458,3.025,3.0029,2.995,2.9906,2.9906,2.9672,2.9491,2.9491,2.9242,2.9213,2.9476,2.9452,2.9418,2.9491,2.9623,2.9505,2.911,2.9227,2.9227,2.9095,2.8964,2.8915,2.9008,2.9008,2.9037,2.9139,2.9784,3.0077,3.0047,2.9725,2.9731,2.9798,2.8944,2.8227,2.77,2.7911,2.7623,2.7148,0.0,0.0,0.0,0.0,0.0,0.0,0.0,0.0,0.0,0.0,0.0,0.0,0.0,0.0,0.0,0.0,2.4519,2.6632,2.8918,3.1202,3.4078,3.767,3.9189,4.0409,4.1335,4.1933,4.2391,4.2747,4.2809,4.283,4.283,4.3263,4.3242,4.2851,4.3284,4.3449,4.3449,4.3449,4.3449,4.3428,4.2934,4.2747,4.2582,4.1045,3.9644,3.8286,3.6126,3.4202,3.2601,3.2021,3.001,2.7971,2.917,2.728,2.4479,2.3914,2.2386,2.0657,1.9509,1.9234,1.9549,2.084,2.117,2.1564,0.0,2.3823,2.4388,2.4473,2.5911,2.7314,2.7817,2.9094,3.0311,3.0991,3.1731,3.2047,3.1538,3.1705,3.1484,3.0457,3.0082,2.9906,2.9906,2.9877,2.9828,2.9828,2.9818,2.9804,2.9848,2.9549,2.9535,2.9833,2.93,2.9257,2.9789,2.9227,2.9242,2.9789,2.9183,2.9066,2.9344,2.9344,2.9505,2.9833,3.0437,3.0694,3.0665,3.0399,3.0126,2.9862,2.9447,2.8886,2.8291,2.8335,2.7959,2.7441,0.0,0.0,0.0,0.0,0.0,0.0,0.0,0.0,0.0,0.0,0.0,0.0,0.0,0.0,0.0,2.125,2.3401,2.6031,2.9104,3.2423,3.5919,3.9616,4.1069,4.2085,4.2745,4.2971,4.3139,4.3306,4.3306,4.3306,4.3306,4.3513,4.3492,4.3306,4.3513,4.3596,4.3596,4.3596,4.3596,4.3575,4.3389,4.3141,4.2747,4.1418,3.9702,3.7782,3.5769,3.385,0.0,3.0621,2.9435,2.8592,2.8845,2.7368,2.5368,2.4471,2.2927,2.1348,2.0434,2.0492,2.1023,2.1892,2.274,2.3669,2.4747,2.574,2.6561,2.7039,2.8254,2.9488,3.0309,3.1363,3.205,0.0,3.2383,3.2357,3.1304,3.1125,3.0873,3.0181,2.9818,2.9701,2.9877,2.9906,2.9833,2.9608,2.9804,2.9906,2.9906,2.995,2.9965,2.9906,2.9968,2.9881,2.9608,2.952,2.9608,2.9892,2.9418,2.9359,2.9681,2.9681,2.9877,3.0199,3.0457,3.0656,3.0782,3.0501,3.0199,2.9877,2.952,2.9125,2.8676,2.8676,2.8281,2.7769,0.0,0.0,0.0,0.0,0.0,0.0,0.0,0.0,0.0,0.0,0.0,0.0,0.0,0.0,1.9774,2.0203,2.2241,2.5058,2.869,3.2526,3.6354,4.0158,4.1752,4.2828,4.3389,4.3534,4.3596,4.3596,4.3596,4.3596,4.3596,4.3596,4.3596,4.3596,4.3596,4.3596,4.3596,4.3596,4.3596,4.3596,4.3596,4.3161,4.2393,4.0882,3.8767,3.6365,3.4931,3.2954,3.0804,2.9269,2.8489,2.81,2.7751,2.683,2.5631,2.4358,2.2895,2.1622,2.1297,2.173,2.2501,2.3314,2.4624,2.5928,2.6666,2.7725,2.8734,2.9418,3.0275,3.1199,3.2243,3.2981,3.326,3.2746,3.2998,3.2779,3.1354,3.0856,3.0381,2.9707,2.9257,2.9076,2.931,2.9593,2.9745,2.9687,2.9906,3.0082,3.015,3.0302,3.0317,3.015,3.0407,3.0305,2.9778,2.9857,2.9974,3.015,2.9725,2.9696,3.0038,3.0038,3.0214,3.0501,3.0501,3.0612,3.0767,3.0399,3.0126,2.9862,2.9418,2.9066,2.8769,2.8876,2.853,2.8072,0.0,0.0,0.0,0.0,0.0,0.0,0.0,0.0,0.0,0.0,0.0,0.0,0.0,0.0,1.9305,1.9782,2.1485,2.4074,2.7705,3.0981,3.4601,3.8696,4.0634,4.2039,4.2892,4.3368,4.3596,4.3596,4.3596,4.3596,4.3596,4.3596,4.3596,4.3596,4.3596,4.3596,4.3596,4.3596,4.3596,4.3596,4.3596,4.2807,4.1436,3.9564,3.6913,3.4143,3.3625,3.1402,2.8686,2.8632,2.7367,2.5864,2.6155,2.584,2.4969,2.3189,2.1842,2.1074,2.1794,2.2505,2.3515,2.5349,2.6955,2.8289,2.9042,3.007,3.1011,3.144,3.1799,3.2295,3.3119,3.3563,3.3752,3.3578,3.3892,3.3674,3.2268,3.1564,3.0614,2.9105,2.8354,2.7936,0.0,2.8842,2.9687,3.0317,3.0375,3.0507,3.0753,3.053,3.0501,3.0767,3.0223,3.0194,3.0753,3.0194,3.0194,3.0767,3.0179,3.0053,3.0375,3.0375,3.053,3.0782,3.0782,3.0796,3.0753,3.0164,2.9906,2.9833,2.9183,2.871,2.8452,2.8783,2.8676,2.8335,0.0,0.0,0.0,0.0,0.0,0.0,0.0,0.0,0.0,0.0,0.0,0.0,0.0,0.0,0.0,0.0,2.041,2.2523,2.5894,2.9422,3.2809,3.6013,3.875,4.0347,4.064,4.171,4.2433,4.2723,4.3014,4.3141,4.3141,4.3141,4.3141,4.3159,4.3683,4.3815,4.3634,4.4163,4.392,4.3058,4.2166,4.1172,3.9913,3.7177,3.4543,3.2051,0.0,2.8259,2.6633,2.5531,2.4943,2.464,2.4219,2.3857,2.3302,2.1888,2.1732,2.2247,2.319,2.4747,2.6476,2.8136,2.9676,3.0994,3.1782,3.2414,3.2757,3.2399,3.2039,3.1697,3.1422,3.1456,3.1493,3.1315,3.2274,3.2573,3.1169,3.1305,3.071,2.8494,2.8427,0.0,0.0,0.0,0.0,2.9374,3.0024,3.0346,3.0208,3.0516,3.0633,3.053,3.051,3.051,3.053,3.0331,3.0428,3.0796,3.0577,3.0554,3.0671,3.0671,3.0694,3.0796,3.0796,3.0796,3.0767,3.0384,2.998,2.952,2.9081,2.8544,2.8057,2.7993,2.8154,2.8379,0.0,0.0,0.0,0.0,0.0,0.0,0.0,0.0,0.0,0.0,0.0,0.0,0.0,0.0,0.0,0.0,0.0,2.127,2.3825,2.696,2.9953,3.2699,3.5375,3.6875,3.7062,3.8241,3.9093,3.9621,4.0218,4.0766,4.1284,4.1487,4.1566,4.1576,4.2224,4.2298,4.1936,4.2426,4.191,4.0616,3.9599,3.8253,3.6545,3.4046,3.1678,0.0,2.6945,2.5483,2.4536,2.3518,2.3412,2.3559,2.2713,2.2333,2.2144,2.1648,2.2389,2.3713,2.5226,2.7092,2.8957,3.0515,3.1919,3.3013,3.3391,3.3563,3.3374,3.2485,3.1491,3.0617,3.0104,2.9665,2.9504,2.9841,3.0664,3.1057,3.0425,3.0569,3.0121,2.845,2.8344,2.8129,0.0,0.0,0.0,2.8876,2.9731,3.017,3.0082,3.0539,3.0729,3.0545,3.0715,3.0729,3.0545,3.0545,3.0627,3.0796,3.0715,3.0715,3.0796,3.07,3.0715,3.0796,3.07,3.0583,3.0451,3.0033,2.9535,2.9003,2.8661,2.8223,2.7755,2.7686,2.7832,2.8076,0.0,0.0,0.0,0.0,0.0,0.0,0.0,0.0,0.0,0.0,0.0,0.0,0.0,0.0,0.0,0.0,0.0,0.0,2.1611,2.3784,2.6225,2.8938,3.0739,3.1946,3.2513,3.3332,3.4076,3.4687,3.5604,3.6753,3.8147,3.8686,3.8889,3.8877,3.9273,3.9156,3.8589,3.8622,3.7856,3.6577,3.6044,3.4249,3.1788,3.0367,2.8475,2.6365,2.4572,2.3349,2.2588,2.2729,2.2783,2.2652,2.171,2.1462,2.1679,2.2521,2.3815,2.5466,2.7758,2.947,3.0977,3.2485,3.3667,3.435,3.3953,3.3546,3.2896,3.1749,3.0258,2.9128,2.9077,2.819,2.7901,2.9158,2.9248,2.9397,3.0088,2.9595,2.9086,0.0,0.0,0.0,0.0,0.0,0.0,2.889,0.0,3.0053,3.0375,3.0656,3.0796,3.0796,3.0796,3.0796,3.0796,3.0796,3.0796,3.0796,3.0545,3.0545,3.0767,3.053,3.0545,3.0767,3.0516,3.0243,2.9886,2.9227,2.8735,2.8408,2.8039,2.774,2.7529,2.7784,2.7696,2.7499,0.0,0.0,0.0,0.0,0.0,0.0,0.0,0.0,0.0,0.0,0.0,0.0,0.0,0.0,0.0,0.0,0.0,0.0,2.0188,2.1786,2.3577,2.5634,2.779,2.9291,3.0081,3.1309,3.2338,3.3092,3.3682,3.416,3.454,3.5071,3.5329,3.5326,3.6079,3.6174,3.5749,3.607,3.5456,3.4149,3.2679,3.1664,3.076,2.8384,2.7099,2.6395,2.4891,2.4001,2.3402,2.2559,2.2574,2.2817,2.2089,2.2435,2.337,2.4675,2.6148,2.7826,3.0103,3.2039,3.3614,3.4556,3.5001,3.5121,3.4761,3.3511,3.2004,3.0617,2.8681,2.6953,2.6099,2.5946,2.6304,2.7318,2.8863,2.994,2.9967,3.0746,3.072,2.9105,2.9125,2.9022,2.8335,2.872,0.0,0.0,2.9652,3.0053,3.0375,3.0656,3.0796,3.0796,3.0796,3.0796,3.0796,3.0796,3.0796,3.0796,3.0723,3.0627,3.0522,3.0627,3.0633,3.0501,3.0627,3.0656,3.0525,2.9901,2.9447,2.9061,2.8218,2.774,2.747,2.7291,2.7335,2.7499,0.0,0.0,0.0,0.0,0.0,0.0,0.0,0.0,0.0,0.0,0.0,0.0,0.0,0.0,0.0,0.0,0.0,0.0,0.0,1.9963,2.1333,2.2895,2.4179,2.5261,2.6117,2.711,2.8036,2.8953,2.9831,3.0588,3.1239,3.1762,3.1987,3.1953,3.2665,3.2706,3.2245,3.2286,3.1561,0.0,0.0,2.8061,2.7543,2.6001,2.5411,2.5317,2.4529,2.3785,2.3133,2.2618,2.2726,2.3103,2.3414,2.4381,2.57,2.7212,2.8854,3.06,3.2553,3.4095,3.5275,3.5837,3.5755,3.5189,3.4008,3.25,3.0703,2.8391,2.6505,2.4977,2.4004,2.3891,2.429,2.5329,2.722,2.8676,2.8977,3.0271,3.0791,2.9693,2.9774,2.9667,2.912,2.9403,2.9687,0.0,3.0009,3.0199,3.039,3.0656,3.0796,3.0796,3.0796,3.0796,3.0796,3.0796,3.0796,3.0796,3.0539,3.0399,3.039,3.0399,3.0399,3.0405,0.0,3.0539,3.0364,2.9872,2.9403,2.89,2.8174,2.774,2.7455,2.7115,2.7133,2.7294,0.0,0.0,0.0,0.0,0.0,0.0,0.0,0.0,0.0,0.0,0.0,0.0,0.0,0.0,0.0,0.0,0.0,0.0,0.0,0.0,1.949,2.0772,2.0862,2.1312,2.2162,2.2662,2.3298,2.4172,2.5466,2.6723,2.792,2.8527,2.8715,2.8645,2.9124,2.9022,2.8451,2.8052,2.7177,2.6002,2.5178,2.4415,2.3805,0.0,0.0,2.3909,2.3909,2.3213,2.2408,2.3057,2.3359,2.3737,2.5289,2.6831,2.8358,2.995,3.1645,3.3324,3.4815,3.5723,3.6303,3.6539,3.5923,3.4727,3.2534,3.096,2.906,2.5889,2.4292,2.325,2.2548,2.2357,2.267,2.3771,2.5502,2.7024,2.8026,2.9267,3.016,3.0407,3.0199,3.0018,3.0018,3.0047,3.0214,3.0492,3.0566,3.0551,3.0463,3.0715,3.0855,3.0796,3.0796,3.0796,3.0796,3.0796,3.0796,3.0796,3.0238,3.0097,3.0317,3.0038,3.0038,3.0258,0.0,0.0,2.995,2.9637,2.9178,2.8632,2.8204,2.7857,2.7587,2.7247,2.7086,2.7133,0.0,0.0,0.0,0.0,0.0,0.0,0.0,0.0,0.0,0.0,1.52,1.5428,0.0,0.0,0.0,0.0,0.0,0.0,0.0,0.0,0.0,1.9782,2.0215,2.0939,2.2087,2.2581,2.2874,2.2997,2.3628,2.387,2.3759,2.4692,2.5117,2.5118,2.5622,2.5631,2.5192,2.4792,2.4293,2.3732,2.3194,2.3101,2.3287,0.0,0.0,0.0,2.3909,2.3256,2.2666,2.4573,2.5308,2.5674,2.7227,2.8956,3.0771,3.2584,3.3837,3.4849,3.6011,3.6662,3.6933,3.6659,3.5341,3.3681,3.2057,2.9607,2.7054,2.4867,2.3275,2.2119,2.1545,2.2519,2.3704,2.4563,2.6379,2.8097,2.9375,3.0007,3.0424,3.0685,3.0665,3.0636,3.0636,3.0884,0.0,0.0,0.0,3.1315,3.0773,3.1051,3.1089,3.0811,3.0796,3.0796,3.0796,3.0796,3.0796,3.0796,3.0457,3.0199,2.998,2.9936,2.9789,2.9593,0.0,0.0,3.0302,3.0243,3.0155,2.9945,2.9061,2.8534,2.8189,2.7868,2.7594,2.7499,0.0,0.0,0.0,0.0,0.0,0.0,0.0,1.3924,1.4255,1.5142,1.5479,1.5632,1.5691,1.5704,0.0,0.0,0.0,0.0,0.0,0.0,0.0,0.0,0.0,0.0,2.1609,2.1908,2.2142,2.2286,0.0,2.2914,2.271,2.3184,2.3428,2.3434,2.373,2.3748,2.3555,2.3218,2.2957,2.2741,2.2319,2.2418,0.0,0.0,0.0,0.0,2.347,2.2913,2.258,2.4098,2.5191,2.6341,2.8855,3.0943,3.2722,3.4042,3.5398,3.6583,3.7073,3.7501,3.7668,3.7313,3.5495,3.32,3.0926,2.8374,2.5771,2.3245,2.2038,2.1249,2.0691,2.1583,2.2605,2.3245,2.4506,2.6164,2.8341,2.8793,2.9359,3.065,3.0796,3.0796,3.0796,3.1103,3.122,3.1045,0.0,3.1768,3.1089,3.1045,3.0972,3.0811,3.0796,3.0796,3.0796,3.0796,3.0796,3.0796,3.0516,3.0214,2.9906,2.9906,2.9818,2.9701,3.0185,0.0,3.0618,3.0618,3.0516,3.0331,2.9687,2.9227,2.8871,2.835,2.8091,2.8003,0.0,0.0,0.0,0.0,0.0,0.0,0.0,1.3944,1.4361,1.5765,1.6171,1.6235,1.6,1.598,1.5939,0.0,0.0,0.0,0.0,0.0,0.0,0.0,0.0,0.0,0.0,0.0,0.0,2.1758,2.2271,0.0,0.0,0.0,0.0,0.0,2.2609,2.2595,2.2421,2.229,2.2197,0.0,0.0,2.2025,0.0,0.0,0.0,0.0,0.0,2.2574,2.2336,2.3335,2.4404,2.5845,2.8924,3.1524,3.3576,3.4404,3.6014,3.7574,3.7749,3.8032,3.8182,3.7676,3.5461,3.267,2.9727,2.7177,2.4645,2.1855,2.094,2.0521,2.0185,2.0613,2.1268,2.203,2.2796,2.4247,2.7005,2.7573,2.8447,3.0481,3.0767,3.0855,3.1001,3.1177,0.0,3.103,0.0,0.0,3.1446,3.1016,3.0796,3.0796,3.0796,3.0796,3.0796,3.0796,3.0796,3.0796,3.0516,3.0258,3.0009,2.9936,2.9906,2.9921,3.0243,0.0,0.0,3.0782,3.0671,3.0443,3.0141,2.976,2.933,2.8808,2.8511,2.8408,0.0,0.0,0.0,0.0,0.0,0.0,0.0,1.4237,1.5335,1.716,1.7026,1.6787,1.6878,1.6875,1.6724,0.0,0.0,0.0,0.0,0.0,0.0,0.0,0.0,0.0,0.0,0.0,0.0,2.127,2.1743,0.0,0.0,0.0,0.0,0.0,0.0,2.1856,2.119,2.1588,0.0,0.0,0.0,0.0,0.0,0.0,0.0,0.0,0.0,2.2554,2.1973,2.3469,2.3689,2.372,2.5743,2.9078,3.2396,3.3222,3.5001,3.6885,3.7591,3.8032,3.8045,3.6967,3.4468,3.1558,2.8905,2.6009,2.3332,2.1348,2.0294,1.9891,2.0435,2.0499,2.1008,2.2621,2.3475,2.4659,2.6751,2.7769,2.8837,3.0273,3.0656,3.103,3.1651,3.1461,3.1417,3.1695,0.0,0.0,3.1739,3.1133,3.0796,3.0796,3.0796,3.0796,3.0796,3.0796,3.0796,3.0796,3.0516,3.0375,3.0331,3.0038,2.9906,2.9921,0.0,0.0,0.0,3.07,3.0782,3.0744,3.0463,2.9965,2.9388,2.933,2.893,2.8437,0.0,0.0,0.0,0.0,0.0,0.0,1.3463,1.3676,1.4552,1.688,1.7232,1.743,1.7812,1.7836,1.7222,0.0,0.0,0.0,0.0,0.0,0.0,0.0,0.0,0.0,0.0,0.0,2.1055,2.1209,2.14,0.0,0.0,0.0,0.0,0.0,0.0,2.1182,2.0879,2.0903,0.0,0.0,0.0,0.0,0.0,0.0,0.0,0.0,0.0,0.0,2.1512,2.2651,2.2757,2.2501,2.2792,2.5107,2.8273,3.1097,3.3511,3.56,3.7039,3.7878,3.8096,3.7189,3.4519,3.149,2.9093,2.604,2.3212,2.1554,2.0343,1.9708,2.0051,1.9977,2.0179,2.117,2.1412,2.229,2.4633,2.5093,2.6281,2.9154,2.9588,3.0217,3.1666,0.0,3.1446,0.0,0.0,0.0,3.149,3.1045,3.0899,3.1089,3.0899,3.0796,3.0796,3.0796,3.0796,3.0796,3.07,3.056,3.041,3.0258,3.0199,3.0199,0.0,0.0,0.0,3.0753,3.0796,3.0767,3.0487,3.0229,2.995,2.9549,2.9242,2.8988,0.0,0.0,0.0,0.0,0.0,1.235,1.314,1.3294,1.4096,1.6235,1.7015,1.752,1.7937,1.8,1.7292,1.5552,0.0,0.0,0.0,0.0,0.0,0.0,0.0,0.0,0.0,0.0,2.0442,2.0963,2.0963,2.1032,0.0,0.0,2.0963,2.0866,0.0,0.0,0.0,0.0,0.0,0.0,0.0,0.0,0.0,0.0,0.0,0.0,0.0,0.0,0.0,0.0,0.0,2.1686,2.0967,2.2068,2.4422,2.8341,3.1439,3.3958,3.5737,3.7069,3.7737,3.6799,3.4143,3.1131,2.8681,2.5663,2.2895,2.1208,2.0072,1.9432,1.9642,1.9389,1.9382,2.0052,2.0111,2.0822,2.3003,2.3442,2.4701,2.7817,2.8271,2.9154,3.1189,3.1417,3.1461,0.0,0.0,0.0,0.0,3.0986,3.0913,3.1133,3.0928,3.0796,3.0796,3.0796,3.0796,3.0796,3.0796,3.07,3.0536,3.0536,3.0536,3.0536,0.0,0.0,0.0,3.0796,3.0753,3.0656,3.0478,3.0273,3.0053,2.9564,2.933,2.9213,0.0,0.0,0.0,0.0,0.0,0.0,1.2415,1.3373,1.4449,1.5482,1.6309,1.6873,1.7006,1.701,1.6841,1.6409,0.0,0.0,0.0,0.0,0.0,0.0,0.0,0.0,0.0,0.0,1.993,2.0404,2.0404,2.0672,2.1193,2.0788,2.0434,2.0096,0.0,0.0,0.0,0.0,0.0,0.0,0.0,0.0,0.0,0.0,0.0,0.0,0.0,0.0,0.0,0.0,0.0,0.0,0.0,2.0594,2.1605,2.4973,2.8648,3.1954,3.3441,3.5495,3.6868,3.5398,3.2998,3.0224,2.721,2.448,2.2037,2.0022,1.9196,1.8939,1.9319,1.8816,1.8711,1.9902,2.0428,2.1131,2.2432,2.3751,2.5069,2.6369,2.6808,2.7909,3.0185,3.1248,3.152,0.0,0.0,0.0,0.0,3.0986,3.0796,3.0811,3.0796,3.0796,3.0796,3.0796,3.0796,3.0796,3.0796,3.0796,3.0796,3.0796,3.0796,0.0,0.0,0.0,0.0,3.0796,3.0642,3.039,3.039,2.9994,2.9403,2.9403,2.9198,2.89,0.0,0.0,0.0,0.0,0.0,0.0,0.0,1.2529,1.3271,1.4234,1.5019,1.567,1.6121,1.639,1.6359,1.5966,0.0,0.0,0.0,0.0,0.0,0.0,0.0,0.0,0.0,0.0,1.9562,2.0404,2.0772,2.0898,2.081,2.1271,2.0982,2.0096,2.0004,0.0,0.0,0.0,0.0,0.0,0.0,0.0,0.0,0.0,0.0,0.0,0.0,0.0,0.0,0.0,0.0,0.0,0.0,0.0,0.0,2.2368,2.5343,2.8561,3.0583,3.1833,3.238,3.1679,2.9915,2.7714,2.5384,2.3392,2.1558,1.9819,1.8847,1.8439,1.8791,1.8354,1.8431,1.9923,2.0289,2.0882,2.2403,2.3559,2.5052,2.7195,2.9529,3.0984,0.0,0.0,0.0,0.0,0.0,0.0,0.0,3.0855,3.0899,3.1133,3.0913,3.0796,3.0796,3.0796,3.0715,3.053,3.0694,3.0715,3.053,3.0729,0.0,0.0,0.0,0.0,0.0,3.0516,3.0325,3.0038,2.9818,2.9599,2.9374,2.9139,2.8993,2.8905,0.0,0.0,0.0,0.0,0.0,0.0,0.0,1.2162,1.2561,1.2994,1.3867,1.4661,1.5203,1.5745,1.5978,1.5728,0.0,0.0,0.0,0.0,0.0,0.0,0.0,0.0,0.0,1.8632,1.918,2.0404,2.0741,2.1066,2.1407,2.1665,2.1289,2.0388,2.0107,0.0,0.0,0.0,0.0,0.0,0.0,0.0,2.1581,0.0,0.0,0.0,0.0,0.0,0.0,0.0,0.0,0.0,0.0,0.0,0.0,0.0,2.2809,2.5138,2.7706,2.9163,2.9864,2.9384,2.7946,2.6119,2.4117,2.2477,2.0917,1.9253,1.8481,1.8101,1.8113,1.7939,1.8177,1.929,1.98,2.0516,2.1876,2.3237,2.5008,2.7462,3.0188,0.0,0.0,3.1892,0.0,0.0,0.0,0.0,0.0,3.0796,3.084,3.097,3.0861,3.0796,3.0796,3.0796,3.0729,3.0545,3.0729,3.0694,3.056,3.0709,0.0,0.0,0.0,0.0,0.0,3.0258,3.0009,2.9681,2.9476,2.9315,2.9183,2.8978,2.8905,2.8905,0.0,0.0,0.0,0.0,0.0,0.0,0.0,0.0,1.228,1.1818,1.2873,1.3798,1.4183,1.5008,1.5505,1.5482,0.0,0.0,0.0,0.0,0.0,0.0,0.0,0.0,0.0,1.8075,1.8822,2.0404,2.0442,2.1244,2.2697,2.2018,2.1393,2.0835,2.0147,0.0,0.0,0.0,0.0,0.0,0.0,0.0,0.0,0.0,0.0,0.0,0.0,0.0,0.0,0.0,0.0,0.0,0.0,0.0,0.0,0.0,0.0,0.0,0.0,2.7143,2.8631,2.7929,2.6649,2.5029,2.3094,2.1568,0.0,1.8399,1.804,1.7916,1.7443,1.758,1.7913,1.8364,1.9197,2.0148,2.1159,2.3091,2.5215,2.7368,2.9379,0.0,2.9989,0.0,0.0,0.0,0.0,0.0,0.0,3.0796,3.0671,3.0405,3.0656,3.0796,3.0767,3.0796,3.0796,3.0767,3.0796,3.0796,3.0767,3.0767,0.0,0.0,0.0,0.0,0.0,2.9994,2.9672,2.9359,2.9344,2.9154,2.8905,2.8871,2.8856,2.8856,0.0,0.0,0.0,0.0,0.0,0.0,0.0,0.0,0.0,0.0,1.2446,1.299,1.2531,1.3226,1.3581,0.0,0.0,0.0,0.0,0.0,0.0,0.0,0.0,0.0,0.0,1.7742,1.849,2.0404,2.085,2.1683,2.2855,2.2676,2.1845,2.0522,2.0283,0.0,0.0,0.0,0.0,0.0,0.0,0.0,0.0,0.0,0.0,0.0,2.1652,2.1185,0.0,0.0,0.0,0.0,0.0,0.0,0.0,0.0,2.0714,0.0,2.1884,0.0,2.3665,2.3494,2.268,2.1611,0.0,1.9641,1.8793,1.7707,1.7489,1.7616,1.7996,1.7709,1.793,1.9494,1.9783,2.0382,2.2037,2.5225,2.7769,2.8832,3.0917,3.1804,3.07,0.0,0.0,0.0,0.0,0.0,0.0,3.0796,3.0671,3.0405,3.0656,3.07,3.0507,3.07,3.07,3.0507,3.0715,3.07,3.0487,3.0487,0.0,0.0,0.0,0.0,2.9643,2.9549,2.9315,2.8988,2.8754,2.8735,2.8856,2.8618,2.853,2.8559,0.0,0.0,0.0,0.0,0.0,0.0,0.0,0.0,0.0,0.0,0.0,0.0,0.0,0.0,0.0,0.0,0.0,0.0,0.0,0.0,0.0,0.0,0.0,0.0,1.7758,1.7735,1.8621,2.0498,2.1041,2.1959,2.325,2.2868,2.2072,2.0957,2.0121,0.0,0.0,0.0,0.0,0.0,2.1105,0.0,0.0,0.0,0.0,0.0,2.1111,2.0516,0.0,2.0507,2.045,2.0024,0.0,0.0,0.0,0.0,2.0457,2.0629,2.0629,2.1297,2.2004,2.2004,2.1336,2.0506,1.979,1.898,1.8171,1.7451,1.7302,1.7463,1.7972,1.7638,1.7843,1.952,1.9783,2.0719,2.3385,2.5944,2.811,2.9667,3.1189,3.2002,0.0,0.0,0.0,0.0,0.0,0.0,0.0,3.0685,3.0545,3.039,3.053,3.0545,3.039,3.0671,3.0744,3.0589,3.0723,3.0656,3.039,3.039,0.0,0.0,0.0,0.0,2.9169,2.9169,2.8886,2.8442,2.8408,2.8427,2.8442,2.8408,2.8394,2.8437,0.0,0.0,0.0,0.0,0.0,0.0,0.0,0.0,0.0,0.0,0.0,0.0,0.0,0.0,0.0,0.0,0.0,0.0,0.0,0.0,0.0,0.0,0.0,1.6778,1.7607,1.7873,1.8879,2.0723,2.1188,2.2205,2.3703,2.291,2.216,2.1431,1.9815,1.8891,0.0,0.0,0.0,0.0,2.0683,0.0,0.0,0.0,0.0,0.0,0.0,0.0,0.0,2.0167,2.0116,1.9745,1.9966,0.0,0.0,0.0,0.0,0.0,2.0343,2.1091,2.1828,2.1747,2.1069,2.0283,1.985,1.8815,1.7854,1.7384,1.7346,1.7492,1.7884,1.7723,1.7957,1.9299,2.0001,2.1554,2.491,2.6284,2.7759,2.998,3.1014,0.0,0.0,0.0,0.0,0.0,0.0,0.0,0.0,3.0516,3.0381,3.0337,3.0361,3.0346,3.0243,3.0612,3.0782,3.0738,3.07,3.0539,3.0317,3.0214,2.9994,0.0,0.0,0.0,2.8754,2.8754,2.8442,2.8014,2.8189,2.8145,2.7995,2.8247,2.8291,2.831,0.0,0.0,0.0,0.0,0.0,0.0,0.0,0.0,0.0,0.0,0.0,0.0,0.0,0.0,0.0,0.0,0.0,0.0,0.0,0.0,0.0,0.0,1.4626,1.6394,1.8628,1.79,1.874,2.1279,2.1747,2.2593,2.377,2.3297,2.2194,2.0564,1.9542,1.9048,1.9027,0.0,0.0,0.0,0.0,0.0,0.0,0.0,0.0,0.0,0.0,0.0,0.0,1.8887,1.9282,1.9608,1.9042,0.0,0.0,0.0,0.0,0.0,2.0554,2.0949,2.1,2.0646,1.9807,1.9068,1.8986,1.8159,1.7396,1.7314,1.7521,1.7913,1.8525,1.8599,1.8994,2.0282,2.1906,2.3883,2.6357,0.0,2.9095,2.9525,0.0,0.0,0.0,0.0,0.0,0.0,0.0,0.0,0.0,3.0419,3.0258,2.9994,3.0243,3.0126,2.9549,3.0393,3.0685,3.0463,3.0164,3.0024,2.9965,2.9388,2.8944,0.0,0.0,2.8364,2.8057,2.8057,2.816,2.8277,2.7817,2.7934,2.8291,2.8053,2.7828,2.7646,0.0,0.0,0.0,0.0,0.0,0.0,0.0,0.0,0.0,0.0,0.0,0.0,0.0,0.0,0.0,0.0,0.0,0.0,0.0,0.0,0.0,1.3617,1.4374,1.5816,1.8032,1.8128,1.9486,2.2214,2.2718,2.3376,2.4161,2.2979,2.1599,2.0046,1.94,1.8965,1.8758,1.9492,0.0,0.0,0.0,0.0,0.0,0.0,0.0,0.0,0.0,0.0,0.0,0.0,1.8503,1.8461,1.8801,0.0,0.0,0.0,0.0,0.0,1.9365,1.9689,1.9853,1.9771,1.9586,1.9265,1.8808,1.7974,1.7404,1.7767,1.7957,1.8335,1.9168,1.9462,2.0151,2.1964,2.3587,2.5166,2.6782,2.792,2.8856,0.0,0.0,0.0,0.0,0.0,0.0,0.0,0.0,0.0,0.0,0.0,3.0053,2.9906,2.9716,2.9359,2.8851,2.9471,2.9705,2.9599,2.9432,2.9271,2.9076,2.8764,2.8457,2.8131,0.0,2.7955,2.7696,2.7838,2.7794,2.7623,2.7543,2.7554,2.7656,2.7667,2.7696,2.7696,0.0,0.0,0.0,0.0,0.0,0.0,0.0,0.0,0.0,0.0,0.0,0.0,0.0,0.0,0.0,0.0,0.0,0.0,0.0,0.0,1.2764,1.3654,1.4163,1.5566,1.7983,1.8604,2.0258,2.3082,2.3607,2.4031,2.4311,2.2719,2.1247,1.9919,1.9471,1.9007,1.8613,1.9326,1.9922,0.0,0.0,0.0,0.0,0.0,0.0,0.0,0.0,0.0,0.0,0.0,0.0,0.0,0.0,0.0,0.0,1.8332,1.8293,1.8132,1.8367,1.8636,1.8863,1.9011,1.9264,1.9385,1.9011,1.8273,1.787,1.8586,1.8747,1.8979,1.9753,2.037,2.1438,2.3501,2.4979,2.6249,2.7412,2.811,2.8881,0.0,0.0,0.0,0.0,0.0,0.0,0.0,0.0,0.0,0.0,0.0,2.9623,2.9549,2.9047,2.8618,2.8291,2.8476,2.8637,2.8783,2.871,2.853,2.8277,2.8223,2.8018,2.7692,2.7765,2.7656,2.7397,2.7609,2.7462,2.7133,2.7309,2.728,2.7148,2.7324,2.7569,2.7769,0.0,0.0,0.0,0.0,0.0,0.0,0.0,0.0,0.0,0.0,0.0,0.0,0.0,0.0,0.0,0.0,0.0,0.0,0.0,0.0,1.2261,1.2169,1.3478,1.5998,1.9824,1.9417,2.0627,2.364,2.4119,2.422,2.3929,2.2925,2.1705,2.033,1.9931,1.9492,1.9048,1.9119,1.9632,2.0306,0.0,0.0,0.0,0.0,0.0,0.0,0.0,0.0,0.0,0.0,0.0,0.0,0.0,0.0,1.7488,1.8196,1.7651,1.7127,1.8493,1.861,1.8342,1.8284,1.8252,1.8519,1.9644,1.9278,1.895,1.9874,2.005,2.0093,2.0166,2.1408,2.2885,2.4293,2.5859,2.7441,2.9008,0.0,0.0,0.0,0.0,0.0,0.0,0.0,0.0,0.0,0.0,0.0,0.0,0.0,0.0,2.853,2.8452,2.8277,2.7936,2.7715,2.7876,2.8423,2.8131,2.7951,2.7941,2.7686,2.7382,2.7071,2.7397,2.7338,2.7045,2.7056,2.7221,2.7441,2.7148,2.7221,2.7426,2.7148,2.725,2.7485,0.0,0.0,0.0,0.0,0.0,0.0,0.0,0.0,0.0,0.0,0.0,0.0,0.0,0.0,0.0,0.0,0.0,0.0,0.0,0.0,1.2075,1.2724,1.3841,1.5789,1.867,1.9277,2.12,2.4577,2.4777,2.4564,2.3867,2.2335,2.1187,2.0363,1.9674,1.943,1.9554,1.9798,2.0044,2.0224,1.963,0.0,0.0,0.0,0.0,0.0,0.0,0.0,0.0,0.0,1.6443,1.6219,1.6788,1.6578,1.6331,1.7398,1.7059,1.6547,1.7521,1.7787,1.783,1.7926,1.8094,1.8409,1.911,1.9475,1.9887,2.0649,2.1291,2.1774,2.1949,2.3179,2.4439,2.533,2.6819,2.8223,2.9257,0.0,0.0,0.0,0.0,0.0,0.0,0.0,0.0,0.0,0.0,0.0,0.0,0.0,0.0,2.8101,2.793,2.7686,2.7345,2.7232,2.7203,2.7214,2.7301,2.7228,2.7024,2.6925,2.6691,2.6398,2.6515,2.6617,2.6691,2.6691,2.6881,2.7177,2.706,2.7089,2.7177,2.706,2.7089,2.7177,0.0,0.0,0.0,0.0,0.0,0.0,0.0,0.0,0.0,0.0,0.0,0.0,0.0,0.0,0.0,0.0,0.0,0.0,0.0,1.1837,1.2302,1.3314,1.423,1.5692,1.7785,1.9091,2.1293,2.4469,2.469,2.4332,2.3432,2.2004,2.0992,2.0363,1.9777,1.9682,1.9996,2.0073,2.0153,2.0138,1.9437,1.8819,0.0,0.0,0.0,0.0,0.0,0.0,0.0,0.0,1.5815,1.5384,1.6237,1.5928,1.5474,1.6728,1.6698,1.635,1.6629,1.7133,1.756,1.7522,1.7984,1.8657,1.9389,2.0136,2.0984,2.2052,2.2623,2.3017,2.3354,2.4161,2.5039,0.0,2.7254,2.8496,0.0,0.0,0.0,0.0,0.0,0.0,0.0,0.0,0.0,0.0,0.0,0.0,0.0,0.0,0.0,0.0,2.7188,2.6928,2.6691,2.6676,2.6574,2.6336,2.6574,2.6559,2.6336,2.6336,2.6222,2.6,2.6,2.6132,2.6336,2.6336,2.6544,2.6852,2.6972,2.7002,2.7002,2.7002,2.7002,2.7002,0.0,0.0,0.0,0.0,0.0,0.0,0.0,0.0,0.0,0.0,0.0,0.0,0.0,0.0,0.0,0.0,0.0,0.0,1.1776,1.2308,1.2915,1.3654,1.4522,1.5844,1.7635,1.8944,2.0742,2.3085,2.3626,2.3411,2.249,2.2004,2.1282,2.0404,2.0404,2.0413,2.0368,1.9756,1.9769,2.0043,1.8312,1.7869,0.0,0.0,0.0,0.0,0.0,0.0,0.0,0.0,1.5188,1.506,1.5847,1.5562,1.5143,1.6276,1.6646,1.6572,1.6053,1.6776,1.7558,1.7044,1.7862,1.9228,2.0838,2.1467,2.2272,2.4221,2.4088,2.372,2.4058,2.4117,0.0,2.5795,2.7078,0.0,0.0,0.0,0.0,0.0,0.0,0.0,0.0,0.0,0.0,0.0,0.0,0.0,0.0,0.0,0.0,0.0,2.6175,2.6,2.6,2.6,2.6,2.6,2.6,2.6,2.6,2.6,2.5985,2.5985,2.5985,2.5985,2.6,2.6,2.6208,2.653,2.6866,2.7002,2.7002,2.7002,2.7002,2.7002,0.0,0.0,0.0,0.0,0.0,0.0,0.0,0.0,0.0,0.0,0.0,0.0,0.0,0.0,0.0,0.0,0.0,0.0,1.2185,1.211,1.2399,1.3162,1.4406,1.532,1.5856,1.8096,2.0374,2.2687,2.2839,2.2439,2.1519,2.1374,2.0992,2.0404,2.0744,2.0889,2.0843,2.0244,1.9999,1.9869,1.8607,1.7711,1.7108,0.0,0.0,0.0,0.0,0.0,0.0,0.0,0.0,0.0,1.6457,1.6349,1.6344,1.7258,1.713,1.6702,1.6737,1.6762,1.6967,1.7701,1.8699,1.9928,2.154,2.2125,2.2944,2.514,2.5432,2.5257,2.5108,2.5666,0.0,2.6339,0.0,0.0,0.0,0.0,0.0,0.0,0.0,0.0,0.0,0.0,0.0,0.0,0.0,0.0,0.0,0.0,0.0,0.0,2.6044,2.6,2.6,2.6,2.5883,2.5664,2.5664,2.5664,2.5664,2.5664,2.5549,2.5379,2.5379,2.5461,2.5678,2.5912,2.6208,2.6515,2.6603,2.6793,2.7002,2.7002,2.7002,2.7002,0.0,0.0,0.0,0.0,0.0,0.0,0.0,0.0,0.0,0.0,1.1293,1.1293,0.0,0.0,0.0,0.0,0.0,0.0,0.0,0.0,1.2555,1.3696,1.4439,1.5223,1.6109,1.7907,1.9504,2.0875,2.1394,2.1197,2.0307,2.1043,2.1125,2.0723,2.156,2.1675,2.1244,2.0871,2.0149,1.9215,1.8766,1.7732,1.6484,0.0,0.0,0.0,0.0,0.0,0.0,0.0,0.0,0.0,1.6773,1.6857,1.7071,1.7345,1.7573,1.7656,1.7259,1.7355,1.7741,1.8343,1.933,2.0647,2.2521,2.3471,2.445,2.6237,2.6296,2.6015,2.6073,2.6263,0.0,0.0,0.0,0.0,0.0,0.0,0.0,0.0,0.0,0.0,0.0,0.0,0.0,0.0,0.0,0.0,0.0,0.0,0.0,0.0,2.5696,2.5579,2.5447,2.5447,2.5286,2.4932,2.4932,2.4932,2.4947,2.5079,2.5037,2.4895,2.4895,2.4995,2.5183,2.562,2.5927,2.6117,2.6249,2.6515,2.6793,2.6793,2.6881,2.7002,0.0,0.0,0.0,0.0,0.0,0.0,0.0,0.0,0.0,0.0,1.1293,1.1293,0.0,0.0,0.0,0.0,0.0,0.0,0.0,0.0,1.3123,1.4778,1.4678,1.5561,1.7644,1.8112,1.8356,1.8406,1.9615,1.981,1.9069,2.0928,2.1519,2.1095,2.2542,2.2574,2.1511,2.1441,2.0283,1.8496,1.8738,1.7802,1.6345,1.7468,0.0,0.0,0.0,0.0,0.0,0.0,0.0,0.0,1.6993,1.7149,1.7434,1.6867,1.7826,1.8785,1.7522,1.8148,1.9138,1.9,2.0003,2.1584,2.3764,2.5169,2.6281,2.7221,2.6749,2.6351,2.6943,2.6431,2.6225,0.0,0.0,0.0,0.0,0.0,0.0,0.0,0.0,0.0,0.0,0.0,0.0,0.0,0.0,0.0,0.0,0.0,0.0,0.0,2.5142,2.4866,2.4558,2.4558,2.4412,0.0,2.4102,2.4102,2.4102,2.4426,2.4558,2.4558,2.4558,2.4573,2.4646,2.5181,2.5442,2.5529,2.5839,2.6146,2.6457,2.6486,2.6691,2.6972,0.0,0.0,0.0,0.0,0.0,0.0,0.0,0.0,0.0,0.0,0.0,0.0,0.0,0.0,0.0,0.0,0.0,0.0,0.0,0.0,1.3017,1.4364,1.5413,1.6502,1.768,1.7799,1.8022,1.8406,1.8688,1.8721,1.8592,2.0783,2.1344,2.064,2.2407,2.257,2.1461,2.0996,2.0439,1.9755,1.8318,1.7482,1.7113,1.7015,1.729,0.0,0.0,0.0,0.0,0.0,0.0,0.0,1.798,1.7805,1.7744,1.6921,1.6974,1.7209,1.7011,1.7202,1.7902,1.9805,2.1847,2.3749,2.5257,2.5795,2.6132,2.6617,2.7126,2.7458,2.7412,2.8373,2.9179,0.0,0.0,0.0,0.0,0.0,0.0,0.0,0.0,0.0,0.0,0.0,0.0,0.0,0.0,0.0,0.0,0.0,0.0,2.4424,2.4351,2.4278,2.4205,2.4205,2.4161,0.0,2.4102,2.4102,2.4102,2.4175,2.4205,2.4205,2.4205,2.4368,2.4617,2.4732,2.5066,2.55,2.5573,2.581,2.6132,2.6395,2.6544,2.6647,0.0,0.0,0.0,0.0,0.0,0.0,0.0,0.0,0.0,0.0,0.0,0.0,0.0,0.0,0.0,0.0,0.0,0.0,0.0,0.0,0.0,1.4014,1.5369,1.6304,1.6732,1.7151,1.7393,1.7445,1.7864,1.8299,1.8787,2.0617,2.1332,2.1137,2.2563,2.2511,2.1341,2.0918,2.0024,1.8856,1.8128,1.7523,1.7127,1.7725,1.8228,1.8608,0.0,0.0,0.0,0.0,0.0,0.0,0.0,0.0,1.8529,1.8078,1.7654,1.7456,1.8078,1.8094,1.8514,2.0847,2.2902,2.4573,2.5391,2.5798,2.6044,2.6219,2.6907,2.7641,2.8219,2.8935,0.0,0.0,0.0,0.0,0.0,0.0,0.0,0.0,0.0,0.0,0.0,0.0,0.0,0.0,0.0,0.0,0.0,2.4617,2.4454,2.4117,2.4102,2.4029,2.3868,2.3868,2.378,2.3618,2.3618,2.3618,2.3634,2.3795,2.3764,2.3618,2.3779,2.4044,2.4366,2.4543,2.4878,2.5301,2.5301,2.5488,2.581,2.6132,2.6351,2.6559,0.0,0.0,0.0,0.0,0.0,0.0,0.0,0.0,0.0,0.0,0.0,0.0,0.0,0.0,0.0,0.0,0.0,0.0,0.0,0.0,0.0,0.0,1.4963,1.573,1.5822,1.66,1.691,1.6747,1.7463,1.8332,1.9351,2.0534,2.1261,2.1601,2.2595,2.2341,2.1203,2.0994,1.9758,1.7977,1.8321,1.7849,1.7107,1.8696,1.9203,0.0,0.0,0.0,0.0,0.0,0.0,0.0,0.0,0.0,1.9263,1.9114,1.8549,1.8219,1.9193,1.9446,1.9918,2.2112,2.3708,2.4844,2.5154,2.5842,2.6322,2.597,2.6594,2.7566,2.879,2.9138,0.0,0.0,0.0,0.0,0.0,0.0,0.0,0.0,0.0,0.0,0.0,0.0,0.0,0.0,0.0,0.0,2.4125,2.3956,2.3897,2.3853,2.3853,2.3692,2.3354,2.3398,2.3296,2.3002,2.3061,2.309,2.312,2.3384,2.3369,2.312,2.3398,2.3691,2.4044,2.4382,2.4719,2.5012,2.5088,2.523,2.5508,2.6168,2.639,2.6507,0.0,0.0,0.0,0.0,0.0,0.0,0.0,0.0,0.0,0.0,1.1293,1.1293,0.0,0.0,0.0,0.0,0.0,0.0,0.0,0.0,0.0,1.3194,1.4469,1.5541,1.6298,1.6766,1.7365,1.8136,1.8253,1.8969,2.0248,2.0836,2.0909,2.0631,2.1812,2.1905,2.1179,2.0985,2.0615,2.0109,1.9441,1.8636,1.7927,1.8925,0.0,0.0,0.0,0.0,0.0,0.0,2.0508,0.0,0.0,0.0,1.9144,1.8389,1.8088,1.8077,1.8402,1.9553,2.1269,2.3822,2.4913,2.5438,2.5718,2.6971,2.7604,2.5908,2.6846,2.8014,2.8205,3.0293,0.0,0.0,0.0,0.0,0.0,0.0,0.0,0.0,0.0,0.0,0.0,0.0,0.0,0.0,0.0,0.0,2.3756,2.3398,2.309,2.2812,2.2798,2.2667,2.2389,2.2623,2.271,2.2681,2.2958,2.309,2.309,2.3149,2.3134,2.309,2.3149,2.3354,2.3691,2.4029,2.4351,2.469,2.5,2.5115,2.537,2.7292,2.7172,2.634,0.0,0.0,0.0,0.0,0.0,0.0,0.0,0.0,0.0,0.0,0.0,1.1293,0.0,0.0,0.0,0.0,0.0,0.0,0.0,0.0,0.0,1.3807,1.4391,1.5115,1.5987,1.691,1.7461,1.7629,1.8418,1.9226,2.0088,2.0774,2.1081,2.1043,2.1837,2.1765,2.0983,2.0411,2.0069,1.9795,1.8925,1.8475,1.8406,0.0,0.0,0.0,0.0,0.0,0.0,0.0,2.0605,2.0527,2.0157,0.0,0.0,0.0,1.8848,1.838,1.9386,2.0592,2.2082,2.4207,2.4963,2.5421,2.6439,2.7246,2.7618,2.7019,2.8145,2.9185,2.9008,0.0,0.0,0.0,0.0,0.0,0.0,0.0,0.0,0.0,0.0,0.0,0.0,0.0,0.0,0.0,0.0,2.5783,2.3185,2.29,2.2681,2.2389,2.2374,2.2315,2.2199,2.233,2.2447,2.2592,2.2944,2.309,2.309,2.309,2.309,2.309,2.309,2.3296,2.3634,2.397,2.4309,2.4631,2.4968,2.556,2.6378,2.7793,2.8374,2.866,0.0,0.0,0.0,0.0,0.0,0.0,0.0,0.0,0.0,0.0,0.0,0.0,0.0,0.0,0.0,0.0,0.0,0.0,0.0,0.0,0.0,1.3995,1.4029,1.4558,1.5691,1.6801,1.7373,1.7365,1.841,1.9276,1.996,2.0563,2.1116,2.1599,2.2066,2.1818,2.1016,2.03,1.9925,1.9708,1.8833,1.8525,1.8638,0.0,0.0,0.0,0.0,0.0,0.0,0.0,0.0,0.0,0.0,2.0157,0.0,0.0,0.0,1.9137,2.068,2.1579,2.2524,2.4296,2.5036,2.5621,2.6734,2.7502,2.793,2.7739,2.9169,3.0256,2.9588,0.0,0.0,0.0,0.0,0.0,0.0,0.0,0.0,0.0,0.0,0.0,0.0,0.0,0.0,0.0,0.0,2.5911,2.2672,2.2417,2.2286,2.2082,2.2082,2.2038,2.195,2.2111,2.2301,2.2505,2.29,2.309,2.309,2.309,2.309,2.309,2.309,2.3252,2.3501,2.3927,2.4265,2.4547,2.531,2.6217,2.7266,2.872,2.9732,3.0531,0.0,0.0,0.0,0.0,0.0,0.0,0.0,0.0,0.0,0.0,0.0,0.0,0.0,0.0,1.1642,1.1327,1.1966,1.2405,1.2422,1.2062,1.2215,1.3033,1.3066,0.0,1.5663,1.6201,1.7079,1.8335,1.8406,1.9094,2.0363,2.0228,2.074,2.1789,2.2271,2.212,2.1451,2.1211,2.1101,2.1033,2.0139,1.9317,0.0,0.0,0.0,0.0,0.0,0.0,0.0,0.0,0.0,0.0,0.0,0.0,0.0,0.0,0.0,0.0,2.1779,2.2106,2.2531,2.4331,2.5662,2.6446,2.6214,2.8082,2.9288,2.7275,2.9287,3.089,2.9173,3.0672,0.0,0.0,0.0,0.0,0.0,0.0,0.0,0.0,0.0,0.0,0.0,0.0,0.0,0.0,0.0,2.5286,2.2378,2.192,2.173,2.173,2.173,2.1569,2.1262,2.1876,2.2213,2.2228,2.2813,2.309,2.309,2.309,2.309,2.309,2.309,2.312,2.3179,2.3839,2.4102,2.4306,2.6238,2.7036,2.7467,3.0637,3.1209,3.0599,0.0,0.0,0.0,0.0,0.0,0.0,0.0,0.0,0.0,0.0,0.0,0.0,0.0,1.1746,1.1748,1.1625,1.2107,1.2405,1.2405,1.2261,1.2699,1.3856,1.389,1.4721,1.6503,1.7,1.7616,1.8406,1.8696,1.9255,2.0026,2.038,2.0699,2.0996,2.164,2.1699,2.1291,2.0967,2.0811,2.0771,2.0156,1.9559,1.9067,0.0,0.0,0.0,0.0,0.0,0.0,0.0,0.0,0.0,0.0,0.0,0.0,2.0916,2.1041,2.1247,2.2152,2.2261,2.2574,2.4563,2.5361,2.5913,2.6953,2.8219,2.8961,2.8291,2.9288,3.0086,2.9427,3.0896,0.0,0.0,0.0,0.0,0.0,0.0,0.0,0.0,0.0,0.0,0.0,0.0,0.0,0.0,0.0,0.0,2.3138,2.2184,2.1598,2.1393,2.1379,2.1306,2.1189,2.1642,2.1891,2.1891,2.249,2.2783,2.2814,2.3885,2.4379,2.4425,2.524,2.5148,2.4471,2.5752,2.6436,2.6759,2.77,2.8764,2.9967,3.1456,3.2335,3.2934,0.0,0.0,0.0,0.0,0.0,0.0,0.0,0.0,0.0,0.0,0.0,0.0,0.0,0.0,1.2206,1.2206,1.2607,1.2787,1.2602,1.289,1.3453,1.4323,1.4526,1.534,1.6956,1.7014,1.7554,1.8625,1.8472,1.8916,1.9909,2.0219,2.0521,2.0851,2.1212,2.1303,2.12,2.1084,2.0938,2.0752,2.0147,1.9737,1.9512,0.0,0.0,0.0,0.0,0.0,0.0,0.0,0.0,0.0,0.0,0.0,0.0,0.0,2.1397,2.1612,2.2142,2.2352,2.2838,2.4373,2.4957,2.545,2.6641,2.7643,2.8296,2.8283,2.8916,2.9466,2.9383,3.0439,3.1143,0.0,0.0,0.0,0.0,0.0,0.0,0.0,0.0,0.0,0.0,0.0,0.0,0.0,0.0,0.0,2.344,2.2581,2.1856,2.1218,2.1588,2.1618,2.1189,2.1931,2.217,2.1877,2.2826,2.3323,2.3489,2.5037,2.5745,2.5822,2.708,2.6914,2.5823,2.7015,2.766,2.798,2.8938,3.0038,3.1224,3.2115,3.3154,3.4173,0.0,0.0,0.0,0.0,0.0,0.0,0.0,0.0,0.0,0.0,0.0,0.0,0.0,0.0,0.0,1.3062,1.3536,1.361,1.3066,1.387,1.4356,1.4333,1.4763,1.5651,1.6984,1.6201,1.6864,1.9098,1.7724,1.8101,2.0088,1.9687,2.0214,2.1451,2.1075,2.1017,2.122,2.166,2.1602,2.1103,2.0254,1.9912,1.9951,0.0,0.0,0.0,2.0869,2.0937,0.0,2.0635,0.0,0.0,0.0,0.0,0.0,0.0,0.0,0.0,0.0,0.0,0.0,2.3784,2.4539,2.5182,2.5173,2.6352,2.7352,2.7027,2.8153,2.9153,2.8894,2.9232,2.954,0.0,0.0,0.0,0.0,0.0,0.0,0.0,0.0,0.0,0.0,0.0,0.0,0.0,0.0,2.5995,2.3243,2.303,2.2454,2.1232,2.2369,2.244,2.1261,2.2765,2.3106,2.2289,2.3863,2.4812,2.5178,2.6443,2.7034,2.7142,2.8415,2.8265,2.7129,2.7475,2.7612,2.7837,2.9919,3.0749,3.0977,3.2738,3.3691,3.402,0.0,0.0,0.0,0.0,0.0,0.0,0.0,0.0,0.0,0.0,0.0,0.0,0.0,0.0,1.4528,1.4528,1.4655,1.4406,1.3635,1.3814,1.4232,1.4851,1.5331,1.6186,1.7487,1.7595,1.8136,1.9098,1.8708,1.8986,1.9885,0.0,2.01,2.079,2.1027,2.0987,2.0771,2.0899,2.0879,2.0723,2.0127,1.9912,0.0,0.0,0.0,0.0,0.0,2.0879,2.1084,0.0,2.1574,2.1596,0.0,0.0,0.0,0.0,0.0,0.0,2.2295,0.0,0.0,0.0,0.0,0.0,2.4488,2.5409,2.6187,2.5907,2.668,2.7424,2.7506,2.7923,2.8223,2.8223,0.0,0.0,0.0,0.0,0.0,0.0,0.0,0.0,0.0,0.0,0.0,0.0,2.7193,2.6359,2.5575,2.3927,2.2454,2.1232,2.2369,2.2833,2.251,2.3743,2.425,2.4011,2.4701,2.5256,2.5728,2.7255,2.81,2.8444,2.977,3.0157,2.9833,2.9917,3.0125,3.049,3.1405,3.1961,3.23,3.3104,3.348,3.3617,0.0,0.0,0.0,0.0,0.0,0.0,0.0,0.0,0.0,0.0,0.0,0.0,0.0,0.0,1.5873,1.5076,1.5549,1.5428,1.4378,1.468,1.5025,1.5347,1.5794,1.6567,1.7688,1.7429,1.7859,1.9098,1.8708,0.0,0.0,0.0,0.0,2.0548,2.0918,2.0899,2.0605,2.0605,2.0605,2.0586,2.0303,0.0,0.0,2.0586,2.0781,0.0,0.0,0.0,2.2061,2.2254,2.2312,0.0,0.0,0.0,0.0,0.0,0.0,0.0,0.0,0.0,0.0,0.0,0.0,0.0,2.3931,2.4535,2.5004,0.0,2.5091,2.5741,2.5986,2.6495,2.6868,2.6868,0.0,0.0,0.0,0.0,0.0,0.0,0.0,0.0,0.0,0.0,0.0,2.8314,2.7651,2.7038,2.6536,2.473,2.3379,2.2678,2.3843,2.4217,2.3715,2.4882,2.5269,2.4925,2.5667,2.6236,2.6667,2.8319,2.9218,2.9488,3.0495,3.0913,3.0913,3.0913,3.1133,3.1548,3.2007,3.2452,3.2851,3.3246,3.3402,3.3441,0.0,0.0,0.0,0.0,0.0,0.0,0.0,0.0,0.0,0.0,0.0,0.0,0.0,0.0,0.0,0.0,1.6507,1.672,1.5471,1.6166,1.6409,1.5946,1.6367,1.6974,1.7758,1.6663,1.71,0.0,0.0,0.0,0.0,0.0,0.0,0.0,0.0,2.077,2.0605,2.0605,2.0605,2.0605,2.0605,2.0869,0.0,0.0,2.2489,2.2695,2.354,2.363,2.3352,2.3146,2.3066,0.0,0.0,0.0,0.0,0.0,2.3235,0.0,0.0,0.0,0.0,0.0,0.0,0.0,2.3616,2.3921,2.4072,0.0,2.378,2.4354,2.4691,2.5291,2.5735,2.5676,2.6426,0.0,0.0,0.0,0.0,0.0,0.0,0.0,2.8295,2.8203,2.8177,2.8236,2.8236,2.7728,2.6559,2.5488,2.4837,2.4699,2.5858,2.5968,2.4906,2.6091,2.6299,2.5547,2.6744,2.7465,2.7801,2.934,3.0117,3.0215,3.0644,3.084,3.0913,3.0913,3.1113,3.1489,3.1988,3.2433,3.2793,3.3226,3.3402,3.3422,0.0,0.0,0.0,0.0,0.0,0.0,0.0,0.0,0.0,0.0,1.688,1.7308,1.7675,1.803,0.0,0.0,1.852,1.8428,1.7775,1.7903,1.781,1.7324,1.7768,1.8087,1.8265,1.8385,1.8849,1.9658,0.0,0.0,0.0,0.0,0.0,0.0,2.078,2.0634,2.0605,2.0605,2.0605,2.0605,2.0605,2.1075,2.1777,2.1953,2.2452,2.316,2.3869,2.4281,2.4462,2.426,2.4081,2.389,0.0,0.0,0.0,2.3194,0.0,0.0,0.0,0.0,0.0,0.0,0.0,0.0,2.4031,2.4316,2.4615,0.0,2.4361,2.4757,2.4977,2.5567,2.5907,2.5528,2.6322,0.0,0.0,0.0,0.0,0.0,0.0,0.0,2.8275,2.7676,2.7402,2.778,2.7819,2.744,2.6559,2.6273,2.5708,2.4727,2.5858,2.6382,2.615,2.7349,2.7864,2.7692,2.7955,2.828,2.8672,2.8997,2.9551,3.0195,3.0293,3.0547,3.0913,3.0913,3.0952,3.1094,3.1905,3.2257,3.2413,3.3129,3.3402,3.3461,0.0,0.0,0.0,0.0,0.0,0.0,0.0,0.0,0.0,1.7649,1.8112,1.8319,1.8092,1.8688,1.9007,0.0,0.0,0.0,0.0,1.8758,1.8646,1.8402,1.8625,1.8862,1.909,1.9098,1.9421,2.0108,2.0108,0.0,0.0,0.0,0.0,2.0702,2.0749,2.0555,2.0283,2.0703,2.1026,2.1211,2.0772,0.0,2.1905,2.1905,2.256,2.3568,2.4112,2.4739,2.5268,2.5067,2.5021,0.0,0.0,2.4082,2.4146,0.0,2.4012,2.4208,0.0,0.0,0.0,2.4849,0.0,0.0,0.0,2.4203,2.4177,2.4069,2.388,2.3831,2.4233,2.4591,2.479,2.4748,2.5122,2.5625,0.0,0.0,0.0,0.0,0.0,0.0,2.7337,2.7148,2.7109,2.7337,2.7565,2.7531,2.7127,2.7276,2.7114,2.6513,2.7074,2.739,2.739,2.8,2.8314,2.8314,2.8314,2.8412,2.8633,2.9043,2.9487,2.9916,3.0366,3.0684,3.0913,3.0913,3.0913,3.0957,3.1601,3.2124,3.2554,3.2949,3.3226,3.3441,0.0,0.0,0.0,0.0,0.0,0.0,0.0,0.0,1.846,1.8654,1.9069,1.9073,1.8287,1.923,1.9682,1.9102,0.0,0.0,0.0,1.9496,1.9318,1.9243,1.9318,1.9483,1.9782,1.9496,1.9736,2.0528,2.0528,0.0,0.0,0.0,2.1071,2.0417,2.0718,2.0544,2.0098,2.0869,2.1425,2.1709,0.0,2.1368,2.2129,2.2129,2.2823,2.389,2.4459,2.5185,2.5865,2.5743,2.5799,2.5773,2.5015,2.4911,0.0,0.0,0.0,0.0,0.0,0.0,0.0,0.0,0.0,2.4931,0.0,0.0,0.0,2.398,2.3463,0.0,0.0,0.0,0.0,0.0,0.0,0.0,0.0,0.0,0.0,0.0,0.0,0.0,0.0,2.6484,2.6667,2.6732,2.709,2.7389,2.7565,2.7962,2.8177,2.8177,2.8275,2.8314,2.8314,2.8314,2.8314,2.8314,2.8314,2.8314,2.8334,2.9115,2.9506,2.9637,3.0424,3.0835,3.0913,3.0913,3.0913,3.0952,3.1333,3.1918,3.2578,3.2734,3.3008,3.3304,1.6523,1.6649,0.0,0.0,0.0,0.0,0.0,0.0,1.8696,1.9533,2.0005,2.0206,2.0094,2.0248,2.062,2.1353,0.0,0.0,2.2014,0.0,2.01,1.9749,2.0058,2.01,1.9812,2.01,2.0496,2.1013,2.1013,2.1252,2.1687,2.1386,2.1185,2.1067,2.077,2.0595,2.0556,2.1006,2.1239,0.0,2.1621,2.2246,0.0,2.2956,2.3309,2.3954,2.5195,2.5854,2.6177,0.0,2.6227,2.5877,0.0,2.5202,2.4652,2.5003,0.0,0.0,0.0,0.0,0.0,0.0,2.6103,0.0,0.0,0.0,2.491,2.4507,0.0,0.0,0.0,0.0,0.0,0.0,0.0,0.0,2.3557,2.3851,0.0,0.0,0.0,0.0,0.0,0.0,2.5461,2.5823,2.5913,2.6264,2.7038,2.7526,2.7774,2.7774,2.8119,2.8314,2.8314,2.8314,2.8314,2.8314,2.8314,2.8314,2.8334,2.8756,2.9199,2.9618,3.0092,3.0522,3.0913,3.0913,3.0913,3.0952,3.1333,3.1567,3.1743,3.2519,3.2832,3.2969,1.6756,1.6711,0.0,0.0,0.0,0.0,0.0,0.0,2.0419,2.0543,2.1652,2.2335,2.2036,2.2273,2.2377,2.2211,0.0,2.1579,0.0,0.0,0.0,2.0564,2.099,2.101,2.0564,2.099,2.1312,2.1498,2.1498,2.1601,2.1788,2.1522,2.1179,2.0852,2.0912,2.067,2.0263,2.1341,2.1775,0.0,0.0,0.0,0.0,2.3119,2.3487,2.4328,2.5286,2.5704,2.578,0.0,2.6031,0.0,0.0,0.0,0.0,0.0,0.0,0.0,0.0,0.0,0.0,0.0,0.0,0.0,2.5087,0.0,2.4828,0.0,0.0,0.0,0.0,0.0,0.0,0.0,2.3794,0.0,0.0,0.0,2.3262,0.0,0.0,0.0,0.0,0.0,0.0,0.0,0.0,2.5613,2.6213,2.668,2.7174,2.7682,2.7858,2.806,2.8314,2.8314,2.8314,2.8314,2.8314,2.8418,2.8658,2.9115,2.9545,2.9975,3.041,3.0718,3.0913,3.0913,3.0913,3.0932,3.1094,3.1294,3.1587,3.2222,3.2593,3.2891,1.7412,1.7373,1.7669,1.7698,0.0,0.0,0.0,0.0,0.0,2.1838,2.3049,2.3857,2.3764,2.4053,0.0,2.3484,2.309,2.2738,0.0,0.0,2.125,2.0762,2.1415,2.1519,2.093,2.1498,2.1788,2.1788,2.1788,2.1788,2.1788,2.155,2.1195,2.0866,2.1277,2.1054,2.0428,2.1926,2.2502,2.2453,2.3196,2.3656,2.3844,2.3338,2.364,2.4395,2.5085,2.5347,2.534,2.5381,2.5771,0.0,2.5181,0.0,0.0,0.0,0.0,0.0,2.5762,0.0,0.0,0.0,0.0,0.0,0.0,0.0,0.0,0.0,0.0,0.0,0.0,0.0,0.0,0.0,0.0,2.3506,0.0,0.0,0.0,0.0,0.0,0.0,0.0,0.0,0.0,2.3761,2.4398,2.4914,2.5316,2.5886,2.6504,2.7122,2.7506,2.7839,2.8138,2.8242,2.8314,2.8314,2.8314,2.8516,2.8912,2.9238,2.9701,3.0215,3.0547,3.0781,3.0913,3.0913,3.0913,3.0913,3.0913,3.1074,3.1406,3.2003,3.2378,3.2711,1.8864,1.899,1.8982,1.7895,1.8464,0.0,0.0,0.0,0.0,0.0,0.0,0.0,0.0,0.0,0.0,0.0,0.0,2.3846,2.3826,0.0,2.1662,1.9927,2.1102,2.1374,0.0,2.1332,2.1788,2.1788,2.1788,2.1788,2.1778,2.1397,2.1291,2.1483,2.196,2.1898,2.154,2.2888,2.3227,2.2911,2.3326,2.3785,2.4163,0.0,2.3797,2.3921,2.466,0.0,0.0,2.5674,2.5606,0.0,0.0,0.0,0.0,0.0,0.0,0.0,0.0,0.0,0.0,2.6125,0.0,0.0,0.0,0.0,2.5741,0.0,0.0,0.0,0.0,0.0,0.0,0.0,0.0,0.0,0.0,0.0,0.0,0.0,0.0,0.0,0.0,0.0,0.0,2.3761,2.382,2.4035,2.4422,2.5269,2.5745,2.5764,2.7024,2.7715,2.7721,2.8112,2.8314,2.8314,2.8314,2.8516,2.8912,2.8912,2.9381,3.0195,3.0215,3.0469,3.0913,3.0913,3.0913,3.0913,3.0913,3.0913,3.103,3.1885,3.2198,3.2335,2.1138,2.1208,2.0802,1.8564,1.8944,1.9856,0.0,2.1643,0.0,0.0,2.5576,0.0,0.0,2.7912,2.7726,0.0,0.0,2.5752,2.4829,2.4177,0.0,2.1641,2.2863,2.2874,0.0,0.0,2.3322,2.3069,2.3232,2.3327,2.3327,2.3059,2.2967,2.3016,2.296,2.276,2.2551,2.3215,2.3413,0.0,0.0,2.463,2.5224,0.0,0.0,2.4292,2.4543,2.4637,0.0,2.49,2.5066,2.5159,2.5025,2.4984,2.4983,2.5159,2.5429,0.0,0.0,0.0,2.7152,2.6531,0.0,0.0,0.0,0.0,0.0,0.0,0.0,0.0,0.0,0.0,0.0,0.0,0.0,0.0,0.0,0.0,0.0,0.0,0.0,0.0,0.0,0.0,0.0,2.291,2.2949,2.3262,0.0,2.4528,2.5101,2.5686,2.6706,2.7396,2.7715,2.8099,2.8314,2.8314,2.8314,2.8516,2.8912,2.9219,2.9682,3.0215,3.0542,3.0742,3.0913,3.0913,3.0913,3.0913,3.0913,3.0913,3.1011,3.1885,3.2198,3.2355,2.2863,2.2403,2.1541,1.9293,1.9641,2.0564,0.0,0.0,0.0,0.0,2.7004,0.0,2.9642,0.0,2.9559,0.0,2.8516,2.7522,2.5802,2.5408,0.0,2.2811,2.3732,0.0,0.0,0.0,0.0,0.0,2.4346,2.4434,2.4402,2.3991,2.3845,2.3909,2.3816,2.3632,2.337,2.3815,2.391,2.3798,0.0,2.5055,0.0,0.0,2.4585,2.4942,0.0,2.4507,2.4507,2.4507,2.4693,2.4911,2.4601,2.4714,2.4993,2.5159,2.5533,2.6001,2.6457,2.6945,0.0,2.6717,2.6374,0.0,2.5564,0.0,0.0,0.0,0.0,0.0,0.0,0.0,0.0,0.0,0.0,0.0,0.0,2.321,0.0,0.0,0.0,0.0,0.0,0.0,2.2431,2.2693,2.2713,2.2947,0.0,0.0,2.4664,2.523,2.6381,2.7148,2.7435,2.8021,2.8314,2.8314,2.8314,2.8607,2.916,2.9291,2.976,3.0464,3.0586,3.0757,3.0913,3.0913,3.0913,3.0913,3.0913,3.0976,3.1191,3.1944,3.2492,3.3019,2.3972,2.2659,2.1298,2.0181,2.0612,2.1436,0.0,0.0,2.519,0.0,2.809,2.9187,3.0608,3.0774,3.0774,3.0774,3.0359,2.9158,2.6913,2.6826,0.0,0.0,2.395,2.4141,2.3877,0.0,0.0,0.0,2.5108,2.5117,2.5103,2.4306,2.4059,2.4278,2.464,2.4563,2.4167,2.4752,2.4747,2.4368,2.454,2.5147,2.5822,2.4903,0.0,2.5829,2.485,2.4507,2.4507,2.4507,2.4507,2.4507,2.4528,2.4528,2.4642,2.5097,2.5564,2.6022,2.6489,2.6924,2.7152,2.6717,0.0,0.0,0.0,0.0,2.709,0.0,0.0,0.0,0.0,0.0,0.0,0.0,0.0,0.0,0.0,0.0,0.0,0.0,0.0,0.0,0.0,2.3081,2.3092,2.3101,2.3081,2.3092,0.0,0.0,2.4383,2.4402,2.6081,2.6979,2.6999,2.7871,2.8314,2.8314,2.8314,2.8724,2.952,2.9121,2.9615,3.0801,3.041,3.0503,3.0913,3.0913,3.0913,3.0913,3.0913,3.1152,3.1587,3.2046,3.3019,3.4173,2.4678,2.3458,2.2649,2.2691,2.1813,2.1643,0.0,0.0,0.0,0.0,2.8545,2.9774,3.1478,3.1664,3.1664,3.1664,3.1561,0.0,0.0,0.0,0.0,2.6875,2.831,2.8303,2.6424,2.7381,0.0,2.6919,0.0,2.6715,2.6699,2.6096,2.6047,2.6473,2.6339,2.619,2.6105,2.6418,2.6472,2.6371,2.6423,2.6984,0.0,0.0,2.6045,2.6666,2.5077,2.4507,2.4507,2.4507,2.4507,2.4569,2.4911,2.5014,2.5097,2.5585,2.6063,2.6448,2.6572,2.6696,2.6759,2.6634,2.6073,2.5533,0.0,0.0,0.0,0.0,0.0,0.0,0.0,0.0,0.0,0.0,0.0,0.0,0.0,0.0,0.0,2.3574,0.0,0.0,2.3062,2.283,2.2791,2.3092,2.2819,0.0,0.0,0.0,0.0,2.4402,2.5801,2.6699,2.6999,2.7871,2.8314,2.8314,2.8314,2.8431,2.8646,2.9174,2.9604,2.997,3.0483,3.0796,3.0913,3.0913,3.0913,3.0913,3.0913,3.1362,3.2066,3.2496,3.3258,3.4173,2.6063,2.506,2.4422,2.4366,0.0,0.0,2.4602,2.5141,0.0,2.8243,2.9332,0.0,3.1595,3.2078,3.2305,3.2305,3.1967,0.0,3.038,0.0,0.0,2.9021,3.0066,2.9989,2.8508,2.8716,0.0,2.8165,0.0,2.7412,2.762,2.6868,2.6801,2.7301,2.6947,2.6936,2.7153,2.7096,2.7088,2.7088,2.7088,2.7659,0.0,2.6902,2.6705,2.6958,2.5562,2.4828,2.4507,2.4507,2.4507,2.4559,2.4797,2.4879,2.5025,2.57,2.6084,2.6374,2.6788,2.6904,2.6904,2.6904,2.6342,2.5802,2.5802,2.601,2.6084,0.0,0.0,0.0,0.0,0.0,0.0,0.0,0.0,0.0,0.0,0.0,0.0,0.0,2.3064,0.0,2.3092,2.2732,2.2674,2.3073,2.2897,0.0,0.0,0.0,0.0,2.4402,2.5879,2.6777,2.6999,2.8047,2.8476,2.8314,2.8476,2.8672,2.8881,2.9565,2.9975,3.0204,3.0698,3.0913,3.0913,3.0913,3.0913,3.0932,3.1323,3.187,3.2515,3.291,3.3613,3.4391,2.7604,2.6899,2.6265,2.5565,0.0,0.0,0.0,2.6685,0.0,2.9187,0.0,3.1063,3.1519,3.2236,3.2755,3.2926,0.0,3.1556,3.1236,3.141,3.1249,3.0718,3.0824,3.073,3.0405,2.9403,2.8969,0.0,0.0,2.7654,2.8072,2.6993,2.6826,2.7401,2.7106,2.7299,2.7864,2.7488,2.7387,2.7434,2.7434,2.7941,2.8583,2.7649,2.7271,2.7159,2.6287,2.54,2.4647,2.4529,2.4507,2.4507,2.4569,2.459,2.4766,2.5721,2.596,2.6084,2.6966,2.7152,2.7111,2.7111,2.6821,2.651,2.651,2.651,2.6395,2.598,2.6613,0.0,0.0,0.0,0.0,0.0,0.0,0.0,0.0,0.0,0.0,0.0,0.0,0.0,0.0,2.283,2.2732,0.0,0.0,0.0,0.0,0.0,0.0,2.4383,2.5984,0.0,2.7077,0.0,2.8697,2.847,2.8756,2.9141,2.9618,3.0014,3.041,3.0801,3.0874,3.0913,3.0913,3.0913,3.0918,3.1069,3.1885,3.2452,3.2851,3.3246,3.3949,3.4707,2.8088,2.774,2.7374,2.6777,0.0,2.7443,2.8524,2.8773,2.9083,2.9787,3.0995,3.1953,3.2423,3.2615,3.309,3.4099,3.3595,0.0,0.0,0.0,0.0,3.3374,3.3711,3.3499,3.2578,3.1456,3.0693,0.0,0.0,0.0,2.8072,2.6993,2.7018,2.7971,2.7891,2.8459,2.9381,2.8811,0.0,2.9317,2.9317,2.9439,2.9488,2.8593,2.8241,2.8131,2.719,2.6307,2.5463,2.4743,2.4507,2.4569,2.4952,2.5076,2.5253,2.6208,2.6208,2.6022,2.656,2.6436,2.6146,2.6146,2.6084,2.6022,2.6022,2.6022,2.6001,2.5918,2.6333,2.654,2.6001,0.0,0.0,0.0,0.0,0.0,0.0,0.0,0.0,0.0,0.0,0.0,0.0,0.0,0.0,0.0,0.0,0.0,0.0,0.0,0.0,0.0,0.0,0.0,0.0,0.0,0.0,2.9364,2.9062,2.9141,2.9618,3.0014,3.0234,3.0332,3.0723,3.0913,3.0913,3.0913,3.1094,3.1465,3.1988,3.2452,3.2851,3.3246,3.3949,3.4707,3.0683,2.9977,2.9276,2.9012,0.0,0.0,0.0,3.188,0.0,3.1723,3.2686,3.3537,3.3764,3.4232,3.4739,3.5333,3.4639,3.4326,3.468,3.4981,3.4931,3.4426,3.4601,3.4338,3.3531,3.1863,3.0849,3.0588,0.0,0.0,0.0,2.7704,2.7745,2.853,2.8841,2.9048,2.9135,0.0,0.0,2.917,2.9614,2.9814,2.974,2.9326,2.918,2.9062,2.8151,2.7568,2.7058,2.6153,2.6058,2.6352,2.6593,2.6648,2.679,2.7491,2.7157,2.6679,2.7157,2.6972,2.6634,2.6634,2.6436,2.625,2.625,2.625,2.6188,2.596,2.6468,2.6759,2.6022,2.5523,0.0,0.0,0.0,0.0,0.0,0.0,0.0,0.0,0.0,0.0,0.0,0.0,0.0,0.0,0.0,0.0,0.0,0.0,0.0,0.0,0.0,0.0,0.0,0.0,0.0,2.9238,2.9473,2.9687,2.9936,3.0351,3.0547,3.0581,3.0815,3.0913,3.0932,3.1133,3.1465,3.191,3.2339,3.2769,3.3129,3.3324,3.3949,3.4707,3.318,3.2307,3.1489,3.1507,3.2288,0.0,3.2418,3.4738,3.5851,3.387,3.4475,3.511,3.511,3.5757,3.6294,3.6538,3.5637,3.5137,3.5382,3.5241,3.5126,3.5126,3.4865,3.4502,3.4073,3.1993,3.0874,0.0,0.0,0.0,0.0,2.8364,0.0,0.0,0.0,0.0,0.0,0.0,2.9558,2.9001,2.9701,2.9955,2.9955,2.9839,2.9814,2.9702,2.9032,2.8781,2.8687,2.8049,2.7918,2.7983,2.7857,2.7903,2.8075,2.84,2.7967,2.7481,2.7943,2.7914,2.772,2.7497,2.7261,2.7015,2.6897,2.6809,2.6676,2.6383,2.683,2.7049,2.6208,2.5668,0.0,0.0,0.0,0.0,0.0,0.0,0.0,0.0,0.0,0.0,0.0,0.0,0.0,0.0,0.0,0.0,0.0,0.0,0.0,0.0,0.0,2.668,2.7272,0.0,2.9408,0.0,2.9922,3.0254,3.0351,3.0723,3.0913,3.0913,3.0913,3.0913,3.0918,3.1333,3.1777,3.2237,3.2652,3.3047,3.3402,3.3402,3.3949,3.4707,3.3796,3.3814,0.0,0.0,0.0,0.0,3.4509,3.6334,3.7141,3.5494,3.5736,3.6075,3.6075,3.6153,3.6605,3.7634,3.6757,3.659,3.7618,3.678,3.6251,3.6251,3.5246,3.4678,3.4628,3.2921,3.1813,0.0,0.0,0.0,0.0,0.0,0.0,0.0,0.0,0.0,0.0,3.0292,3.0473,3.0413,3.0483,3.0522,3.0472,2.999,2.9814,2.9804,2.9702,2.9672,2.9728,3.0139,2.925,2.7903,2.7358,2.7563,2.7985,2.7903,2.7894,2.803,2.8489,2.8949,2.9081,2.8171,2.8225,2.8371,2.789,2.7501,2.7339,2.7643,2.7501,2.7132,2.6634,2.6146,2.5745,0.0,0.0,0.0,0.0,0.0,0.0,2.3542,0.0,0.0,0.0,0.0,0.0,0.0,0.0,0.0,0.0,0.0,0.0,2.4383,0.0,2.6973,2.8177,2.8697,0.0,3.0718,3.0351,3.041,3.0835,3.0879,3.0913,3.0913,3.0913,3.0913,3.0918,3.1333,3.1777,3.2237,3.2652,3.3047,3.3402,3.3402,3.3949,3.4707,0.0,0.0,0.0,0.0,0.0,0.0,0.0,3.7987,3.8755,3.8106,3.8185,3.8293,3.8293,3.8293,3.8355,3.8503,3.7775,3.737,3.7513,3.6808,3.623,3.5869,3.5104,3.4552,3.4237,3.2591,3.1612,0.0,0.0,0.0,0.0,0.0,0.0,0.0,0.0,2.9814,2.9804,3.003,3.0131,3.0131,3.0131,3.0131,3.0105,2.988,2.9814,2.9839,3.0146,3.0271,3.0347,3.0909,3.0623,2.9987,2.9758,3.0073,3.0448,3.0081,2.9826,2.9723,2.9901,2.9944,2.968,2.8659,2.8548,2.8563,2.8027,2.7779,2.7779,2.8222,2.8181,2.7854,2.7152,2.6862,2.6443,0.0,0.0,0.0,0.0,0.0,0.0,0.0,0.0,2.3298,0.0,0.0,0.0,0.0,0.0,0.0,0.0,0.0,0.0,2.4383,0.0,2.6621,2.7936,2.8861,2.9721,3.0469,3.0581,3.0718,3.0913,3.0913,3.0913,3.0913,3.0913,3.1035,3.1294,3.1738,3.2164,3.2593,3.3008,3.3265,3.3402,3.3402,3.3949,3.4707,3.834,0.0,3.7293,0.0,3.789,3.8054,3.8396,3.9154,3.9697,3.9697,3.9697,3.9697,3.9697,3.9697,3.9559,3.917,3.8442,3.7839,3.7475,3.6795,3.6118,3.5533,3.4993,0.0,3.4137,3.2817,3.1964,3.1647,3.125,0.0,0.0,0.0,0.0,0.0,3.004,3.004,3.004,3.004,3.004,3.004,3.004,3.004,3.0005,2.9854,2.9814,2.9854,3.0397,3.0588,3.0698,3.1411,3.1647,3.1622,3.1446,3.1763,3.2104,3.1572,3.1306,3.1206,3.1206,3.114,3.0812,2.9795,2.9337,2.904,2.8655,2.8202,2.8024,2.8512,2.8491,2.8202,2.7584,2.7277,2.6744,2.5679,0.0,0.0,0.0,0.0,0.0,0.0,2.3393,2.3248,2.3101,0.0,0.0,0.0,0.0,0.0,0.0,0.0,0.0,0.0,0.0,0.0,0.0,2.9193,2.9995,3.041,3.0742,3.0913,3.0913,3.0913,3.0913,3.0913,3.0913,3.1133,3.1548,3.2007,3.2452,3.2832,3.3246,3.3402,3.3422,3.3539,3.4082,3.4726,3.912,3.907,3.9044,3.9597,3.9672,3.9672,3.9684,3.9697,3.9697,3.9697,3.9697,3.9697,3.9697,3.9697,3.9697,3.9697,3.8642,3.8002,3.7977,3.6984,3.6118,0.0,0.0,3.4703,3.4703,3.4137,3.3319,3.2204,0.0,0.0,2.9804,0.0,3.0588,3.0588,3.0588,3.0588,3.0588,3.0588,3.0588,3.0588,3.0588,3.0588,3.0538,3.0005,2.9814,2.9854,3.0397,3.0588,3.0763,3.1828,3.2204,3.2104,3.1572,3.1763,3.2104,3.1572,3.1777,3.2183,3.2183,3.262,3.2831,3.1812,3.0868,3.017,3.0092,2.8946,2.8024,2.8512,2.8231,2.79,2.79,2.7179,2.6521,2.623,0.0,0.0,0.0,0.0,0.0,0.0,2.366,2.3613,2.314,0.0,0.0,0.0,0.0,0.0,0.0,0.0,0.0,2.5063,2.6328,0.0,2.8873,2.9751,3.043,3.0879,3.0913,3.0913,3.0913,3.0913,3.0913,3.0913,3.0913,3.1133,3.1548,3.2007,3.2452,3.2832,3.3246,3.3402,3.3461,3.3922,3.4352,3.4766,4.0058,4.0045,4.0033,4.0236,4.0083,3.9968,3.9968,3.9814,3.9697,3.9697,3.9697,3.9697,3.9697,3.9697,3.9559,0.0,3.8454,3.7827,0.0,3.6783,3.6118,3.5533,3.4993,3.4527,3.4162,3.3632,3.318,3.2803,0.0,0.0,0.0,3.0884,3.0758,3.008,3.0447,3.0588,3.0573,3.0206,3.0482,3.111,3.0748,3.0824,3.1085,3.0548,3.0583,3.0919,3.1085,3.1376,3.1803,3.2552,3.2803,3.2778,3.2612,3.2688,3.2702,3.2114,3.2616,3.337,3.337,3.3771,3.3975,3.3003,3.2523,3.2019,3.0911,2.996,2.929,2.9112,2.9195,2.9145,2.8491,2.814,2.7631,2.663,0.0,0.0,0.0,0.0,0.0,0.0,2.3393,2.3268,0.0,2.3101,0.0,0.0,0.0,0.0,0.0,0.0,0.0,0.0,2.6646,0.0,2.8893,2.9766,3.0444,3.0913,3.0913,3.0913,3.0913,3.1191,3.1313,3.1328,3.1655,3.2007,3.2402,3.2554,3.2851,3.3226,3.3363,3.3402,3.3461,3.3922,3.4352,3.4766,4.0965,4.0721,4.0517,4.0517,4.0351,4.0249,4.0249,4.0096,4.0006,4.0006,3.9904,3.9839,3.9839,3.9774,0.0,3.9245,3.868,3.8102,3.755,3.7009,3.6344,3.5533,3.5193,3.4753,3.4212,0.0,0.0,3.3406,3.2591,3.1853,3.12,3.1526,3.1461,3.1045,3.115,3.12,3.1175,3.0633,3.0793,3.1371,3.1035,3.111,3.1371,3.1035,3.111,3.1421,3.1637,3.1913,3.2279,3.2914,3.309,3.309,3.309,3.309,3.3065,3.2893,3.3345,3.3947,3.4137,3.4427,3.4567,3.396,3.3546,3.2876,3.1266,3.0432,2.9911,2.9622,2.9518,2.929,2.8698,2.8338,2.7729,2.6519,0.0,2.5305,2.434,0.0,0.0,0.0,0.0,0.0,0.0,2.3552,0.0,0.0,0.0,0.0,0.0,0.0,0.0,2.5571,2.7115,0.0,2.9381,3.0098,3.062,3.0913,3.1055,3.1133,3.1133,3.1562,3.1758,3.1777,3.2066,3.2418,3.2793,3.2793,3.3047,3.3402,3.3402,3.35,3.3711,3.4157,3.4606,3.5019,4.1724,4.1119,0.0,0.0,4.0529,0.0,4.0516,4.0517,4.0517,4.0517,4.0287,4.0134,4.0109,3.9878,3.9723,3.9697,0.0,0.0,0.0,3.7475,3.6659,3.562,3.5508,3.5269,3.4778,3.4753,3.4477,3.3897,3.2832,3.2254,3.2154,3.2179,3.2491,3.3004,3.2491,3.2254,3.2229,3.1698,3.1472,3.1497,3.1472,3.1472,3.1497,3.1472,3.1472,3.1572,3.2039,3.2229,3.2355,3.2953,3.3165,3.3165,3.319,3.3215,3.3316,3.3746,3.3922,3.4062,3.4603,3.4778,3.4815,3.4815,3.4118,3.2983,3.1431,3.0568,3.0065,2.9966,2.929,2.8698,2.8657,2.7957,2.709,2.6146,2.5585,2.5002,2.4264,0.0,0.0,0.0,0.0,0.0,0.0,2.4336,2.4562,0.0,0.0,0.0,0.0,0.0,2.5215,2.6458,2.7734,2.9004,3.0176,3.0678,3.0898,3.0952,3.1352,3.1548,3.1567,3.2027,3.2237,3.2237,3.2276,3.2496,3.2832,3.2832,3.3051,3.3402,3.3402,3.3691,3.4153,3.4551,3.5,3.5449,0.0,0.0,4.1123,4.1123,4.0934,4.082,4.082,4.0631,4.0517,4.0517,4.0427,4.0326,4.0134,4.0045,3.9916,3.9723,3.8793,3.814,3.8015,3.7098,3.6468,3.6205,3.5757,3.5433,3.5307,3.5319,3.4853,3.3897,3.3621,3.2842,3.1587,3.2003,3.229,3.2441,3.2753,3.2889,3.2853,3.2265,3.2265,3.2663,3.219,3.23,3.2663,3.219,3.23,3.2652,3.2305,3.2491,3.2979,3.352,3.3707,3.3771,3.4187,3.4313,3.4262,3.3972,3.4187,3.4628,3.5168,3.5643,3.6004,3.6004,3.5202,3.4137,3.2944,3.1905,3.0897,2.9719,2.958,2.9559,2.9208,2.8669,2.7986,2.7099,2.6282,2.5296,2.4059,2.4055,0.0,0.0,2.4374,2.475,2.464,2.459,2.4715,0.0,0.0,0.0,0.0,0.0,2.7057,2.737,2.892,2.9897,3.021,3.0678,3.1055,3.1352,3.1831,3.2027,3.2046,3.2476,3.2672,3.2672,3.2988,3.3168,3.3265,3.3265,3.3304,3.3402,3.3402,3.3691,3.4153,3.4551,3.5,3.5449,4.2095,4.1651,4.1311,4.1311,4.1173,4.1085,4.1085,4.0946,4.0962,4.1233,4.0925,4.0733,4.0863,4.0517,4.0173,3.9904,3.9196,3.8668,3.8429,3.76,3.7034,3.6795,3.6219,3.5782,3.5508,3.5508,3.5093,3.4262,3.4513,3.4176,3.3283,3.3334,3.3473,3.3713,3.3786,3.3822,3.3796,3.3484,3.3534,3.3771,3.3219,3.3319,3.3746,3.2918,3.3119,3.3746,3.3194,3.3345,3.3872,3.4173,3.4262,3.4313,3.4603,3.4703,3.4703,3.4653,3.4853,3.5193,3.5768,3.6143,3.6393,3.6393,3.5595,3.4654,3.4067,3.2715,3.1345,3.0508,3.0004,2.9601,2.9352,2.874,2.7995,2.712,2.6293,2.535,2.4155,2.4267,0.0,2.4278,2.5031,2.5515,2.5383,2.5703,2.5847,2.5706,0.0,0.0,2.6602,2.7845,2.8386,2.7995,2.9428,3.0391,3.0801,3.1265,3.1597,3.1831,3.2261,3.2476,3.2496,3.2891,3.307,3.3105,3.3304,3.3402,3.3402,3.3402,3.3402,3.3402,3.3402,3.3809,3.4411,3.4609,3.5117,3.5723,4.2905,4.2174,4.1573,4.1573,4.1573,4.152,4.1442,4.1494,4.1716,4.2134,4.1578,4.1296,4.1854,4.1119,4.0504,4.03,3.9967,3.951,3.8957,3.8354,3.7789,3.7349,3.6808,3.6269,3.577,3.567,3.538,3.4828,3.5294,3.5458,3.5357,3.4917,3.4993,3.5483,3.5018,3.4828,3.4828,3.4828,3.4778,3.4653,3.4187,3.4288,3.4603,3.3696,3.3897,3.4653,3.4187,3.4313,3.4703,3.4792,3.4828,3.4853,3.494,3.4965,3.5041,3.5494,3.5645,3.5757,3.6256,3.6443,3.6519,3.6519,3.5912,3.5235,3.5077,3.3633,3.223,3.1907,3.0781,2.9799,2.9557,2.874,2.785,2.7025,2.6181,2.5333,2.4469,0.0,2.4754,2.4918,2.5832,2.6367,2.6198,2.7148,2.7376,2.6362,2.7539,0.0,0.0,2.907,2.9369,2.8724,2.9805,3.0781,3.1601,3.2066,3.2296,3.2296,3.2769,3.2965,3.291,3.332,3.348,3.3402,3.3402,3.3402,3.3402,3.3402,3.3402,3.3422,3.348,3.3988,3.4707,3.4785,3.5296,3.5999,4.2408,4.2552,4.2736,4.2736,4.2736,4.2566,4.2134,4.2448,4.2618,4.2238,4.2069,4.2111,4.2449,4.1504,4.0925,4.117,4.0504,3.9715,3.8957,3.8354,3.7965,3.7889,3.7349,3.7022,3.6947,3.6507,3.5956,3.5394,3.5458,3.5269,3.4828,3.4753,3.4993,3.5508,3.5408,3.5394,3.5394,3.5394,3.5118,3.4703,3.4603,3.4628,3.4678,3.4513,3.4564,3.4703,3.4614,3.4628,3.4778,3.5218,3.5394,3.5469,3.5979,3.6142,3.6155,3.623,3.6256,3.6281,3.6368,3.6745,3.7085,3.7085,3.7278,3.7283,3.6374,3.5883,3.5133,3.3249,3.2677,3.208,3.0732,2.9704,2.8905,2.838,2.6928,2.5653,2.5112,0.0,2.5593,2.5572,2.6984,2.8067,2.8365,2.8281,2.8431,2.8959,2.8568,2.8588,2.9266,2.9819,3.0229,3.0503,3.1016,3.1562,3.2101,3.2496,3.2711,3.273,3.3512,3.3688,3.3324,3.3785,3.3785,3.3402,3.3402,3.3402,3.3402,3.3402,3.3402,3.3441,3.3844,3.4293,3.4746,3.5153,3.5605,3.5999,4.3154,4.3049,4.2997,4.2997,4.2997,4.2931,4.2657,4.2827,4.3036,4.3101,4.2827,4.2801,4.3257,4.2528,4.1918,4.1647,4.1248,4.0607,3.9601,3.8869,3.8479,3.8479,3.7952,3.75,3.7198,3.6669,3.6256,3.5981,3.5981,3.5855,3.5616,3.5616,3.5767,3.5981,3.5981,3.5981,3.5981,3.5981,3.583,3.5591,3.5255,3.5342,3.5566,3.494,3.5091,3.5554,3.5255,3.5342,3.5666,3.5906,3.5981,3.6031,3.6318,3.6393,3.6393,3.6393,3.6393,3.6468,3.6758,3.7009,3.7274,3.7563,3.7814,3.7854,3.7381,3.6805,3.6097,3.5095,3.4409,3.3616,3.2238,3.1213,3.0317,2.9496,2.7626,0.0,0.0,2.6456,2.6609,2.7325,2.8252,2.9012,2.9459,2.9198,2.9168,2.9579,2.9227,2.9272,2.9877,3.0346,3.0781,3.1211,3.1855,3.2305,3.2515,3.293,3.3242,3.3512,3.3919,3.4098,3.4101,3.4098,3.3981,3.375,3.35,3.3402,3.3402,3.3402,3.3402,3.3441,3.3922,3.4352,3.4766,3.5231,3.5647,3.5999,4.3912,4.3624,4.3402,4.3402,4.3402,4.3336,4.3219,4.3323,4.3506,4.386,4.3493,4.3441,4.4029,4.3441,4.2801,4.2333,4.1996,4.1415,4.0555,3.9715,3.9222,3.9095,3.8529,3.7939,3.7399,3.6984,3.677,3.677,3.677,3.677,3.677,3.6632,3.6594,3.6594,3.6443,3.6393,3.6393,3.6393,3.6393,3.6368,3.5894,3.5981,3.6292,3.544,3.5641,3.6343,3.5869,3.6006,3.6418,3.6544,3.6594,3.6619,3.6733,3.677,3.677,3.677,3.677,3.6859,3.7274,3.75,3.7701,3.8102,3.8291,3.8391,3.8391,3.7752,3.7105,3.68,3.6094,3.5149,3.3897,3.2769,3.1702,3.0716,0.0,0.0,0.0,2.7672,2.7747,2.8877,2.9319,2.9686,3.0153,3.0024,2.9911,2.9911,2.9911,3.0048,3.0366,3.0781,3.1269,3.1782,3.2461,3.2832,3.293,3.3344,3.375,3.4114,3.431,3.4508,3.4687,3.4489,3.4274,3.4095,3.3711,3.3558,3.3558,3.3558,3.3617,3.3754,3.4215,3.4587,3.4922,3.5371,3.5725,3.5999,4.399,4.4251,4.4564,4.4564,4.4564,4.4421,4.3899,4.4251,4.4421,4.3964,4.386,4.4056,4.4578,4.365,4.3193,4.3702,4.2541,4.175,4.1686,4.0849,4.016,3.9647,3.912,3.8555,3.7952,3.7902,3.7889,3.7889,3.7889,3.7889,3.7864,3.7374,3.7148,3.7135,3.6619,3.6393,3.6393,3.6393,3.6393,3.6393,3.6343,3.6368,3.6393,3.6318,3.6318,3.6393,3.6343,3.6368,3.648,3.6984,3.7148,3.7235,3.7739,3.7889,3.7889,3.7889,3.7889,3.7889,3.7939,3.8354,3.8768,3.8818,3.9208,3.9572,3.9572,3.952,3.9134,3.8014,3.7737,3.7199,3.561,3.4048,3.2831,3.2315,0.0,0.0,2.8952,2.893,2.9052,2.9338,2.9827,3.0322,3.0786,3.083,3.0815,3.0815,3.0815,3.0815,3.0854,3.1235,3.184,3.2676,3.2769,3.2988,3.3363,3.3824,3.4075,3.4114,3.4919,3.5078,3.4707,3.5117,3.486,3.4114,3.4059,3.4055,3.4055,3.4055,3.4274,3.4648,3.5117,3.5312,3.5391,3.5803,3.5979,3.5999,4.5355,4.5621,4.5953,4.6634,4.6751,4.6682,4.6475,4.6041,4.5688,4.5473,4.4837,4.4473,4.4669,4.4303,4.4003,4.3912,4.3401,4.2736,4.1866,4.1492,4.0901,3.9993,3.9259,3.8793,3.8555,3.8191,3.8002,3.8002,3.8002,3.8002,3.7977,3.7449,3.7374,3.7663,3.6795,3.6594,3.6909,3.6909,3.6708,3.6418,3.6758,3.6695,3.6443,3.677,3.6909,3.6934,3.7274,3.7399,3.7424,3.7625,3.7688,3.7739,3.7939,3.8002,3.8065,3.8454,3.8555,3.863,3.8969,3.8982,3.8969,3.9308,3.9559,3.9697,3.9697,3.9697,3.9556,3.9115,3.9012,3.8599,3.7239,3.6288,3.5511,3.4861,0.0,3.1923,3.1979,3.1188,3.0623,3.0741,3.0696,3.0888,3.151,3.1187,3.0996,3.1255,3.1255,3.1255,3.1255,3.168,3.2701,3.4353,3.3602,3.3398,3.3844,3.4254,3.4626,3.4919,3.5234,3.543,3.5491,3.543,3.5231,3.4899,3.4606,3.4469,3.4469,3.4469,3.4551,3.4746,3.5215,3.5391,3.5449,3.5842,3.5999,3.5999,4.6738,4.6893,4.7139,4.7864,4.8159,4.8256,4.8019,4.7278,4.6685,4.6645,4.5687,4.4982,4.4982,4.4982,4.4761,4.4212,4.399,4.3493,4.2515,4.2061,4.1299,4.016,3.9575,3.9234,3.9145,3.8756,3.8542,3.8542,3.8542,3.8542,3.8517,3.7977,3.7927,3.8253,3.7311,3.711,3.7449,3.7449,3.7248,3.6934,3.7299,3.7223,3.6934,3.7299,3.7449,3.75,3.7864,3.8002,3.804,3.8216,3.8266,3.8316,3.8492,3.8542,3.8617,3.9032,3.9145,3.9245,3.9609,3.9434,3.9245,3.9609,3.9697,3.9697,3.9697,3.9823,3.9948,3.9948,4.0099,3.9901,3.8889,3.8192,3.7384,3.6185,3.5054,3.423,3.3848,3.2933,3.24,3.2706,3.1729,3.1386,3.2323,3.15,3.1289,3.2242,3.2172,3.2404,3.3096,3.3451,3.4348,3.5949,3.5396,3.5215,3.5535,3.5548,3.5505,3.5407,3.5976,3.616,3.5999,3.5706,3.5527,3.5371,3.5059,3.4922,3.4922,3.4922,3.5,3.5156,3.5469,3.5586,3.5625,3.5901,3.5999,3.5999,4.8003,4.8003,4.8003,4.8016,4.8576,4.8801,4.8128,4.7702,4.7389,4.7243,4.6298,4.5637,4.5637,4.5597,4.5362,4.4761,4.4212,4.3912,4.3886,4.258,4.1299,4.016,4.0109,3.9981,3.971,3.9697,3.9697,3.9697,3.9697,3.9697,3.9697,3.9145,3.8894,3.8869,3.8266,3.8002,3.8015,3.8015,3.8002,3.8002,3.8015,3.8002,3.8002,3.8015,3.8015,3.8015,3.8015,3.8002,3.8103,3.8693,3.8894,3.8994,3.9534,3.9697,3.9697,3.9697,3.9697,3.9697,3.9697,3.9697,3.971,3.9697,3.9697,3.9697,3.971,4.0124,4.0512,4.0512,4.0926,4.1138,4.06,3.9587,3.809,3.5905,3.5931,3.5672,3.4059,3.3942,3.435,3.5192,3.2957,3.1881,3.319,3.1874,3.1833,3.3969,3.3684,3.4416,3.6625,3.6728,3.6902,3.7302,3.8226,3.8707,3.8707,3.7856,3.6741,3.5444,3.7241,3.7361,3.5999,3.5999,3.5784,3.5391,3.5391,3.5391,3.5391,3.5391,3.5644,3.5999,3.5999,3.5999,3.5999,3.5999,3.5999,3.5999,4.8956,4.9133,4.9494,5.0747,5.0709,5.0639,5.0898,5.02,4.9624,4.9586,4.8636,4.7985,4.7985,4.6876,4.6088,4.5914,4.5035,4.4304,4.3912,4.3114,4.2411,4.1892,4.0927,4.0249,3.9993,3.9981,3.9878,3.9697,3.9697,3.9697,3.9697,3.9145,3.9095,3.9409,3.8442,3.8253,3.863,3.863,3.8404,3.804,3.8454,3.8379,3.804,3.8479,3.863,3.868,3.9057,3.9195,3.922,3.9409,3.9459,3.9484,3.9647,3.9697,3.9697,3.9697,3.9697,3.9697,3.9697,3.9973,4.0161,3.9798,3.9697,3.9798,4.0174,4.0387,4.0613,4.0976,4.1188,4.1239,4.1088,4.0784,4.0337,3.9683,3.9358,3.8776,3.7496,3.7142,3.6672,3.5704,3.5374,3.5351,3.5648,3.533,3.5526,3.648,3.6421,3.7073,3.8721,3.814,3.8305,3.9504,3.9443,3.9579,3.9966,3.9567,3.8676,3.7291,3.783,3.7361,3.5999,3.5999,3.594,3.5823,3.5823,3.5823,3.5823,3.5823,3.5881,3.5999,3.5999,3.5999,3.5999,3.5999,3.5999,3.5999,5.0447,5.0639,5.1038,5.236,5.2474,5.2444,5.2576,5.1913,5.1374,5.1323,5.0365,4.9606,4.9353,4.8378,4.7546,4.7078,4.6006,4.5223,4.4904,4.394,4.3193,4.2788,4.1931,4.1209,4.0632,4.0377,4.0173,4.0032,3.9904,3.9852,3.9839,3.9409,3.9383,3.9685,3.8969,3.8868,3.922,3.922,3.9007,3.8693,3.9057,3.9007,3.8718,3.9082,3.922,3.9258,3.9584,3.9697,3.9697,3.9697,3.9697,3.9697,3.9697,3.9697,3.9697,3.9697,3.9848,4.0023,4.0023,4.0412,4.0725,4.0412,4.0337,4.0412,4.0725,4.0989,4.1254,4.158,4.1818,4.1918,4.1706,4.1656,4.1431,4.0735,4.0745,4.0428,3.9277,3.8926,3.8547,3.7844,3.7371,3.7255,3.7725,3.7243,3.7387,3.8578,3.9497,4.0297,4.0934,4.0602,4.0722,4.1439,4.1534,4.176,4.2079,4.2183,4.1235,3.9322,3.9861,3.9387,3.8055,3.7925,3.7625,3.7206,3.6941,3.6589,3.6183,3.605,3.6338,3.6826,3.6826,3.6826,3.6826,3.6826,3.6471,3.5999,5.2007,5.2157,5.2396,5.3067,5.3683,5.3922,5.3366,5.2985,5.2703,5.2571,5.1658,5.0812,5.0262,5.0001,4.9441,4.8339,4.7102,4.6361,4.6243,4.4772,4.369,4.3154,4.301,4.2476,4.1556,4.094,4.0593,4.0568,4.0287,4.0147,4.0134,3.9878,3.9774,3.9774,3.9774,3.9762,3.9749,3.9749,3.9723,3.9697,3.9697,3.9697,3.9697,3.9697,3.9697,3.9697,3.9697,3.9697,3.9697,3.9697,3.9697,3.9697,3.9697,3.9697,3.9697,3.9697,4.0074,4.0512,4.0512,4.0926,4.1378,4.1378,4.1428,4.1453,4.1403,4.182,4.2199,4.2249,4.2663,4.2838,4.235,4.2274,4.1745,4.0158,4.0728,4.1026,3.9971,3.9833,4.0108,4.0857,3.9141,3.8355,3.9547,3.8362,3.8387,4.0476,4.2579,4.355,4.3024,4.3501,4.3575,4.3098,4.4053,4.46,4.4649,4.5136,4.4042,4.1389,4.2635,4.2486,4.1181,4.0882,4.0197,3.9251,3.8651,3.7742,3.6671,3.6488,3.7075,3.8109,3.8242,3.8312,3.8354,3.8312,3.7431,3.6244,5.1397,5.1858,5.2396,5.3067,5.3306,5.3545,5.3922,5.3916,5.3855,5.3801,5.3138,5.2824,5.3195,5.1558,5.0331,5.0055,4.7801,4.6006,4.5114,4.4346,4.4029,4.4329,4.3075,4.2462,4.2632,4.1918,4.1428,4.1209,4.0671,4.0402,4.0402,4.0338,4.0338,4.0338,4.0338,4.0198,4.0006,4.0006,3.9878,3.9697,3.9697,3.9697,3.9697,3.9697,3.9697,3.9697,3.9697,3.9697,3.9697,3.9697,3.9697,3.9697,3.9697,3.9697,3.9697,3.9697,4.0074,4.0512,4.0512,4.1242,4.2009,4.2009,4.2322,4.2523,4.211,4.2123,4.2324,4.2738,4.2914,4.295,4.2838,4.2838,4.2705,4.2304,4.2134,4.1927,4.167,4.1642,4.1534,4.1245,4.156,4.1737,4.1607,4.203,4.2519,4.2995,4.3885,4.4249,4.3941,4.4234,4.4448,4.4546,4.5022,4.548,4.5915,4.604,4.4976,4.2777,4.306,4.2486,4.1197,4.1117,4.0956,4.0747,4.0585,3.9632,3.8237,3.9256,3.9064,3.8208,3.931,4.0006,4.032,3.9903,3.9115,3.8048,5.2564,5.2923,5.3354,5.4054,5.4144,5.4264,5.461,5.467,5.467,5.467,5.4371,5.4174,5.4192,5.3082,5.221,5.1886,5.002,4.8373,4.7201,4.6397,4.558,4.4748,4.3899,4.3297,4.2997,4.2345,4.1904,4.1776,4.1337,4.1132,4.1132,4.0991,4.0786,4.0517,4.0517,4.0415,4.0287,4.0287,4.0134,3.9878,3.9878,3.9826,3.9697,3.9697,3.9697,3.9697,3.9697,3.9697,3.9747,3.9998,4.0086,4.0124,4.0387,4.0462,4.0462,4.0462,4.0877,4.1317,4.1317,4.192,4.2587,4.2587,4.2975,4.3226,4.2688,4.2587,4.2738,4.3277,4.3176,4.3076,4.3327,4.3176,4.3076,4.3352,4.2939,4.2663,4.2939,4.2738,4.2448,4.2158,4.2649,4.2989,4.2964,4.3955,4.4593,4.4593,4.5106,4.5233,4.4836,4.5208,4.5358,4.5235,4.5674,4.6024,4.6286,4.6286,4.5747,4.4675,4.4675,4.4297,4.3622,4.3474,4.3122,4.2659,4.2296,4.1373,4.0116,4.0543,4.0543,4.0349,4.0952,4.1373,4.1629,4.159,4.0859,3.9617,5.3922,5.4119,5.4371,5.494,5.5119,5.5192,5.5192,5.5192,5.5192,5.5192,5.5102,5.485,5.4418,5.4281,5.3908,5.3163,5.2193,5.1104,4.9925,4.8916,4.7528,4.57,4.5461,4.4864,4.3782,4.3124,4.2586,4.2199,4.1994,4.1879,4.1866,4.1725,4.1364,4.0785,4.0785,4.0708,4.0555,4.0555,4.0415,4.0173,4.0173,4.0032,3.9839,3.9888,3.985,3.98,3.9911,3.9973,4.0049,4.0487,4.0638,4.07,4.1177,4.1289,4.1289,4.1289,4.1731,4.2199,4.2199,4.2663,4.3126,4.3126,4.3553,4.3815,4.3377,4.3277,4.3402,4.384,4.3589,4.3402,4.3865,4.3564,4.3427,4.3865,4.3564,4.3427,4.3865,4.3539,4.3277,4.3277,4.3277,4.3452,4.389,4.4869,4.5512,4.5512,4.5999,4.6125,4.5663,4.6075,4.61,4.5648,4.6075,4.6286,4.6286,4.6286,4.6336,4.6436,4.6436,4.6436,4.6421,4.6149,4.5551,4.4735,4.4123,4.3177,4.202,4.1715,4.2049,4.2784,4.2845,4.2852,4.289,4.3127,4.2385,4.0968,5.3306,5.3803,5.4239,5.4329,5.482,5.5192,5.5192,5.5192,5.5192,5.5192,5.47,5.4521,5.4999,5.4551,5.3783,5.2778,5.2024,5.1129,5.0044,4.9355,4.9085,4.928,4.8286,4.7446,4.681,4.5726,4.4186,4.2199,4.2148,4.2148,4.2161,4.2593,4.2501,4.1979,4.1979,4.1553,4.0858,4.0858,4.0694,4.044,4.044,4.0415,4.0428,4.0642,4.0437,4.0146,4.0843,4.1088,4.1088,4.1177,4.1188,4.1188,4.1264,4.1289,4.1289,4.1289,4.1731,4.2199,4.2199,4.2939,4.3689,4.3689,4.4116,4.4478,4.4403,4.4378,4.4389,4.4478,4.4428,4.4403,4.4478,4.4428,4.4403,4.4478,4.4428,4.4403,4.4478,4.4428,4.4378,4.4378,4.4378,4.4414,4.4464,4.5095,4.5512,4.5512,4.5999,4.6261,4.62,4.6261,4.6261,4.6185,4.6261,4.6286,4.6286,4.6286,4.6537,4.6998,4.6998,4.6998,4.6998,4.6952,4.6835,4.6713,4.6621,4.5391,4.3529,4.4645,4.4321,4.3263,4.4616,4.5161,4.5037,4.4056,4.3038,4.1983,5.4324,5.4563,5.488,5.5251,5.5251,5.5431,5.6149,5.5671,5.5341,5.57,5.5162,5.488,5.5162,5.494,5.4704,5.4611,5.3997,5.3114,5.1974,5.1648,5.1202,5.0488,4.9013,4.8249,4.8363,4.6217,4.4915,4.459,4.3295,4.2487,4.2225,4.2762,4.2709,4.2212,4.2513,4.2436,4.2085,4.2085,4.1931,4.166,4.166,4.1595,4.1465,4.1565,4.1382,4.1072,4.1234,4.1289,4.1339,4.1681,4.1795,4.187,4.2158,4.2258,4.2258,4.2258,4.2448,4.2713,4.3,4.3452,4.3865,4.4177,4.4694,4.5095,4.5095,4.5332,4.5457,4.5156,4.483,4.4704,4.5045,4.483,4.4704,4.5045,4.483,4.4729,4.507,4.4805,4.4589,4.4589,4.4905,4.5095,4.5095,4.5899,4.6386,4.6386,4.6612,4.6763,4.6763,4.6461,4.6286,4.6286,4.6587,4.6763,4.6763,4.7039,4.7315,4.7541,4.7541,4.7541,4.7541,4.7541,4.7541,4.7541,4.7224,4.6525,4.5607,4.5734,4.5245,4.4455,4.5284,4.5672,4.5709,4.5164,4.4701,4.4108]}]]